[[{"header":{"parameterUnit":"m.s-1","parameterCategory":1,"la1":31.0,"la2":29.5877,"lo1":-88.7671,"lo2":-86.6584,"dx":0.0162,"dy":0.0185,"nx":115,"ny":88,"refTime":"2023-01-01T06:00:00:Z","depth":0,"parameterNumber":2,"parameterNumberName":"U-component_of_WINDS"},"data":[0.0,0.0,0.0,0.0,0.0,0.0,0.0,0.0,0.0,0.0,0.0,0.0,0.0,0.0,0.0,0.0,0.0,0.0,0.0,0.0,0.0,0.0,0.0,0.0,0.0,0.0,0.0,0.0,0.0,0.0,0.0,0.0,0.0,0.0,0.0,0.0,0.0,0.0,0.0,0.0,0.0,0.0,0.0,0.0,0.0,0.0,0.0,0.0,0.0,0.0,0.0,0.0,0.0,0.0,0.0,0.0,0.0,0.0,0.0,0.0,0.0,0.0,0.0,0.0,0.0,0.0,0.0,0.0,0.0,0.0,0.0,0.0,0.0,0.0,0.0,0.0,0.0,0.0,0.0,0.0,0.0,0.0,0.0,0.0,0.0,0.0,0.0,0.0,0.0,0.0,0.0,0.0,0.0,0.0,0.0,0.0,0.0,0.0,0.0,0.0,0.0,0.0,0.0,0.0,0.0,0.0,0.0,0.0,0.0,0.0,0.0,0.0,0.0,0.0,0.0,0.0,0.0,0.0,0.0,0.0,0.0,0.0,0.0,0.0,0.0,0.0,0.0,0.0,0.0,0.0,0.0,0.0,0.0,0.0,0.0,0.0,0.0,0.0,0.0,0.0,0.0,0.0,0.0,0.0,0.0,0.0,0.0,0.0,0.0,0.0,0.0,0.0,0.0,0.0,0.0,0.0,0.0,0.0,0.0,0.0,0.0,0.0,0.0,0.0,0.0,0.0,0.0,0.0,0.0,0.0,0.0,0.0,0.0,0.0,0.0,0.0,0.0,0.0,0.0,0.0,0.0,0.0,0.0,0.0,0.0,0.0,0.0,0.0,0.0,0.0,0.0,0.0,0.0,0.0,0.0,0.0,0.0,0.0,0.0,0.0,0.0,0.0,0.0,0.0,0.0,0.0,0.0,0.0,0.0,0.0,0.0,0.0,0.0,0.0,0.0,0.0,0.0,0.0,0.0,0.0,0.0,0.0,0.0,0.0,0.0,0.0,0.0,0.0,0.0,0.0,0.0,0.0,0.0,0.0,0.0,0.0,0.0,0.0,0.0,0.0,0.0,0.0,0.0,0.0,0.0,0.0,0.0,0.0,0.0,0.0,0.0,0.0,0.0,0.0,0.0,0.0,0.0,0.0,0.0,0.0,0.0,0.0,0.0,0.0,0.0,0.0,0.0,0.0,0.0,0.0,0.0,0.0,0.0,0.0,0.0,0.0,0.0,0.0,0.0,0.0,0.0,0.0,0.0,0.0,0.0,0.0,0.0,0.0,0.0,0.0,0.0,0.0,0.0,0.0,0.0,0.0,0.0,0.0,0.0,0.0,0.0,0.0,0.0,0.0,0.0,0.0,0.0,0.0,0.0,0.0,0.0,0.0,0.0,0.0,0.0,0.0,0.0,0.0,0.0,0.0,0.0,0.0,0.0,0.0,0.0,0.0,0.0,0.0,0.0,0.0,0.0,0.0,0.0,0.0,0.0,0.0,0.0,0.0,0.0,0.0,0.0,0.0,0.0,0.0,0.0,0.0,0.0,0.0,0.0,0.0,0.0,0.0,0.0,0.0,0.0,0.0,0.0,0.0,0.0,0.0,0.0,0.0,0.0,0.0,0.0,0.0,0.0,0.0,0.0,0.0,0.0,0.0,0.0,0.0,0.0,0.0,0.0,0.0,0.0,0.0,0.0,0.0,0.0,0.0,0.0,0.0,0.0,0.0,0.0,0.0,0.0,0.0,0.0,0.0,0.0,0.0,0.0,0.0,0.0,0.0,0.0,0.0,0.0,0.0,0.0,0.0,0.0,0.0,0.0,0.0,0.0,0.0,0.0,0.0,0.0,0.0,0.0,0.0,0.0,0.0,0.0,0.0,0.0,0.0,0.0,0.0,0.0,0.0,0.0,0.0,0.0,0.0,0.0,0.0,0.0,0.0,0.0,0.0,0.0,0.0,0.0,0.0,0.0,0.0,0.0,0.0,0.0,0.0,0.0,0.0,0.0,0.0,0.0,0.0,0.0,0.0,0.0,0.0,0.0,0.0,0.0,0.0,0.0,0.0,0.0,0.0,0.0,0.0,0.0,0.0,0.0,0.0,0.0,0.0,0.0,0.0,0.0,0.0,0.0,0.0,0.0,0.0,0.0,0.0,0.0,0.0,0.0,0.0,0.0,0.0,0.0,0.0,0.0,0.0,0.0,0.0,0.0,0.0,0.0,0.0,0.0,0.0,0.0,0.0,0.0,0.0,0.0,0.0,0.0,0.0,0.0,0.0,0.0,0.0,0.0,0.0,0.0,0.0,0.0,0.0,0.0,0.0,0.0,0.0,0.0,0.0,0.0,0.0,0.0,0.0,0.0,0.0,0.0,0.0,0.0,0.0,0.0,0.0,0.0,0.0,0.0,0.0,0.0,0.0,0.0,0.0,0.0,0.0,0.0,0.0,0.0,0.0,0.0,0.0,0.0,0.0,0.0,0.0,0.0,0.0,0.0,0.0,0.0,0.0,0.0,0.0,0.0,0.0,0.0,0.0,0.0,0.0,0.0,0.0,0.0,0.0,0.0,0.0,0.0,0.0,0.0,0.0,0.0,0.0,0.0,0.0,0.0,0.0,0.0,0.0,0.0,0.0,0.0,0.0,0.0,0.0,0.0,0.0,0.0,0.0,0.0,0.0,0.0,0.0,0.0,0.0,0.0,0.0,0.0,0.0,0.0,0.0,0.0,0.0,0.0,0.0,0.0,0.0,0.0,0.0,0.0,0.0,0.0,0.0,0.0,0.0,0.0,0.0,0.0,0.0,0.0,0.0,0.0,0.0,0.0,0.0,0.0,0.0,0.0,0.0,0.0,0.0,0.0,0.0,0.0,0.0,0.0,0.0,0.0,0.0,0.0,0.0,0.0,0.0,0.0,0.0,0.0,0.0,0.0,0.0,0.0,0.0,0.0,0.0,0.0,0.0,0.0,0.0,0.0,0.0,0.0,0.0,0.0,0.0,0.0,0.0,0.0,0.0,0.0,0.0,0.0,0.0,0.0,0.0,0.0,0.0,0.0,0.0,0.0,0.0,0.0,0.0,0.0,0.0,0.0,0.0,0.0,0.0,0.0,0.0,0.0,0.0,0.0,0.0,0.0,0.0,0.0,0.0,0.0,0.0,0.0,0.0,0.0,0.0,0.0,0.0,0.0,0.0,0.0,0.0,0.0,0.0,0.0,0.0,0.0,0.0,0.0,0.0,0.0,0.0,0.0,0.0,0.0,0.0,0.0,0.0,0.0,0.0,0.0,0.0,0.0,0.0,0.0,0.0,0.0,0.0,0.0,0.0,0.0,0.0,0.0,0.0,0.0,0.0,0.0,0.0,0.0,0.0,0.0,0.0,0.0,0.0,0.0,0.0,0.0,0.0,0.0,0.0,0.0,0.0,0.0,0.0,0.0,0.0,0.0,0.0,0.0,0.0,0.0,0.0,0.0,0.0,0.0,0.0,0.0,0.0,0.0,0.0,0.0,0.0,0.0,0.0,0.0,0.0,0.0,0.0,0.0,0.0,0.0,0.0,0.0,0.0,0.0,0.0,0.0,0.0,0.0,0.0,0.0,0.0,0.0,0.0,0.0,0.0,0.0,0.0,0.0,0.0,0.0,0.0,0.0,0.0,0.0,0.0,0.0,0.0,0.0,0.0,0.0,0.0,0.0,0.0,0.0,0.0,0.0,0.0,0.0,0.0,0.0,0.0,0.0,0.0,0.0,0.0,0.0,0.0,0.0,0.0,0.0,0.0,0.0,0.0,0.0,0.0,0.0,0.0,0.0,0.0,0.0,0.0,0.0,0.0,0.0,0.0,0.0,0.0,0.0,0.0,0.0,0.0,0.0,0.0,0.0,0.0,0.0,0.0,0.0,0.0,0.0,0.0,0.0,0.0,0.0,0.0,0.0,0.0,0.0,0.0,0.0,0.0,0.0,0.0,0.0,0.0,0.0,0.0,0.0,0.0,0.0,0.0,0.0,0.0,0.0,0.0,0.0,0.0,0.0,0.0,0.0,0.0,0.0,0.0,0.0,0.0,0.0,0.0,0.0,0.0,0.0,0.0,0.0,0.0,0.0,0.0,0.0,0.0,0.0,0.0,0.0,0.0,0.0,0.0,0.0,0.0,0.0,0.0,0.0,0.0,0.0,0.0,0.0,0.0,0.0,0.0,0.0,0.0,0.0,0.0,0.0,0.0,0.0,0.0,0.0,0.0,0.0,0.0,0.0,0.0,0.0,0.0,0.0,0.0,-1.7904,0.0,0.0,0.0,-1.6756,0.0,0.0,0.0,0.0,0.0,0.0,0.0,0.0,0.0,0.0,0.0,0.0,0.0,0.0,0.0,0.0,0.0,0.0,0.0,0.0,0.0,0.0,0.0,0.0,0.0,0.0,0.0,0.0,0.0,0.0,0.0,0.0,0.0,0.0,0.0,0.0,0.0,0.0,0.0,0.0,0.0,0.0,0.0,0.0,0.0,0.0,0.0,0.0,0.0,0.0,0.0,0.0,0.0,0.0,0.0,0.0,0.0,0.0,0.0,0.0,0.0,0.0,0.0,0.0,0.0,0.0,0.0,0.0,0.0,0.0,0.0,0.0,0.0,0.0,0.0,0.0,0.0,0.0,0.0,0.0,0.0,0.0,0.0,0.0,0.0,0.0,0.0,0.0,0.0,0.0,0.0,0.0,0.0,0.0,0.0,0.0,0.0,0.0,0.0,0.0,0.0,0.0,0.0,0.0,0.0,0.0,0.0,0.0,0.0,0.0,-1.7717,-1.6617,-1.7289,-1.7235,-1.6278,0.0,0.0,0.0,0.0,0.0,0.0,0.0,0.0,0.0,0.0,0.0,0.0,0.0,0.0,0.0,0.0,0.0,0.0,0.0,0.0,0.0,0.0,0.0,0.0,0.0,0.0,0.0,0.0,0.0,0.0,0.0,0.0,0.0,0.0,0.0,0.0,0.0,0.0,0.0,0.0,0.0,0.0,0.0,0.0,0.0,0.0,0.0,0.0,0.0,0.0,0.0,0.0,0.0,0.0,0.0,0.0,0.0,0.0,0.0,0.0,0.0,0.0,0.0,0.0,0.0,0.0,0.0,0.0,0.0,0.0,0.0,0.0,0.0,0.0,0.0,0.0,0.0,0.0,0.0,0.0,0.0,0.0,0.0,0.0,0.0,0.0,0.0,0.0,0.0,0.0,0.0,0.0,0.0,0.0,0.0,0.0,0.0,0.0,0.0,0.0,0.0,0.0,0.0,0.0,0.0,0.0,0.0,0.0,0.0,0.0,0.0,0.0,-1.7471,-1.7235,-1.6323,0.0,0.0,0.0,0.0,0.0,0.0,0.0,0.0,0.0,0.0,0.0,0.0,0.0,0.0,0.0,0.0,0.0,0.0,0.0,0.0,0.0,0.0,0.0,0.0,0.0,0.0,0.0,0.0,0.0,0.0,0.0,0.0,0.0,0.0,0.0,0.0,0.0,0.0,0.0,0.0,0.0,0.0,0.0,0.0,0.0,0.0,0.0,0.0,0.0,0.0,0.0,0.0,0.0,0.0,0.0,0.0,0.0,0.0,0.0,0.0,0.0,0.0,0.0,0.0,0.0,0.0,0.0,0.0,0.0,0.0,0.0,0.0,0.0,0.0,0.0,0.0,0.0,0.0,0.0,0.0,0.0,0.0,0.0,0.0,0.0,0.0,0.0,0.0,0.0,0.0,0.0,0.0,0.0,0.0,0.0,0.0,0.0,0.0,0.0,0.0,0.0,0.0,0.0,0.0,0.0,0.0,0.0,0.0,0.0,0.0,-1.7796,-1.78,-1.7716,0.0,-1.7609,0.0,0.0,0.0,0.0,0.0,0.0,0.0,0.0,0.0,0.0,0.0,0.0,0.0,0.0,0.0,0.0,0.0,0.0,0.0,0.0,0.0,0.0,0.0,0.0,0.0,0.0,0.0,0.0,0.0,0.0,0.0,0.0,0.0,0.0,0.0,0.0,0.0,0.0,0.0,0.0,0.0,0.0,0.0,0.0,0.0,0.0,0.0,0.0,0.0,0.0,0.0,0.0,0.0,0.0,0.0,0.0,0.0,0.0,0.0,0.0,0.0,0.0,0.0,0.0,0.0,0.0,0.0,0.0,0.0,0.0,0.0,0.0,0.0,0.0,0.0,0.0,0.0,0.0,0.0,0.0,0.0,0.0,0.0,0.0,0.0,0.0,0.0,0.0,0.0,0.0,0.0,0.0,0.0,0.0,0.0,0.0,0.0,0.0,0.0,0.0,0.0,0.0,0.0,0.0,0.0,0.0,0.0,0.0,0.0,0.0,-1.8394,-1.842,-1.7961,-1.7893,0.0,0.0,0.0,0.0,0.0,0.0,0.0,0.0,0.0,0.0,0.0,0.0,0.0,0.0,0.0,0.0,0.0,0.0,0.0,0.0,0.0,0.0,0.0,0.0,0.0,0.0,0.0,0.0,0.0,0.0,0.0,0.0,0.0,0.0,0.0,0.0,0.0,0.0,0.0,0.0,0.0,0.0,0.0,0.0,0.0,0.0,0.0,0.0,0.0,0.0,0.0,0.0,0.0,0.0,0.0,0.0,0.0,0.0,0.0,0.0,0.0,0.0,0.0,0.0,0.0,0.0,0.0,0.0,0.0,0.0,0.0,0.0,0.0,0.0,0.0,0.0,0.0,0.0,0.0,0.0,0.0,0.0,0.0,0.0,0.0,0.0,0.0,0.0,0.0,0.0,0.0,0.0,0.0,0.0,0.0,0.0,0.0,0.0,0.0,0.0,0.0,0.0,0.0,0.0,0.0,0.0,0.0,0.0,0.0,0.0,-1.8697,-1.8801,-1.8748,-1.8246,-1.7953,-1.7909,0.0,0.0,0.0,0.0,0.0,0.0,0.0,0.0,0.0,0.0,0.0,0.0,0.0,0.0,0.0,0.0,0.0,0.0,0.0,0.0,0.0,0.0,0.0,0.0,0.0,0.0,0.0,0.0,0.0,0.0,0.0,0.0,0.0,0.0,0.0,0.0,0.0,0.0,0.0,0.0,0.0,0.0,0.0,0.0,0.0,0.0,0.0,0.0,0.0,0.0,0.0,0.0,0.0,0.0,0.0,0.0,0.0,0.0,0.0,0.0,0.0,0.0,0.0,0.0,0.0,0.0,0.0,0.0,0.0,0.0,0.0,0.0,0.0,0.0,0.0,0.0,0.0,0.0,0.0,0.0,0.0,0.0,0.0,0.0,0.0,0.0,0.0,0.0,0.0,0.0,0.0,0.0,0.0,0.0,0.0,0.0,0.0,0.0,0.0,0.0,0.0,0.0,0.0,0.0,0.0,0.0,0.0,0.0,-1.9132,-1.8933,-1.8765,-1.8774,-1.8674,-1.7821,0.0,0.0,0.0,0.0,0.0,0.0,0.0,0.0,0.0,0.0,0.0,0.0,0.0,0.0,0.0,0.0,0.0,0.0,0.0,0.0,0.0,0.0,0.0,0.0,0.0,0.0,0.0,0.0,0.0,0.0,0.0,0.0,0.0,0.0,0.0,0.0,0.0,0.0,0.0,0.0,0.0,0.0,0.0,0.0,0.0,0.0,0.0,0.0,0.0,0.0,0.0,0.0,0.0,0.0,0.0,0.0,0.0,0.0,0.0,0.0,0.0,0.0,0.0,0.0,0.0,0.0,0.0,0.0,0.0,0.0,0.0,0.0,0.0,0.0,0.0,0.0,0.0,0.0,0.0,0.0,0.0,0.0,0.0,0.0,0.0,0.0,0.0,0.0,0.0,0.0,0.0,0.0,0.0,0.0,0.0,0.0,0.0,0.0,0.0,0.0,0.0,0.0,0.0,0.0,0.0,0.0,0.0,0.0,0.0,-1.7633,-1.7973,-1.9045,-2.0761,-1.8296,-1.7102,0.0,0.0,0.0,0.0,0.0,0.0,0.0,0.0,0.0,0.0,0.0,0.0,0.0,0.0,0.0,0.0,0.0,0.0,0.0,0.0,0.0,0.0,0.0,0.0,0.0,0.0,0.0,0.0,0.0,0.0,0.0,0.0,0.0,0.0,0.0,0.0,0.0,0.0,0.0,0.0,0.0,0.0,0.0,0.0,0.0,0.0,0.0,0.0,0.0,0.0,0.0,0.0,0.0,0.0,0.0,0.0,0.0,0.0,0.0,0.0,0.0,0.0,0.0,0.0,0.0,0.0,0.0,0.0,0.0,0.0,0.0,0.0,0.0,0.0,0.0,0.0,0.0,0.0,0.0,0.0,0.0,0.0,0.0,0.0,0.0,0.0,0.0,0.0,0.0,0.0,0.0,0.0,0.0,0.0,0.0,0.0,0.0,0.0,0.0,0.0,0.0,0.0,0.0,0.0,0.0,0.0,0.0,0.0,0.0,-1.7885,-1.8816,-1.9969,-2.1124,-1.8153,-1.6533,0.0,0.0,0.0,0.0,0.0,0.0,0.0,0.0,0.0,0.0,0.0,0.0,0.0,0.0,0.0,0.0,0.0,0.0,0.0,0.0,0.0,0.0,0.0,0.0,0.0,0.0,0.0,0.0,0.0,0.0,0.0,0.0,0.0,0.0,0.0,0.0,0.0,0.0,0.0,0.0,0.0,0.0,0.0,0.0,0.0,0.0,0.0,0.0,0.0,0.0,0.0,0.0,0.0,0.0,0.0,0.0,0.0,0.0,0.0,0.0,0.0,0.0,0.0,0.0,0.0,0.0,0.0,0.0,0.0,0.0,0.0,0.0,0.0,0.0,0.0,0.0,0.0,0.0,0.0,0.0,0.0,0.0,0.0,0.0,0.0,0.0,0.0,0.0,0.0,0.0,0.0,0.0,0.0,0.0,0.0,0.0,0.0,0.0,0.0,0.0,0.0,0.0,0.0,0.0,0.0,0.0,0.0,0.0,-1.6722,-2.0183,-2.1601,-2.1397,-1.9608,-1.8306,-1.6174,0.0,0.0,0.0,0.0,0.0,0.0,0.0,0.0,0.0,0.0,0.0,0.0,0.0,0.0,0.0,0.0,0.0,0.0,0.0,0.0,0.0,0.0,0.0,0.0,0.0,0.0,0.0,0.0,0.0,0.0,0.0,0.0,0.0,0.0,0.0,0.0,0.0,0.0,0.0,0.0,0.0,0.0,0.0,0.0,0.0,0.0,0.0,0.0,0.0,0.0,0.0,0.0,0.0,0.0,0.0,0.0,0.0,0.0,0.0,0.0,0.0,0.0,0.0,0.0,0.0,0.0,0.0,0.0,0.0,0.0,0.0,0.0,0.0,0.0,0.0,0.0,0.0,0.0,0.0,0.0,0.0,0.0,0.0,0.0,0.0,0.0,0.0,0.0,0.0,0.0,0.0,0.0,0.0,0.0,0.0,0.0,0.0,0.0,0.0,0.0,0.0,0.0,0.0,0.0,0.0,0.0,0.0,0.0,0.0,-1.8995,-2.1071,-2.1722,-2.0649,-1.8287,-1.6965,0.0,0.0,0.0,0.0,0.0,0.0,0.0,0.0,0.0,0.0,0.0,0.0,0.0,0.0,0.0,0.0,0.0,0.0,0.0,0.0,0.0,0.0,0.0,0.0,0.0,0.0,0.0,0.0,0.0,0.0,0.0,0.0,0.0,0.0,0.0,0.0,0.0,0.0,0.0,0.0,0.0,0.0,0.0,0.0,0.0,0.0,0.0,0.0,0.0,0.0,0.0,0.0,0.0,0.0,0.0,0.0,0.0,0.0,0.0,0.0,0.0,0.0,0.0,0.0,0.0,0.0,0.0,0.0,0.0,0.0,0.0,0.0,0.0,0.0,0.0,0.0,0.0,0.0,0.0,0.0,0.0,0.0,0.0,0.0,0.0,0.0,0.0,0.0,0.0,0.0,0.0,0.0,0.0,0.0,0.0,0.0,0.0,0.0,0.0,0.0,0.0,0.0,0.0,0.0,0.0,0.0,0.0,0.0,0.0,-2.0623,-2.2812,-2.3389,-2.2048,-1.9281,-1.7851,-1.7891,0.0,0.0,0.0,0.0,0.0,0.0,0.0,0.0,0.0,0.0,0.0,0.0,0.0,0.0,0.0,0.0,0.0,0.0,0.0,0.0,0.0,0.0,0.0,0.0,0.0,0.0,0.0,0.0,0.0,0.0,0.0,0.0,0.0,0.0,0.0,0.0,0.0,0.0,0.0,0.0,0.0,0.0,0.0,0.0,0.0,0.0,0.0,0.0,0.0,0.0,0.0,0.0,0.0,0.0,0.0,0.0,0.0,0.0,0.0,0.0,0.0,0.0,0.0,0.0,0.0,0.0,0.0,0.0,0.0,0.0,0.0,0.0,0.0,0.0,0.0,0.0,0.0,0.0,0.0,0.0,0.0,0.0,0.0,0.0,0.0,0.0,0.0,0.0,0.0,0.0,0.0,0.0,0.0,0.0,0.0,0.0,0.0,0.0,0.0,0.0,0.0,0.0,0.0,0.0,0.0,0.0,0.0,0.0,-2.4271,-2.6318,-2.6115,-2.3525,-2.1127,-1.8949,0.0,0.0,0.0,0.0,0.0,0.0,0.0,0.0,0.0,0.0,0.0,0.0,0.0,0.0,0.0,0.0,0.0,0.0,0.0,0.0,0.0,0.0,0.0,0.0,0.0,0.0,0.0,0.0,0.0,0.0,0.0,0.0,0.0,0.0,0.0,0.0,0.0,0.0,0.0,0.0,0.0,0.0,0.0,0.0,0.0,0.0,0.0,0.0,0.0,0.0,0.0,0.0,0.0,0.0,0.0,0.0,0.0,0.0,0.0,0.0,0.0,0.0,0.0,0.0,0.0,0.0,0.0,0.0,0.0,0.0,0.0,0.0,0.0,0.0,0.0,0.0,0.0,0.0,0.0,0.0,0.0,0.0,0.0,0.0,0.0,0.0,0.0,0.0,0.0,0.0,0.0,0.0,0.0,0.0,0.0,0.0,0.0,0.0,0.0,0.0,0.0,0.0,0.0,0.0,0.0,0.0,0.0,0.0,0.0,-2.6333,-2.7786,-2.7207,-2.4399,-2.2685,-2.1162,0.0,0.0,0.0,0.0,0.0,0.0,0.0,0.0,0.0,0.0,0.0,0.0,0.0,0.0,0.0,0.0,0.0,0.0,0.0,0.0,0.0,0.0,0.0,0.0,0.0,0.0,0.0,0.0,0.0,0.0,0.0,0.0,0.0,0.0,0.0,0.0,0.0,0.0,0.0,0.0,0.0,0.0,0.0,0.0,0.0,0.0,0.0,0.0,0.0,0.0,0.0,0.0,0.0,0.0,0.0,0.0,0.0,0.0,0.0,0.0,0.0,0.0,0.0,0.0,0.0,0.0,0.0,0.0,0.0,0.0,0.0,0.0,0.0,0.0,0.0,0.0,0.0,0.0,0.0,0.0,0.0,0.0,0.0,0.0,0.0,0.0,0.0,0.0,0.0,0.0,0.0,0.0,0.0,0.0,0.0,0.0,0.0,0.0,0.0,0.0,0.0,0.0,0.0,0.0,0.0,0.0,0.0,0.0,-2.6896,-2.839,-2.9068,-2.8389,-2.6197,-2.439,-2.271,0.0,0.0,0.0,0.0,0.0,0.0,0.0,0.0,0.0,0.0,0.0,0.0,0.0,0.0,0.0,0.0,0.0,0.0,0.0,0.0,0.0,0.0,0.0,0.0,0.0,0.0,0.0,0.0,0.0,0.0,0.0,0.0,0.0,0.0,0.0,0.0,0.0,0.0,0.0,0.0,0.0,0.0,0.0,0.0,0.0,0.0,0.0,0.0,0.0,0.0,0.0,0.0,0.0,0.0,0.0,0.0,0.0,0.0,0.0,0.0,0.0,0.0,0.0,0.0,0.0,0.0,0.0,0.0,0.0,0.0,0.0,0.0,0.0,0.0,0.0,0.0,0.0,0.0,0.0,0.0,0.0,0.0,0.0,0.0,0.0,0.0,0.0,0.0,0.0,0.0,0.0,0.0,0.0,0.0,0.0,0.0,0.0,0.0,0.0,0.0,0.0,0.0,0.0,0.0,0.0,0.0,0.0,0.0,-2.846,-3.0114,-3.0082,-2.9466,-2.8227,-2.5912,-2.3822,0.0,0.0,0.0,0.0,0.0,0.0,0.0,0.0,0.0,0.0,0.0,0.0,0.0,0.0,0.0,0.0,0.0,0.0,0.0,0.0,0.0,0.0,0.0,0.0,0.0,0.0,0.0,0.0,0.0,0.0,0.0,0.0,0.0,0.0,0.0,0.0,0.0,0.0,0.0,0.0,0.0,0.0,0.0,0.0,0.0,0.0,0.0,0.0,0.0,0.0,0.0,0.0,0.0,0.0,0.0,0.0,0.0,0.0,0.0,0.0,0.0,0.0,0.0,0.0,0.0,0.0,0.0,0.0,0.0,0.0,0.0,0.0,0.0,0.0,0.0,0.0,0.0,0.0,0.0,0.0,0.0,0.0,0.0,0.0,0.0,0.0,0.0,0.0,0.0,0.0,0.0,0.0,0.0,0.0,0.0,0.0,0.0,0.0,0.0,0.0,0.0,0.0,0.0,0.0,0.0,0.0,0.0,0.0,-2.9124,-2.9852,-3.0152,-2.9469,-2.7717,-2.6143,-2.4405,0.0,0.0,0.0,0.0,0.0,0.0,0.0,0.0,0.0,0.0,0.0,0.0,0.0,0.0,0.0,0.0,0.0,0.0,0.0,0.0,0.0,0.0,0.0,0.0,0.0,0.0,0.0,0.0,0.0,0.0,0.0,0.0,0.0,0.0,0.0,0.0,0.0,0.0,0.0,0.0,0.0,0.0,0.0,0.0,0.0,0.0,0.0,0.0,-1.0921,0.0,0.0,0.0,0.0,0.0,0.0,0.0,0.0,0.0,0.0,0.0,0.0,0.0,0.0,0.0,0.0,0.0,0.0,0.0,0.0,0.0,0.0,0.0,0.0,0.0,0.0,0.0,0.0,0.0,0.0,0.0,0.0,0.0,0.0,0.0,0.0,0.0,0.0,0.0,0.0,0.0,0.0,0.0,0.0,0.0,0.0,0.0,0.0,0.0,0.0,0.0,0.0,0.0,0.0,0.0,0.0,0.0,0.0,0.0,-3.018,-3.0912,-3.1034,-3.0404,-2.8986,-2.7554,-2.5467,0.0,0.0,0.0,0.0,0.0,0.0,0.0,0.0,0.0,0.0,0.0,0.0,0.0,0.0,0.0,0.0,0.0,0.0,0.0,0.0,0.0,0.0,0.0,0.0,0.0,0.0,0.0,0.0,0.0,0.0,0.0,0.0,0.0,0.0,0.0,0.0,0.0,0.0,0.0,0.0,0.0,0.0,0.0,0.0,0.0,0.0,0.0,0.0,0.0,0.0,0.0,0.0,0.0,0.0,0.0,0.0,0.0,0.0,0.0,0.0,0.0,0.0,0.0,0.0,0.0,0.0,0.0,0.0,0.0,0.0,0.0,0.0,0.0,0.0,0.0,0.0,0.0,0.0,0.0,0.0,0.0,0.0,0.0,0.0,0.0,0.0,0.0,0.0,0.0,0.0,0.0,0.0,0.0,0.0,0.0,0.0,0.0,0.0,0.0,0.0,0.0,0.0,0.0,0.0,0.0,0.0,0.0,-2.9171,-3.0995,-3.2008,-3.1893,-3.1405,-3.0532,-2.9127,-2.6649,-2.3124,0.0,0.0,0.0,0.0,0.0,0.0,0.0,0.0,0.0,0.0,0.0,0.0,0.0,0.0,0.0,0.0,0.0,0.0,0.0,0.0,0.0,0.0,0.0,0.0,0.0,0.0,0.0,0.0,0.0,0.0,0.0,0.0,0.0,0.0,0.0,0.0,0.0,0.0,-1.284,-1.3726,0.0,0.0,0.0,0.0,0.0,0.0,0.0,0.0,-1.1659,0.0,0.0,0.0,0.0,0.0,0.0,0.0,0.0,0.0,0.0,0.0,0.0,0.0,0.0,0.0,0.0,0.0,0.0,0.0,0.0,0.0,0.0,0.0,0.0,0.0,0.0,0.0,0.0,0.0,0.0,0.0,0.0,0.0,0.0,0.0,0.0,0.0,0.0,0.0,0.0,0.0,0.0,0.0,0.0,0.0,0.0,0.0,0.0,0.0,0.0,0.0,0.0,0.0,0.0,0.0,0.0,-2.8532,-2.9593,-3.0527,-3.1336,-3.1821,-3.1437,-3.0152,-2.9421,-2.7484,-2.4273,0.0,0.0,0.0,0.0,0.0,0.0,0.0,0.0,0.0,0.0,0.0,0.0,0.0,0.0,0.0,0.0,0.0,0.0,0.0,0.0,0.0,0.0,0.0,0.0,0.0,0.0,0.0,0.0,0.0,0.0,0.0,0.0,0.0,0.0,0.0,0.0,0.0,0.0,0.0,-1.5415,-1.5205,0.0,0.0,0.0,0.0,0.0,0.0,0.0,0.0,-1.2963,0.0,0.0,0.0,0.0,0.0,0.0,0.0,0.0,0.0,0.0,0.0,0.0,0.0,0.0,0.0,0.0,0.0,0.0,0.0,0.0,0.0,0.0,0.0,0.0,0.0,0.0,0.0,0.0,0.0,0.0,0.0,0.0,0.0,0.0,0.0,0.0,0.0,0.0,0.0,0.0,0.0,0.0,0.0,0.0,0.0,0.0,0.0,0.0,0.0,0.0,0.0,0.0,0.0,0.0,0.0,-2.8262,-3.0218,-3.1416,-3.1968,-3.1884,-3.1505,-3.0846,-2.9774,-2.7848,0.0,0.0,0.0,0.0,0.0,0.0,0.0,0.0,0.0,0.0,0.0,0.0,0.0,0.0,0.0,0.0,0.0,0.0,0.0,0.0,0.0,0.0,0.0,0.0,0.0,0.0,0.0,0.0,0.0,0.0,0.0,0.0,0.0,0.0,0.0,0.0,0.0,0.0,0.0,0.0,-1.7064,-1.685,-1.7736,0.0,0.0,0.0,0.0,0.0,0.0,-1.3905,-1.3762,0.0,0.0,0.0,0.0,0.0,0.0,0.0,0.0,0.0,0.0,0.0,0.0,0.0,0.0,0.0,0.0,0.0,0.0,0.0,0.0,0.0,0.0,0.0,0.0,0.0,0.0,0.0,0.0,0.0,0.0,0.0,0.0,0.0,0.0,0.0,0.0,0.0,0.0,0.0,0.0,0.0,0.0,0.0,0.0,0.0,0.0,0.0,0.0,0.0,0.0,0.0,0.0,0.0,0.0,0.0,-2.7731,-3.0426,-3.2032,-3.25,-3.1946,-3.1556,-3.1468,-3.0122,-2.8082,0.0,0.0,0.0,0.0,0.0,0.0,0.0,0.0,0.0,0.0,0.0,0.0,0.0,0.0,0.0,0.0,0.0,0.0,0.0,0.0,0.0,0.0,0.0,0.0,0.0,0.0,0.0,0.0,0.0,0.0,0.0,0.0,0.0,0.0,0.0,0.0,0.0,0.0,0.0,0.0,0.0,-1.8362,-1.9643,-1.7922,0.0,0.0,0.0,0.0,-1.5191,-1.5512,0.0,0.0,0.0,0.0,0.0,0.0,0.0,0.0,0.0,0.0,0.0,0.0,0.0,0.0,0.0,0.0,0.0,0.0,0.0,0.0,0.0,0.0,0.0,0.0,0.0,0.0,0.0,0.0,0.0,0.0,0.0,0.0,0.0,0.0,0.0,0.0,0.0,0.0,0.0,0.0,0.0,0.0,0.0,0.0,0.0,0.0,0.0,0.0,0.0,0.0,0.0,0.0,0.0,0.0,0.0,0.0,-2.7671,-2.9418,-3.0871,-3.2064,-3.1813,-3.1421,-3.106,-3.0466,-2.8401,0.0,0.0,0.0,0.0,0.0,0.0,0.0,0.0,0.0,0.0,0.0,0.0,0.0,0.0,0.0,0.0,0.0,0.0,0.0,0.0,0.0,0.0,0.0,0.0,0.0,0.0,0.0,0.0,0.0,0.0,0.0,0.0,0.0,0.0,0.0,0.0,0.0,0.0,0.0,0.0,0.0,-1.8821,-1.9008,-1.8318,-1.79,0.0,0.0,-1.8122,-1.8037,-1.8739,0.0,0.0,0.0,0.0,0.0,0.0,0.0,0.0,0.0,0.0,0.0,0.0,0.0,0.0,0.0,0.0,0.0,0.0,0.0,0.0,0.0,0.0,0.0,0.0,0.0,0.0,0.0,0.0,0.0,0.0,0.0,0.0,0.0,0.0,0.0,0.0,0.0,0.0,0.0,0.0,0.0,0.0,0.0,0.0,0.0,0.0,0.0,0.0,0.0,0.0,0.0,0.0,0.0,0.0,0.0,-2.4064,-2.7874,-3.0441,-3.2042,-3.2729,-3.2402,-3.1989,-3.1483,-3.1005,-2.8744,0.0,0.0,0.0,0.0,0.0,0.0,0.0,0.0,0.0,0.0,0.0,0.0,0.0,0.0,0.0,0.0,0.0,0.0,0.0,0.0,0.0,0.0,0.0,0.0,0.0,0.0,0.0,0.0,0.0,0.0,0.0,0.0,0.0,0.0,0.0,0.0,0.0,0.0,0.0,0.0,0.0,0.0,-2.2045,-2.0651,0.0,0.0,0.0,-1.9632,-1.9351,0.0,0.0,0.0,0.0,0.0,0.0,0.0,0.0,0.0,0.0,0.0,0.0,0.0,0.0,0.0,0.0,0.0,0.0,0.0,0.0,0.0,0.0,0.0,0.0,0.0,0.0,0.0,0.0,0.0,0.0,0.0,0.0,0.0,0.0,0.0,0.0,0.0,0.0,0.0,0.0,0.0,0.0,0.0,0.0,0.0,0.0,0.0,0.0,0.0,0.0,0.0,0.0,0.0,0.0,0.0,0.0,0.0,-2.8088,-3.1489,-3.3243,-3.3275,-3.2896,-3.2489,-3.2045,-3.1554,0.0,0.0,0.0,0.0,0.0,0.0,0.0,0.0,0.0,0.0,0.0,0.0,0.0,0.0,0.0,0.0,0.0,0.0,0.0,0.0,0.0,0.0,0.0,0.0,0.0,0.0,0.0,-0.8256,0.0,0.0,0.0,0.0,0.0,0.0,0.0,0.0,0.0,0.0,0.0,0.0,0.0,0.0,-2.1661,-2.383,-2.2395,-2.1289,0.0,0.0,-2.1085,-2.1045,-2.1551,-2.1073,0.0,0.0,0.0,0.0,0.0,0.0,0.0,0.0,0.0,0.0,0.0,0.0,0.0,0.0,0.0,0.0,0.0,0.0,0.0,0.0,0.0,0.0,0.0,0.0,0.0,0.0,0.0,0.0,0.0,0.0,0.0,0.0,0.0,0.0,0.0,0.0,0.0,0.0,0.0,0.0,0.0,0.0,0.0,0.0,0.0,0.0,0.0,0.0,0.0,0.0,0.0,0.0,0.0,0.0,0.0,-2.8109,-3.1894,-3.3648,-3.3315,-3.2883,-3.2672,-3.2646,-3.2174,-2.9523,0.0,0.0,0.0,0.0,0.0,0.0,0.0,0.0,0.0,0.0,0.0,0.0,0.0,0.0,0.0,0.0,0.0,0.0,0.0,0.0,0.0,0.0,0.0,0.0,0.0,0.0,0.0,0.0,0.0,0.0,0.0,0.0,0.0,0.0,0.0,0.0,0.0,0.0,0.0,0.0,0.0,-2.0344,-2.2027,-2.2328,-2.2822,0.0,0.0,-2.2783,-2.3926,-2.4141,-2.2793,-1.8682,0.0,0.0,0.0,0.0,0.0,0.0,0.0,0.0,0.0,0.0,0.0,0.0,0.0,0.0,0.0,0.0,0.0,0.0,0.0,0.0,0.0,0.0,0.0,0.0,0.0,0.0,0.0,0.0,0.0,0.0,0.0,0.0,0.0,0.0,0.0,0.0,0.0,0.0,0.0,0.0,0.0,0.0,0.0,0.0,0.0,0.0,0.0,0.0,0.0,0.0,0.0,0.0,0.0,-2.5593,-2.8217,-3.2319,-3.4297,-3.3975,-3.3826,-3.3587,-3.3247,-3.3138,-3.1029,0.0,0.0,0.0,0.0,0.0,0.0,0.0,0.0,0.0,0.0,0.0,0.0,0.0,0.0,0.0,0.0,0.0,0.0,0.0,0.0,0.0,0.0,0.0,0.0,0.0,0.0,0.0,0.0,-1.3841,-1.4427,-1.4255,0.0,0.0,0.0,0.0,0.0,0.0,0.0,0.0,0.0,0.0,-2.3053,-2.4596,-2.4626,0.0,0.0,-2.499,-2.457,-2.4785,-2.416,-2.2812,-2.0352,-1.8965,0.0,0.0,0.0,0.0,0.0,0.0,0.0,0.0,0.0,0.0,0.0,0.0,0.0,0.0,0.0,0.0,0.0,0.0,0.0,0.0,0.0,0.0,0.0,0.0,0.0,0.0,0.0,0.0,0.0,0.0,0.0,0.0,0.0,0.0,0.0,0.0,0.0,0.0,0.0,0.0,0.0,0.0,0.0,0.0,0.0,0.0,0.0,0.0,0.0,0.0,0.0,0.0,-2.5593,-2.8095,-3.2588,-3.474,-3.4384,-3.4397,-3.4131,-3.3548,-3.3435,-3.1681,0.0,0.0,0.0,0.0,0.0,0.0,0.0,0.0,0.0,0.0,0.0,0.0,0.0,0.0,0.0,0.0,0.0,0.0,0.0,0.0,0.0,0.0,0.0,0.0,0.0,0.0,0.0,0.0,-1.5141,-1.5324,-1.4506,0.0,0.0,0.0,0.0,0.0,0.0,0.0,0.0,0.0,0.0,-2.4601,-2.5879,-2.5789,-2.5596,-2.5781,-2.5322,-2.4853,-2.4541,-2.3848,-2.2914,-2.1414,0.0,0.0,0.0,0.0,0.0,0.0,0.0,0.0,0.0,0.0,0.0,0.0,0.0,0.0,0.0,0.0,0.0,0.0,0.0,0.0,0.0,0.0,0.0,0.0,0.0,0.0,0.0,0.0,0.0,0.0,-1.3379,0.0,0.0,0.0,0.0,0.0,0.0,0.0,0.0,0.0,0.0,0.0,0.0,0.0,0.0,0.0,0.0,0.0,0.0,0.0,0.0,0.0,0.0,-2.5549,-2.7752,-3.2589,-3.4881,-3.4397,-3.4397,-3.4092,-3.3433,-3.2857,-3.1006,-2.7777,0.0,0.0,0.0,0.0,0.0,0.0,0.0,0.0,0.0,0.0,0.0,0.0,0.0,0.0,0.0,0.0,0.0,0.0,0.0,0.0,0.0,0.0,0.0,0.0,0.0,0.0,-1.2713,-1.3903,-1.4773,0.0,0.0,0.0,0.0,0.0,0.0,0.0,0.0,0.0,0.0,-2.303,-2.4127,-2.5045,-2.5125,-2.5,-2.4619,-2.3838,-2.3262,-2.3257,-2.3525,-2.3193,0.0,0.0,0.0,0.0,0.0,0.0,0.0,0.0,0.0,0.0,0.0,0.0,0.0,0.0,0.0,0.0,0.0,0.0,0.0,0.0,0.0,0.0,0.0,0.0,0.0,0.0,0.0,-1.8379,-1.7381,0.0,0.0,0.0,0.0,0.0,0.0,0.0,0.0,0.0,0.0,0.0,-2.5737,-2.6297,0.0,0.0,0.0,0.0,0.0,0.0,0.0,0.0,0.0,0.0,0.0,0.0,-2.5563,-2.8154,-3.2736,-3.4867,-3.4397,-3.4397,-3.4314,-3.4063,-3.3449,-3.1178,-2.7137,0.0,0.0,0.0,0.0,0.0,0.0,0.0,0.0,0.0,0.0,0.0,0.0,0.0,0.0,0.0,0.0,0.0,0.0,0.0,0.0,0.0,0.0,0.0,0.0,0.0,-1.455,0.0,0.0,0.0,0.0,0.0,0.0,0.0,0.0,0.0,0.0,0.0,-2.0922,-2.2392,-2.3521,-2.4414,-2.5037,-2.5322,-2.5752,0.0,0.0,0.0,0.0,0.0,0.0,0.0,0.0,0.0,0.0,0.0,0.0,0.0,0.0,-1.9409,-1.505,-1.4111,-1.3888,-1.368,0.0,0.0,0.0,0.0,0.0,0.0,0.0,0.0,0.0,0.0,0.0,0.0,0.0,0.0,-2.1146,0.0,-2.0244,0.0,0.0,0.0,0.0,0.0,0.0,0.0,0.0,-2.5932,-2.7681,-2.8577,-2.9388,-2.9407,0.0,-2.7641,-2.4607,0.0,0.0,0.0,0.0,0.0,0.0,0.0,0.0,-2.5816,-2.8907,-3.2827,-3.4701,-3.4397,-3.4397,-3.4272,-3.4063,-3.3373,-3.1448,-2.8125,-2.6565,-2.4607,0.0,0.0,0.0,0.0,0.0,0.0,0.0,0.0,0.0,0.0,0.0,0.0,0.0,0.0,0.0,0.0,0.0,0.0,0.0,0.0,0.0,0.0,0.0,-1.5924,0.0,0.0,0.0,0.0,0.0,0.0,0.0,0.0,0.0,-1.9765,-2.1729,-2.355,-2.4485,-2.5589,-2.6127,-2.5701,0.0,0.0,0.0,0.0,0.0,0.0,0.0,-2.2584,-2.273,-2.2139,-2.1546,-2.1541,-2.2085,-2.227,-2.1411,0.0,0.0,-1.7829,-1.6838,-1.6557,-1.6302,-1.6652,-1.7082,-1.7532,-1.8137,-1.869,0.0,0.0,0.0,0.0,0.0,0.0,0.0,0.0,-2.3942,-2.3644,0.0,-2.2853,0.0,0.0,0.0,0.0,0.0,-2.3344,0.0,0.0,-3.1325,-3.2921,-3.193,-3.1913,-3.1954,-3.1946,-3.134,-2.9886,-2.7572,-2.5322,0.0,0.0,0.0,0.0,0.0,0.0,-2.6408,-3.0002,-3.2916,-3.4397,-3.4397,-3.4397,-3.4063,-3.3441,-3.2717,-3.1784,-3.0587,-2.9399,-2.707,-2.3431,-2.0429,0.0,0.0,0.0,0.0,0.0,0.0,0.0,0.0,0.0,0.0,0.0,0.0,0.0,0.0,0.0,0.0,0.0,0.0,0.0,0.0,-1.6931,0.0,0.0,0.0,0.0,0.0,0.0,0.0,0.0,0.0,0.0,-2.2803,-2.4641,-2.6539,-2.7594,0.0,0.0,0.0,0.0,-2.6834,-2.4975,-2.4225,-2.3818,-2.3442,-2.4336,-2.5205,-2.5606,0.0,0.0,-2.5995,-2.5404,-2.4618,-2.2964,-2.282,-2.2487,-2.1635,-2.0867,-2.0239,-1.9564,-1.9714,-2.0319,-2.1073,-2.1601,-2.2336,-2.7238,0.0,0.0,0.0,0.0,-2.5242,-2.6961,-2.991,-2.9301,-2.8471,-2.7598,-2.757,0.0,0.0,0.0,0.0,0.0,0.0,-2.7281,-2.9134,-3.0379,-3.1715,-3.3093,-3.312,-3.3317,-3.366,-3.35,-3.2883,-3.1854,-3.1548,-2.7091,-1.8843,0.0,0.0,0.0,0.0,-2.8329,-3.0945,-3.3237,-3.4397,-3.4397,-3.4397,-3.4063,-3.3441,-3.3215,-3.2685,-3.1808,-3.1141,-2.9624,-2.7203,-2.5203,0.0,0.0,0.0,0.0,0.0,0.0,0.0,0.0,0.0,0.0,0.0,0.0,0.0,0.0,0.0,0.0,0.0,0.0,0.0,-1.5107,-1.7924,-1.9187,0.0,0.0,0.0,0.0,0.0,0.0,0.0,0.0,0.0,-2.6438,-2.6827,-2.7346,0.0,0.0,-2.7789,-2.7184,-2.7374,-2.7672,-2.8006,-2.6933,0.0,-2.7158,-2.6299,-2.5801,-2.6533,-2.7064,-2.7186,-2.6677,-2.6545,-2.6313,-2.5778,-2.5751,-2.5645,-2.5294,-2.3352,-2.1707,-2.1163,-2.1137,-2.134,-2.176,-2.2079,-2.2425,-3.2041,-3.0367,-2.8033,-2.7651,-2.8568,-2.8112,-2.964,-3.242,-3.1779,-3.124,-3.0839,-3.089,-2.9158,-2.6117,-2.5532,0.0,0.0,0.0,-2.9923,-3.195,-3.1937,-3.2642,-3.389,-3.3914,-3.4084,-3.4371,-3.4175,-3.4018,-3.3901,-3.3805,-3.0296,-2.3685,0.0,0.0,-2.4542,-2.7306,-2.9882,-3.2255,-3.3688,-3.4397,-3.4397,-3.4397,-3.423,-3.381,-3.381,-3.3458,-3.276,-3.2704,-3.1814,-2.9947,-2.8488,-2.6489,0.0,0.0,0.0,0.0,0.0,0.0,0.0,0.0,0.0,0.0,0.0,-1.2831,-1.034,0.0,0.0,0.0,-1.6352,-1.7401,-1.8422,-2.0803,0.0,0.0,0.0,0.0,0.0,0.0,0.0,-2.5087,-2.6973,-2.8484,-2.9207,-2.9105,-2.9071,-2.94,-2.925,-2.8993,-2.8527,0.0,-2.9072,-2.9363,-2.8508,-2.816,-2.8858,-2.8206,-2.7912,-2.8773,-2.9065,-2.9165,-2.9155,-2.8819,-2.8522,-2.8428,-2.794,-2.7519,-2.7519,-2.5757,-2.402,-2.3208,-2.2505,-2.2163,-2.246,-2.2386,-2.2453,-3.579,-3.5488,-3.1542,-3.0216,-3.066,-3.0952,-3.1828,-3.2952,-3.2354,-3.2558,-3.3305,-3.3052,-3.2073,-3.0559,-2.9204,0.0,-3.2291,-3.234,-3.3325,-3.5113,-3.5072,-3.4825,-3.4397,-3.4397,-3.4397,-3.4439,-3.3929,-3.3968,-3.4376,-3.3485,-3.2015,-3.0246,-3.0157,-2.9828,-2.916,-2.9754,-3.1334,-3.3754,-3.4218,-3.4428,-3.4384,-3.4397,-3.4397,-3.4397,-3.4397,-3.4105,-3.3526,-3.4063,-3.3595,-3.1891,-3.0724,-2.8858,-2.6187,0.0,0.0,0.0,0.0,0.0,0.0,0.0,0.0,0.0,0.0,0.0,0.0,0.0,0.0,-1.9543,-2.2465,0.0,-2.4047,-2.4472,0.0,0.0,0.0,-2.2649,-2.298,-2.5216,-2.6931,-2.7402,0.0,0.0,-3.1202,-3.1258,-3.1299,-3.1427,-3.1774,-3.1601,-3.0471,-3.0769,-3.0724,-2.9817,-2.951,-2.9507,-2.9786,-3.0218,-3.0852,-3.1539,-3.2299,-3.2372,-3.2323,-3.1578,-3.0936,-3.0865,-2.967,-2.8673,-2.8691,-2.8209,-2.7308,-2.5798,-2.4254,-2.316,-2.3621,-2.3555,-2.3519,-3.6719,-3.6593,-3.5583,-3.4868,-3.4424,-3.4483,-3.4614,-3.4767,-3.462,-3.4607,-3.4647,-3.4701,-3.4643,-3.4365,-3.439,-3.4533,-3.4847,-3.5171,-3.5256,-3.51,-3.5072,-3.4825,-3.4397,-3.4397,-3.4577,-3.4895,-3.4816,-3.4829,-3.4936,-3.4686,-3.4231,-3.354,-3.3538,-3.2259,-2.9928,-3.191,-3.3477,-3.4439,-3.4578,-3.4552,-3.4426,-3.4397,-3.4397,-3.4397,-3.4397,-3.4314,-3.4189,-3.4314,-3.4207,-3.3746,-3.3223,-3.2535,-3.172,-2.5923,0.0,0.0,0.0,0.0,0.0,0.0,0.0,0.0,0.0,-1.8262,-1.3775,0.0,-1.9211,0.0,-2.4678,-2.534,-2.2706,-2.4062,0.0,0.0,-2.4461,-2.4867,-2.7793,-2.7899,-2.8267,-2.9647,-3.0585,-3.1298,-3.1768,-3.1834,-3.1918,-3.2335,-3.2191,-3.1966,-3.1665,-3.1828,-3.2004,-3.202,-3.1804,-3.1845,-3.2097,-3.2409,-3.2581,-3.2843,-3.2954,-3.3034,-3.3024,-3.2795,-3.2623,-3.2553,-3.2129,-3.1703,-3.16,-3.054,-2.9578,-2.8959,-2.7605,-2.6545,-2.6965,-2.6956,-2.6931,-3.7634,-3.739,-3.7404,-3.6964,-3.6243,-3.5704,-3.5436,-3.5356,-3.5023,-3.4995,-3.5277,-3.5575,-3.5804,-3.6058,-3.6496,-3.6522,-3.631,-3.6575,-3.6218,-3.5399,-3.5358,-3.5018,-3.4397,-3.4605,-3.4825,-3.5113,-3.5277,-3.5358,-3.5358,-3.5195,-3.5021,-3.4888,-3.4674,-3.3745,-3.2225,-3.3617,-3.4418,-3.4406,-3.4594,-3.4607,-3.4413,-3.4397,-3.4024,-3.3252,-3.4086,-3.414,-3.3346,-3.4175,-3.4068,-3.297,-3.2734,-3.2512,-3.2179,-2.8307,-2.6265,0.0,0.0,0.0,0.0,0.0,0.0,0.0,0.0,0.0,0.0,0.0,-2.1416,-2.2233,-2.5669,-2.6769,-2.4232,-2.6027,-2.7436,-2.7646,-2.7095,-2.7645,-3.0008,-2.965,-2.9767,-3.1077,-3.1441,-3.1784,-3.225,-3.2314,-3.238,-3.2633,-3.2701,-3.2681,-3.2671,-3.2745,-3.2938,-3.3412,-3.3348,-3.3299,-3.3564,-3.3595,-3.3605,-3.3615,-3.3779,-3.3901,-3.3901,-3.3953,-3.3953,-3.3953,-3.3648,-3.3464,-3.3392,-3.2468,-3.1641,-3.1641,-3.0847,-2.9626,-2.8494,-2.8314,-2.8358,-3.8486,-3.8037,-3.8,-3.7734,-3.7155,-3.6017,-3.5524,-3.5485,-3.4831,-3.4929,-3.5602,-3.5924,-3.6258,-3.651,-3.6836,-3.6978,-3.6978,-3.6978,-3.6547,-3.5804,-3.5723,-3.5277,-3.4535,-3.4825,-3.5072,-3.5195,-3.5521,-3.575,-3.5764,-3.5358,-3.5155,-3.5129,-3.4665,-3.4512,-3.4595,-3.4806,-3.4654,-3.4128,-3.4405,-3.4473,-3.4209,-3.4304,-3.3569,-3.2034,-3.3718,-3.3978,-3.2507,-3.4016,-3.3854,-3.168,-3.1527,-3.1285,-3.0846,-3.0383,-2.9367,0.0,-2.7217,0.0,0.0,0.0,0.0,0.0,0.0,0.0,0.0,-2.3935,-2.4169,-2.2408,-2.6104,-2.8136,-2.6967,-2.8679,-2.9833,-2.9802,-2.993,-3.0208,-3.0629,-3.0781,-3.1164,-3.1895,-3.2039,-3.2225,-3.2623,-3.2841,-3.2934,-3.2804,-3.3273,-3.3592,-3.3505,-3.3495,-3.3613,-3.4082,-3.4207,-3.4261,-3.4261,-3.4289,-3.43,-3.432,-3.459,-3.4828,-3.4838,-3.4892,-3.4953,-3.4891,-3.4602,-3.4435,-3.4475,-3.3915,-3.3495,-3.372,-3.3254,-3.2033,-2.9923,-2.9287,-2.9025,-3.8745,-3.8634,-3.8634,-3.8605,-3.8561,-3.7577,-3.6796,-3.6225,-3.6225,-3.632,-3.647,-3.6549,-3.6693,-3.6875,-3.6954,-3.6978,-3.6978,-3.6978,-3.6758,-3.6232,-3.5884,-3.544,-3.4962,-3.4688,-3.4895,-3.5548,-3.5683,-3.5884,-3.6258,-3.5804,-3.5492,-3.5239,-3.4845,-3.4498,-3.4164,0.0,0.0,0.0,-3.4162,-3.3584,-3.3081,-3.3714,-3.3657,-3.2838,-3.4117,0.0,-3.4393,-3.4724,-3.4659,-3.4212,-3.417,0.0,0.0,0.0,0.0,0.0,0.0,0.0,0.0,0.0,0.0,0.0,-2.4767,-2.46,-2.3539,-2.6018,-2.6873,-2.4921,-2.7083,-2.8488,-2.8284,-2.8908,-2.9423,-2.942,-3.0089,-3.0557,-3.0688,-3.1329,-3.1812,-3.1957,-3.2364,-3.2623,-3.2706,-3.3547,-3.3773,-3.2939,-3.3883,-3.4481,-3.4004,-3.3997,-3.4113,-3.4608,-3.4879,-3.5138,-3.5169,-3.5138,-3.5076,-3.519,-3.5221,-3.5283,-3.5283,-3.5273,-3.5294,-3.5294,-3.5046,-3.4797,-3.4797,-3.4467,-3.4178,-3.4278,-3.4155,-3.3773,-3.2671,-3.24,-3.2428,-3.9472,0.0,-3.9235,-3.9111,0.0,-3.8479,-3.7782,-3.694,-3.6668,-3.6589,-3.6721,-3.6721,-3.6825,-3.6978,-3.6978,-3.6978,-3.6978,-3.6978,-3.6797,-3.6405,-3.6152,-3.5764,-3.5236,-3.51,-3.5345,-3.5831,-3.5965,-3.6258,-3.6654,-3.6258,-3.5854,-3.5487,-3.5075,-3.4659,-3.4211,-3.4493,-3.4714,-3.4813,-3.4403,-3.3975,-3.3595,-3.3975,-3.3607,-3.2485,-3.3939,0.0,0.0,0.0,0.0,0.0,0.0,0.0,0.0,0.0,0.0,-2.9712,-2.8573,-2.7402,-2.6286,-2.644,-2.6492,-2.6256,-2.6925,-2.6895,-2.579,-2.7097,-2.7618,-2.7056,-2.7957,-2.9013,-2.9966,-3.0295,-3.0724,-3.1524,-3.2074,-3.2481,-3.3015,-3.3485,-3.3616,-3.3377,-3.3927,-3.4032,-3.2841,-3.3919,-3.4264,-3.3309,-3.4143,-3.4874,-3.4521,-3.4463,-3.4569,-3.5004,-3.5252,-3.5418,-3.5428,-3.5428,-3.5428,-3.5418,-3.5428,-3.5428,-3.5428,-3.5428,-3.5428,-3.5356,-3.5242,-3.518,-3.5108,-3.4859,-3.4673,-3.461,-3.4485,-3.4298,-3.3922,-3.3733,-3.3607,-4.0261,-3.9874,-3.9824,-3.9559,-3.9147,-3.9145,-3.8613,-3.7644,0.0,0.0,0.0,-3.6747,-3.685,-3.6978,-3.6978,-3.6978,-3.6978,-3.6978,-3.6836,-3.651,-3.6445,-3.6178,-3.5777,-3.5857,-3.6057,-3.6256,-3.6482,-3.6733,-3.6978,-3.6589,-3.6178,-3.571,-3.5277,-3.4867,-3.4439,-3.4397,-3.4479,-3.4646,-3.4576,-3.4379,-3.4132,-3.4254,-3.3554,-3.1996,-3.3767,-3.4015,-3.2591,-3.4058,-3.3896,-3.1819,-3.168,-3.133,-3.053,-3.0472,-3.1022,-3.2277,-3.2431,-3.1675,-2.9972,-2.9875,-2.9206,-2.7731,-2.8491,-2.8734,-2.8111,-2.7989,-2.8285,-2.907,-2.9207,-3.002,-3.1863,-3.2002,-3.261,-3.4027,-3.4205,-3.4607,-3.5343,-3.5573,-3.5318,-3.4991,-3.553,-3.5476,-3.3773,-3.4601,-3.5111,-3.4438,-3.5019,-3.5391,-3.5213,-3.5051,-3.4993,-3.5314,-3.5407,-3.5428,-3.5428,-3.5428,-3.5428,-3.5428,-3.5428,-3.5428,-3.5428,-3.5428,-3.5428,-3.5428,-3.5428,-3.5366,-3.5366,-3.5262,-3.5096,-3.5096,-3.499,-3.478,-3.4717,-3.4538,-3.4203,-4.0455,-4.0385,-4.0385,-4.0439,-4.0474,-3.996,-3.9139,-3.8052,-3.7084,-3.6772,-3.6954,-3.6954,-3.6993,-3.6978,-3.6978,-3.6978,-3.6978,-3.6978,-3.6993,-3.6875,-3.6589,-3.6719,-3.7179,-3.6894,-3.6947,-3.7242,-3.7333,-3.7208,-3.6993,-3.6615,-3.6192,-3.571,-3.5277,-3.4867,-3.4439,-3.4397,-3.44,-3.4419,-3.4046,-3.3555,-3.2948,-3.3639,-3.3683,-3.2951,-3.4154,-3.4794,-3.4505,-3.4743,-3.4715,-3.4365,-3.4351,-3.3728,-3.2352,-3.2219,-3.1739,-3.0673,-3.0589,-3.0076,-2.9008,-2.8927,-2.8971,-2.8888,-2.9692,-2.9795,-2.874,-2.9741,-3.068,-3.121,-3.1569,-3.2396,-3.3492,-3.3629,-3.3988,-3.4665,-3.505,-3.5396,-3.5663,-3.5968,-3.6136,-3.5968,-3.6088,-3.6251,-3.573,-3.6226,-3.6622,-3.6612,-3.6898,-3.752,-3.679,-3.5979,-3.5407,-3.5407,-3.5428,-3.5428,-3.5428,-3.5428,-3.5428,-3.5428,-3.5428,-3.5428,-3.5428,-3.5428,-3.5428,-3.5428,-3.5449,-3.5459,-3.5397,-3.5697,-3.583,-3.5902,-3.6066,-3.6249,-3.5983,-3.5875,-3.5426,-4.1109,-4.1109,-4.1109,-4.0913,-4.0593,-4.013,-3.9657,-3.9169,-3.8014,-3.7303,-3.6993,-3.6978,-3.6978,-3.6978,-3.6978,-3.6978,-3.6978,-3.6978,-3.6978,-3.7017,-3.7148,-3.7376,-3.7639,-3.7686,-3.7913,-3.825,-3.7738,-3.7539,-3.7582,-3.7031,-3.6626,-3.6492,-3.6334,-3.5856,-3.5155,-3.5114,-3.4881,-3.4426,-3.4202,-3.3913,-3.3648,-3.3991,-3.4079,-3.3771,-3.4348,-3.4644,-3.4644,-3.4631,-3.4644,-3.4631,-3.4644,-3.4152,-3.3097,-3.3026,-3.2504,-3.1412,-3.1347,-3.0979,-3.0113,-2.9761,-2.9589,-2.9715,-3.0699,-3.1113,-3.0519,-3.0525,-3.0882,-3.1605,-3.2193,-3.3151,-3.4701,-3.5117,-3.5749,-3.694,-3.7218,-3.746,-3.775,-3.7927,-3.782,-3.734,-3.7725,-3.7726,-3.6729,-3.7589,-3.8087,-3.7905,-3.7914,-3.7654,-3.7385,-3.6835,-3.6175,-3.5531,-3.5428,-3.5428,-3.5428,-3.5428,-3.5428,-3.5428,-3.5428,-3.5428,-3.5428,-3.5428,-3.5428,-3.5449,-3.5614,-3.5769,-3.579,-3.6163,-3.6422,-3.6504,-3.6629,-3.673,-3.6612,-3.6418,-3.5923,-4.1832,-4.1817,-4.1817,-4.1417,-4.0774,-4.0347,-4.0165,-4.0095,-3.9133,-3.83,-3.7544,-3.7173,-3.6978,-3.6978,-3.6978,-3.6978,-3.6978,-3.6978,-3.6978,-3.7056,-3.7634,-3.7985,-3.8167,-3.8613,-3.9,-3.9218,-3.8509,-3.8352,-3.8527,-3.783,-3.7424,-3.741,-3.7423,-3.6878,-3.579,-3.5709,-3.5277,-3.4439,-3.4397,-3.4397,-3.4397,-3.4397,-3.4397,-3.4397,-3.4384,-3.4397,-3.4397,-3.4397,-3.4397,-3.4397,-3.4397,-3.4105,-3.3484,-3.3386,-3.3074,-3.2389,-3.2302,-3.1996,-3.1267,-3.0833,-3.0621,-3.0699,-3.1701,-3.2481,-3.2702,-3.1809,-3.1547,-3.2536,-3.3443,-3.4564,-3.6083,-3.6706,-3.7536,-3.8867,-3.9069,-3.9118,-3.9609,-3.9697,-3.9374,-3.8594,-3.9141,-3.913,-3.8377,-3.8713,-3.9248,-3.9023,-3.8317,-3.7828,-3.8078,-3.7779,-3.6896,-3.6492,-3.6013,-3.5716,-3.5541,-3.5428,-3.5428,-3.5428,-3.5428,-3.5428,-3.5438,-3.549,-3.5583,-3.5656,-3.5976,-3.6215,-3.6297,-3.6639,-3.6908,-3.697,-3.7105,-3.7177,-3.7133,-3.6814,-3.6136,-4.2509,-4.2509,-4.2525,-4.2165,-4.1632,-4.1146,-4.0677,-4.025,-4.0235,-3.9819,-3.8942,-3.7644,-3.7017,-3.6978,-3.7017,-3.6978,-3.6978,-3.6978,-3.6993,-3.7123,-3.762,-3.8345,-3.9199,-3.9778,-4.013,-4.0339,-4.0185,-3.9979,-3.9817,-3.9195,-3.8576,-3.8098,-3.8067,-3.7456,-3.6138,-3.5843,-3.5277,-3.4397,-3.4397,-3.4397,-3.4397,-3.4397,-3.4397,-3.4397,-3.4397,-3.4397,-3.4397,-3.4397,-3.4397,-3.4397,-3.4397,-3.4105,-3.3513,-3.3386,-3.3074,-3.2389,-3.2302,-3.1984,-3.1356,-3.1601,-3.1889,-3.2127,-3.2797,-3.3842,-3.5128,-3.4464,-3.4343,-3.5361,-3.6632,-3.7556,-3.8467,-3.8592,-3.8842,-3.9407,-3.9559,-3.9634,-3.9685,-3.9697,-3.9645,-3.9581,-3.9594,-3.9794,-3.9881,-3.9843,-3.9934,-4.0697,-3.9779,-3.9334,-3.9978,-3.8839,-3.7887,-3.8328,-3.791,-3.6775,-3.5951,-3.5418,-3.5603,-3.5541,-3.5428,-3.5449,-3.5521,-3.578,-3.6039,-3.608,-3.6422,-3.6711,-3.6836,-3.7094,-3.7405,-3.7467,-3.7684,-3.8005,-3.7995,-3.74,-3.6526,-4.3187,-4.3171,-4.3171,-4.2592,-4.1743,-4.1527,-4.1205,-4.0746,-4.0424,-4.02,-3.9889,-3.8848,-3.8136,-3.7658,-3.7211,-3.6978,-3.6978,-3.6978,-3.7423,-3.8149,-3.8739,-3.9698,-4.0861,-4.1177,-4.1422,-4.1513,-4.0866,-4.0587,-4.0722,-4.0611,-4.0427,-4.0128,-4.0334,-3.9397,-3.7459,-3.7099,-3.6144,-3.4452,-3.4397,-3.4397,-3.4397,-3.4397,-3.4397,-3.4397,-3.4397,-3.4397,-3.4397,-3.4397,-3.4397,-3.4397,-3.4397,-3.4272,-3.4021,-3.3979,-3.3839,-3.353,-3.3275,-3.3018,-3.2692,-3.2686,-3.2847,-3.3202,-3.3763,-3.4681,-3.5994,-3.6405,-3.6954,-3.7495,-3.7736,-3.8073,-3.8793,-3.9145,-3.9446,-3.9647,-3.9697,-3.9697,-3.9697,-3.9697,-3.9697,-3.9697,-3.9697,-4.0036,-4.0849,-4.1308,-4.1676,-4.2032,-4.11,-4.057,-4.0973,-4.0152,-3.9557,-3.9275,-3.9334,-3.9028,-3.7861,-3.6967,-3.6603,-3.642,-3.589,-3.5459,-3.579,-3.5935,-3.6183,-3.6463,-3.6908,-3.7177,-3.7208,-3.757,-3.7912,-3.7933,-3.7953,-3.8191,-3.8191,-3.7753,-3.694,-4.3886,-4.3855,-4.3685,-4.3054,-4.216,-4.1906,-4.1612,-4.1246,-4.0705,-4.0562,-4.0615,-3.9854,-3.9226,-3.8657,-3.7772,-3.7211,-3.7017,-3.7159,-3.7847,-3.8866,-3.9503,-4.0449,-4.1617,-4.1747,-4.1838,-4.1912,-4.1134,-4.0917,-4.1398,-4.1995,-4.2061,-4.1866,-4.2166,-4.1137,-3.8914,-3.8453,-3.7302,-3.5358,-3.4909,-3.4758,-3.4703,-3.4522,-3.4397,-3.4397,-3.4397,-3.4397,-3.4397,-3.4397,-3.4397,-3.4397,-3.4397,-3.4397,-3.4397,-3.4397,-3.4397,-3.4356,-3.4021,-3.3832,-3.3943,-3.3639,-3.3633,-3.418,-3.452,-3.529,-3.6636,-3.7552,-3.8354,-3.9133,-3.8579,-3.851,-3.9058,-3.9459,-3.9685,-3.9697,-3.9697,-3.9697,-3.9697,-3.9697,-3.9697,-3.9697,-3.9697,-4.0111,-4.115,-4.2166,-4.288,-4.2793,-4.1854,-4.1329,-4.1444,-4.1329,-4.0743,-4.0268,-4.0801,-4.0454,-3.9393,-3.8447,-3.7839,-3.7188,-3.642,-3.6058,-3.6154,-3.6163,-3.6463,-3.6918,-3.7374,-3.7643,-3.7684,-3.8005,-3.8171,-3.8181,-3.8191,-3.8191,-3.8191,-3.7871,-3.746,-4.4564,-4.4456,-4.387,-4.3562,-4.3408,-4.2319,-4.1806,-4.1701,-4.1261,-4.1135,-4.1088,-4.0335,-3.994,-3.9935,-3.8738,-3.7749,-3.7173,-3.7582,-3.8232,-3.8967,-3.9512,-4.0145,-4.0897,-4.0897,-4.1096,-4.1473,-4.1276,-4.132,-4.1798,-4.2906,-4.3165,-4.2606,-4.3011,-4.2115,-4.0128,-3.9542,-3.863,-3.69,-3.5963,-3.5588,-3.5467,-3.4799,-3.4397,-3.4397,-3.4397,-3.4397,-3.4397,-3.4397,-3.4397,-3.4397,-3.4397,-3.4397,-3.4397,-3.4397,-3.4397,-3.4356,-3.4202,-3.4194,-3.443,-3.4234,-3.4369,-3.4914,-3.4881,-3.5732,-3.774,-3.7745,-3.8357,-4.0158,-3.9711,-3.9536,-3.9574,-3.9686,-3.9697,-3.9697,-3.9697,-3.9697,-3.9697,-3.9697,-3.9697,-3.971,-3.9798,-4.0275,-4.1188,-4.2296,-4.2873,-4.2806,-4.1923,-4.1558,-4.2331,-4.1866,-4.1684,-4.2093,-4.1741,-4.0685,-3.9522,-3.8625,-3.8197,-3.7752,-3.7225,-3.6878,-3.6582,-3.6463,-3.6918,-3.7353,-3.7757,-3.8015,-3.8119,-3.8171,-3.8181,-3.8191,-3.8191,-3.8191,-3.8191,-3.8171,-3.7732,-4.461,-4.4594,-4.4348,-4.4024,-4.3562,-4.3127,-4.2535,-4.1806,-4.1627,-4.1389,-4.1211,-4.1233,-4.0824,-4.0005,-3.9965,-3.9061,-3.7687,-3.781,-3.846,-3.9455,-4.0076,-4.0931,-4.1944,-4.2067,-4.1872,-4.1653,-4.1691,-4.1747,-4.1945,-4.3019,-4.3485,-4.3387,-4.3707,-4.2819,-4.0994,-4.0391,-3.902,-3.6654,-3.6056,-3.5548,-3.495,-3.4564,-3.4397,-3.4397,-3.4397,-3.4397,-3.4397,-3.4397,-3.4397,-3.4397,-3.4397,-3.4397,-3.4397,-3.4397,-3.4397,-3.4397,-3.4202,-3.425,-3.4494,-3.4323,-3.4553,-3.5277,-3.5423,-3.6197,-3.7792,-3.8372,-3.8978,-3.9883,-4.0221,-4.0096,-3.9956,-3.9839,-3.9697,-3.9697,-3.9697,-3.9697,-3.9697,-3.9697,-3.9697,-3.9798,-4.0249,-4.0887,-4.1404,-4.2308,-4.2949,-4.2974,-4.2569,-4.2569,-4.275,-4.2557,-4.2444,-4.2793,-4.2625,-4.1854,-4.0628,-3.8851,-3.7861,-3.7961,-3.7742,-3.6956,-3.6516,-3.6877,-3.7332,-3.7695,-3.8098,-3.815,-3.8181,-3.8181,-3.8191,-3.8191,-3.8191,-3.8191,-3.8191,-3.8015,-3.7508,-4.461,-4.461,-4.461,-4.4326,-4.3917,-4.3701,-4.3173,-4.2334,-4.1917,-4.1573,-4.1432,-4.1774,-4.1403,-4.0644,-4.0745,-4.0186,-3.8868,-3.8603,-3.9061,-4.007,-4.0486,-4.1229,-4.2104,-4.2109,-4.1875,-4.1573,-4.1868,-4.1984,-4.2164,-4.3091,-4.3701,-4.3963,-4.4273,-4.3587,-4.2047,-4.1437,-3.9827,-3.7618,-3.6772,-3.6016,-3.4991,-3.4688,-3.4535,-3.4439,-3.4397,-3.4397,-3.4397,-3.4397,-3.4397,-3.4397,-3.4397,-3.4397,-3.4397,-3.4397,-3.4397,-3.4397,-3.4285,-3.4425,-3.4868,-3.4734,-3.4984,-3.5924,-3.632,-3.6964,-3.8049,-3.8997,-3.9553,-3.9906,-4.0346,-4.0491,-4.0083,-3.989,-3.9788,-3.9749,-3.9697,-3.9697,-3.9697,-3.9697,-3.9798,-4.0061,-4.0739,-4.125,-4.1656,-4.2421,-4.2873,-4.2986,-4.2986,-4.2986,-4.2986,-4.2986,-4.2986,-4.2918,-4.25,-4.2206,-4.1157,-3.9487,-3.7839,-3.7747,-3.7878,-3.7148,-3.6742,-3.7198,-3.7632,-3.8026,-3.8191,-3.8191,-3.8191,-3.8191,-3.8191,-3.8191,-3.8191,-3.8191,-3.8015,-3.7757,-3.7363,-4.461,-4.461,-4.461,-4.4579,-4.444,-4.3947,-4.3624,-4.327,-4.2253,-4.1851,-4.1833,-4.1785,-4.1831,-4.1641,-4.1243,-4.0788,-4.0549,-3.9986,-3.9971,-4.048,-4.0512,-4.0885,-4.1524,-4.1093,-4.1013,-4.1105,-4.1523,-4.2072,-4.254,-4.3217,-4.3901,-4.4402,-4.4418,-4.4011,-4.3442,-4.2426,-4.1271,-3.9488,-3.8225,-3.7063,-3.583,-3.5291,-3.4908,-3.4481,-3.4397,-3.4397,-3.4397,-3.4397,-3.4397,-3.4397,-3.4397,-3.4397,-3.4397,-3.4397,-3.4397,-3.4397,-3.4397,-3.4845,-3.5603,-3.5519,-3.5871,-3.6828,-3.7371,-3.7833,-3.8471,-3.9356,-3.9928,-3.9883,-4.0371,-4.0593,-4.0032,-3.9981,-3.9981,-3.9749,-3.9697,-3.9697,-3.9697,-3.971,-3.991,-4.0425,-4.0974,-4.1555,-4.207,-4.261,-4.2961,-4.2986,-4.2986,-4.2986,-4.2986,-4.2986,-4.2986,-4.2806,-4.2444,-4.2093,-4.1145,-4.0071,-3.8602,-3.7506,-3.762,-3.7421,-3.7051,-3.725,-3.7726,-3.8109,-3.8181,-3.8191,-3.8191,-3.8191,-3.8191,-3.8191,-3.8191,-3.8181,-3.8036,-3.7829,-3.7519,-4.461,-4.461,-4.461,-4.461,-4.4594,-4.4394,-4.4055,-4.3593,-4.3131,-4.273,-4.2489,-4.2792,-4.2746,-4.2484,-4.2563,-4.2423,-4.1979,-4.1301,-4.068,-4.0192,-4.0353,-4.0612,-4.0828,-4.114,-4.1509,-4.1903,-4.1749,-4.1909,-4.2493,-4.3227,-4.3673,-4.3698,-4.3857,-4.3541,-4.2925,-4.216,-4.09,-3.9203,-3.8738,-3.7686,-3.5936,-3.5709,-3.5318,-3.4522,-3.4397,-3.4397,-3.4397,-3.4397,-3.4397,-3.4397,-3.4397,-3.4397,-3.4397,-3.4397,-3.4397,-3.4397,-3.4397,-3.4822,-3.5668,-3.6096,-3.6618,-3.7578,-3.8175,-3.8553,-3.8945,-3.9664,-4.014,-4.013,-4.0597,-4.0732,-4.0593,-4.0389,-4.0198,-3.9736,-3.9697,-3.9697,-3.9785,-4.0023,-4.0312,-4.0576,-4.1317,-4.1919,-4.225,-4.2703,-4.2961,-4.2986,-4.2986,-4.2986,-4.2986,-4.2986,-4.2986,-4.2918,-4.2444,-4.2093,-4.1431,-4.0789,-3.9733,-3.8533,-3.8193,-3.8211,-3.7795,-3.7541,-3.803,-3.8088,-3.816,-3.8191,-3.8191,-3.8191,-3.8191,-3.8191,-3.8191,-3.8171,-3.815,-3.7943,-3.7643,-4.461,-4.461,-4.461,-4.461,-4.461,-4.461,-4.4379,-4.3963,-4.3701,-4.334,-4.311,-4.3408,-4.3393,-4.311,-4.3439,-4.3377,-4.291,-4.2279,-4.1408,-4.0482,-4.0392,-4.0505,-4.0536,-4.0955,-4.1571,-4.2125,-4.2048,-4.2201,-4.2698,-4.3512,-4.3758,-4.3446,-4.3497,-4.33,-4.2602,-4.1904,-4.076,-3.9401,-3.9003,-3.7927,-3.6241,-3.587,-3.5399,-3.4564,-3.4397,-3.4397,-3.441,-3.4607,-3.4633,-3.445,-3.4397,-3.4397,-3.4397,-3.4397,-3.4397,-3.4397,-3.4489,-3.4914,-3.6059,-3.6476,-3.7233,-3.8355,-3.9043,-3.9285,-3.9518,-4.0008,-4.0486,-4.0343,-4.0746,-4.0933,-4.0643,-4.0555,-4.0249,-3.9749,-3.9788,-3.9876,-4.0025,-4.03,-4.0752,-4.1116,-4.1743,-4.217,-4.2552,-4.2753,-4.2974,-4.2986,-4.2986,-4.2986,-4.2986,-4.2986,-4.2986,-4.2986,-4.2862,-4.2444,-4.198,-4.1386,-4.0801,-3.9835,-3.9055,-3.9042,-3.8854,-3.8605,-3.874,-3.8312,-3.8181,-3.8191,-3.8191,-3.8191,-3.8191,-3.8191,-3.8314,-3.8181,-3.815,-3.8057,-3.7788,-4.461,-4.461,-4.461,-4.461,-4.461,-4.461,-4.4541,-4.4486,-4.3994,-4.3701,-4.3685,-4.3732,-4.3701,-4.367,-4.3762,-4.3732,-4.3547,-4.294,-4.2371,-4.1623,-4.1078,-4.0628,-4.0536,-4.0597,-4.1093,-4.1817,-4.2294,-4.283,-4.3371,-4.4112,-4.4158,-4.3409,-4.3389,-4.3208,-4.2448,-4.1848,-4.0944,-3.9993,-3.9276,-3.7994,-3.6255,-3.5897,-3.5345,-3.4481,-3.4397,-3.4437,-3.4593,-3.5025,-3.509,-3.4607,-3.458,-3.4541,-3.4463,-3.4424,-3.4397,-3.4397,-3.4397,-3.5338,-3.6483,-3.6851,-3.7572,-3.9298,-3.9878,-4.0047,-3.9972,-4.0621,-4.0887,-4.0374,-4.0824,-4.0959,-4.044,-4.0389,-4.0249,-3.9852,-3.9878,-4.0092,-4.04,-4.0551,-4.1015,-4.1806,-4.2238,-4.2426,-4.2836,-4.2949,-4.2974,-4.2986,-4.2986,-4.2986,-4.2986,-4.2986,-4.2986,-4.2986,-4.2986,-4.2862,-4.2388,-4.215,-4.1663,-4.1637,-4.0692,-4.037,-4.0129,-3.9847,-3.9433,-3.8929,-3.8758,-3.8636,-3.8437,-3.8626,-3.8692,-3.8814,-3.8692,-3.8381,-3.8119,-3.8015,-3.7819,-4.461,-4.461,-4.461,-4.461,-4.461,-4.461,-4.461,-4.4594,-4.4425,-4.4302,-4.4348,-4.4363,-4.4302,-4.4348,-4.4332,-4.4363,-4.4125,-4.3618,-4.33,-4.2894,-4.1832,-4.0997,-4.0582,-4.052,-4.112,-4.2202,-4.2489,-4.3107,-4.3999,-4.4381,-4.412,-4.331,-4.2999,-4.2556,-4.1878,-4.1201,-4.0657,-4.0208,-3.973,-3.8605,-3.7088,-3.6506,-3.5709,-3.4522,-3.4397,-3.462,-3.5038,-3.56,-3.5848,-3.5665,-3.526,-3.5064,-3.4999,-3.4659,-3.4437,-3.4397,-3.4463,-3.5168,-3.6658,-3.7358,-3.8342,-3.9955,-4.0585,-4.0961,-4.0856,-4.1115,-4.1182,-4.0952,-4.1045,-4.0946,-4.0681,-4.0542,-4.0287,-4.0083,-3.9916,-4.0052,-4.0463,-4.0849,-4.1417,-4.2112,-4.2564,-4.2841,-4.2911,-4.2986,-4.2986,-4.2986,-4.2986,-4.2986,-4.2986,-4.2986,-4.2986,-4.2986,-4.2986,-4.2986,-4.2862,-4.2681,-4.2731,-4.3141,-4.2665,-4.2052,-4.1628,-4.1115,-4.0634,-4.0062,-4.0452,-4.0452,-3.9953,-3.9703,-3.9637,-3.9254,-3.8758,-3.8237,-3.8046,-3.7933,-3.7705,-4.461,-4.4656,-4.4918,-4.4872,-4.4671,-4.4895,-4.4849,-4.4641,-4.461,-4.461,-4.461,-4.461,-4.461,-4.461,-4.461,-4.461,-4.451,-4.4209,-4.387,-4.3377,-4.2186,-4.1232,-4.0643,-4.052,-4.1212,-4.2354,-4.2477,-4.3118,-4.3976,-4.4281,-4.3953,-4.331,-4.2763,-4.2191,-4.1632,-4.0858,-4.0455,-4.0296,-3.991,-3.8914,-3.7434,-3.683,-3.583,-3.4716,-3.4424,-3.4792,-3.5818,-3.6096,-3.6201,-3.6292,-3.5953,-3.5534,-3.5286,-3.4986,-3.4672,-3.445,-3.441,-3.5168,-3.6698,-3.7573,-3.8671,-4.0122,-4.0971,-4.1259,-4.1285,-4.1311,-4.1261,-4.1084,-4.0984,-4.0782,-4.0529,-4.0338,-4.0096,-3.9967,-3.9989,-4.0249,-4.0736,-4.1087,-4.1693,-4.2296,-4.276,-4.2986,-4.2986,-4.2986,-4.2986,-4.2986,-4.2986,-4.2986,-4.2986,-4.2986,-4.2986,-4.2986,-4.2986,-4.2986,-4.2986,-4.2862,-4.3106,-4.3576,-4.4086,-4.3524,-4.3084,-4.2444,-4.1708,-4.1384,-4.1895,-4.1831,-4.0764,-3.9953,-3.9637,-3.9133,-3.8626,-3.8273,-3.8102,-3.7715,-3.7508,-4.461,-4.4671,-4.5272,-4.5126,-4.4695,-4.5187,-4.5103,-4.4671,-4.461,-4.461,-4.461,-4.461,-4.461,-4.461,-4.4456,-4.4471,-4.4471,-4.4332,-4.4071,-4.3424,-4.2463,-4.1571,-4.0782,-4.0516,-4.1168,-4.2169,-4.2316,-4.2962,-4.3761,-4.4026,-4.3762,-4.325,-4.2637,-4.2103,-4.155,-4.0893,-4.0536,-4.0385,-3.9965,-3.9023,-3.7701,-3.6908,-3.591,-3.4825,-3.4609,-3.5331,-3.6267,-3.6577,-3.6626,-3.7151,-3.652,-3.5979,-3.5508,-3.5365,-3.4986,-3.4528,-3.4476,-3.5142,-3.6645,-3.7495,-3.8566,-4.0017,-4.0893,-4.1298,-4.1311,-4.1311,-4.1211,-4.0933,-4.0883,-4.058,-4.0185,-3.9839,-3.98,-3.9812,-4.0149,-4.0727,-4.1137,-4.1326,-4.1831,-4.2785,-4.3017,-4.2974,-4.2986,-4.2986,-4.2986,-4.2986,-4.2986,-4.2986,-4.2986,-4.2986,-4.2986,-4.2986,-4.2986,-4.2986,-4.2986,-4.2986,-4.3413,-4.3878,-4.4744,-4.4758,-4.4398,-4.3742,-4.2853,-4.254,-4.2918,-4.2034,-4.0268,-3.9692,-3.9506,-3.9188,-3.8758,-3.8395,-3.8036,-3.755,-3.7229,-4.461,-4.4625,-4.4764,-4.4748,-4.4618,-4.4779,-4.4764,-4.461,-4.461,-4.461,-4.461,-4.461,-4.461,-4.4541,-4.4132,-4.3824,-4.3886,-4.3886,-4.3716,-4.3608,-4.3408,-4.2432,-4.1443,-4.0738,-4.1092,-4.1967,-4.2132,-4.275,-4.3684,-4.3942,-4.3769,-4.3266,-4.2646,-4.2082,-4.1597,-4.0905,-4.0489,-4.042,-3.9965,-3.9169,-3.804,-3.7102,-3.6149,-3.5058,-3.5,-3.566,-3.6678,-3.7183,-3.7594,-3.7775,-3.7272,-3.652,-3.5931,-3.5521,-3.5051,-3.4567,-3.4437,-3.4972,-3.6188,-3.7325,-3.8436,-3.969,-4.0723,-4.1311,-4.1311,-4.1261,-4.1161,-4.0946,-4.0694,-4.0351,-3.989,-3.9736,-3.9697,-3.981,-4.0224,-4.0764,-4.1254,-4.1706,-4.2301,-4.2816,-4.3042,-4.2986,-4.2986,-4.2974,-4.2974,-4.2986,-4.2986,-4.2986,-4.2986,-4.2986,-4.2986,-4.2986,-4.2986,-4.2986,-4.3024,-4.3137,-4.3601,-4.4091,-4.4932,-4.5648,-4.5347,-4.5133,-4.4202,-4.3879,-4.3867,-4.2414,-4.0516,-3.9953,-3.9888,-3.9386,-3.8838,-3.8305,-3.7757,-3.7312,-3.6908,-4.461,-4.4656,-4.4926,-4.4864,-4.4649,-4.491,-4.4902,-4.4656,-4.461,-4.461,-4.461,-4.461,-4.461,-4.4548,-4.3947,-4.3624,-4.3608,-4.3608,-4.3624,-4.3608,-4.3562,-4.3017,-4.2068,-4.1245,-4.1208,-4.1995,-4.1947,-4.2645,-4.3514,-4.3747,-4.365,-4.3518,-4.2672,-4.2135,-4.1766,-4.0977,-4.0536,-4.0455,-4.0211,-3.9442,-3.8175,-3.761,-3.661,-3.5521,-3.5156,-3.5524,-3.6983,-3.7193,-3.765,-3.7914,-3.7655,-3.6889,-3.6187,-3.5765,-3.526,-3.4567,-3.441,-3.4959,-3.6044,-3.722,-3.8397,-3.9507,-4.0657,-4.1128,-4.1261,-4.1211,-4.101,-4.0744,-4.044,-4.0147,-3.9749,-3.9697,-3.9697,-3.9848,-4.0413,-4.1003,-4.1515,-4.2048,-4.2578,-4.3033,-4.3184,-4.3184,-4.3184,-4.3129,-4.303,-4.303,-4.2986,-4.2986,-4.2986,-4.2986,-4.2986,-4.2986,-4.2986,-4.2999,-4.3049,-4.3313,-4.3802,-4.4355,-4.502,-4.566,-4.586,-4.5826,-4.5659,-4.5086,-4.4324,-4.2855,-4.1215,-4.0775,-3.9866,-3.8948,-3.827,-3.7854,-3.7436,-3.696,-3.6608,-4.461,-4.4656,-4.5241,-4.5095,-4.471,-4.5157,-4.5049,-4.4656,-4.461,-4.461,-4.461,-4.461,-4.461,-4.444,-4.3762,-4.3439,-4.327,-4.3254,-4.3162,-4.3593,-4.3608,-4.314,-4.2421,-4.1738,-4.1322,-4.1728,-4.1678,-4.2371,-4.3115,-4.3364,-4.3403,-4.3482,-4.272,-4.2053,-4.1806,-4.126,-4.0643,-4.052,-4.042,-3.9864,-3.8598,-3.8138,-3.7165,-3.5669,-3.5043,-3.5404,-3.6617,-3.7074,-3.7398,-3.8019,-3.7914,-3.7163,-3.6362,-3.5858,-3.5547,-3.4476,-3.4397,-3.4803,-3.5717,-3.7024,-3.8331,-3.9364,-4.0618,-4.1232,-4.1261,-4.1097,-4.0846,-4.0542,-4.0236,-3.9942,-3.9749,-3.9697,-3.9697,-3.986,-4.0614,-4.1273,-4.1764,-4.2277,-4.2865,-4.3322,-4.3474,-4.3474,-4.3419,-4.3308,-4.3197,-4.303,-4.3042,-4.2986,-4.3042,-4.2986,-4.2986,-4.2986,-4.2986,-4.2986,-4.3024,-4.3124,-4.3664,-4.4405,-4.5058,-4.5585,-4.6112,-4.6143,-4.5926,-4.522,-4.4263,-4.2918,-4.1651,-4.0764,-3.9779,-3.851,-3.7829,-3.7529,-3.7094,-3.6618,-3.6297,-4.461,-4.461,-4.4733,-4.4664,-4.4603,-4.4748,-4.4748,-4.4625,-4.461,-4.461,-4.461,-4.461,-4.461,-4.4295,-4.3279,-4.2525,-4.2248,-4.2186,-4.2617,-4.3393,-4.3562,-4.327,-4.2683,-4.2032,-4.1589,-4.1282,-4.1362,-4.1963,-4.2629,-4.303,-4.3086,-4.2777,-4.2617,-4.2244,-4.1423,-4.1201,-4.0885,-4.0482,-4.0455,-4.0021,-3.9241,-3.8279,-3.7165,-3.5548,-3.5072,-3.5435,-3.6191,-3.7077,-3.7725,-3.8117,-3.8228,-3.7551,-3.6528,-3.5778,-3.5178,-3.4593,-3.4397,-3.4607,-3.5142,-3.6776,-3.7782,-3.8619,-4.0148,-4.1169,-4.1211,-4.1047,-4.0744,-4.0402,-4.0044,-3.9749,-3.9697,-3.9697,-3.9697,-3.986,-4.0314,-4.0905,-4.1493,-4.2293,-4.314,-4.3656,-4.3729,-4.3764,-4.3653,-4.3474,-4.3295,-4.3197,-4.3085,-4.3085,-4.3085,-4.303,-4.2986,-4.2986,-4.2986,-4.2986,-4.2999,-4.3062,-4.3388,-4.4242,-4.4907,-4.5384,-4.5861,-4.62,-4.5987,-4.5537,-4.4706,-4.3494,-4.2287,-4.1022,-3.9584,-3.834,-3.7743,-3.725,-3.6815,-3.639,-3.5997,-4.461,-4.461,-4.461,-4.461,-4.461,-4.461,-4.461,-4.461,-4.461,-4.461,-4.461,-4.461,-4.461,-4.431,-4.3587,-4.2571,-4.1801,-4.1601,-4.2171,-4.2971,-4.3393,-4.3501,-4.295,-4.2352,-4.1656,-4.1237,-4.1295,-4.1752,-4.2396,-4.3015,-4.2776,-4.2273,-4.2108,-4.1409,-4.056,-4.0432,-4.0441,-4.0172,-4.0281,-4.0056,-3.9199,-3.7971,-3.6652,-3.5991,-3.5331,-3.5397,-3.5897,-3.6728,-3.7077,-3.7043,-3.7348,-3.6867,-3.6149,-3.5596,-3.5158,-3.4546,-3.4397,-3.4567,-3.5064,-3.675,-3.7965,-3.8527,-4.02,-4.1093,-4.106,-4.0846,-4.0555,-4.0147,-3.9955,-3.9697,-3.9697,-3.9697,-3.9697,-3.9837,-4.0266,-4.0826,-4.1468,-4.2462,-4.319,-4.3803,-4.3981,-4.3987,-4.3832,-4.3653,-4.3462,-4.3295,-4.3197,-4.3197,-4.3197,-4.3141,-4.3098,-4.303,-4.303,-4.2986,-4.2986,-4.3024,-4.3376,-4.4192,-4.4756,-4.5234,-4.5773,-4.6188,-4.6313,-4.612,-4.5086,-4.4065,-4.254,-4.1139,-3.965,-3.8238,-3.759,-3.7001,-3.6587,-3.6173,-3.579,-4.461,-4.461,-4.461,-4.461,-4.461,-4.461,-4.461,-4.461,-4.461,-4.461,-4.461,-4.461,-4.461,-4.4379,-4.3701,-4.2709,-4.1632,-4.1478,-4.1755,-4.2402,-4.3002,-4.331,-4.287,-4.2419,-4.1537,-4.0731,-4.1212,-4.1677,-4.2141,-4.2731,-4.2507,-4.1817,-4.1204,-4.048,-3.9685,-3.9771,-3.9621,-3.9646,-3.9879,-3.958,-3.8523,-3.7443,-3.6496,-3.6258,-3.5562,-3.5331,-3.5438,-3.6226,-3.6362,-3.6261,-3.6324,-3.63,-3.5515,-3.5399,-3.5073,-3.4522,-3.4481,-3.4973,-3.5881,-3.6714,-3.7976,-3.8846,-4.0249,-4.0852,-4.0896,-4.0643,-4.0236,-3.98,-3.9697,-3.9697,-3.9697,-3.9697,-3.9749,-3.9915,-4.0347,-4.0936,-4.1528,-4.2329,-4.3108,-4.3655,-4.4097,-4.4277,-4.4136,-4.3984,-4.3806,-4.3696,-4.3598,-4.3487,-4.3487,-4.3432,-4.3321,-4.3141,-4.3073,-4.303,-4.2986,-4.2986,-4.3514,-4.4355,-4.4744,-4.5095,-4.5711,-4.6288,-4.6313,-4.6253,-4.5793,-4.4706,-4.2981,-4.1478,-4.0307,-3.9078,-3.7705,-3.6838,-3.639,-3.5997,-3.5604,-4.461,-4.461,-4.461,-4.461,-4.461,-4.461,-4.461,-4.461,-4.461,-4.461,-4.461,-4.461,-4.461,-4.4348,-4.3325,-4.2386,-4.1678,-4.1135,-4.1232,-4.1894,-4.2417,-4.2421,-4.1826,-4.1943,-4.1167,-4.0462,-4.098,-4.1362,-4.1722,-4.2231,-4.1854,-4.0961,-4.0779,-4.0232,-3.876,-3.9262,-3.9446,-3.9062,-3.9017,-3.8671,-3.8075,-3.7658,-3.6847,-3.6071,-3.5588,-3.5263,-3.4933,-3.561,-3.5953,-3.59,-3.5995,-3.6033,-3.5765,-3.498,-3.4533,-3.4426,-3.485,-3.5733,-3.6674,-3.7264,-3.7971,-3.9073,-4.021,-4.0603,-4.063,-4.0377,-4.0044,-3.9749,-3.9697,-3.9697,-3.9697,-3.9749,-3.9839,-3.9993,-4.0249,-4.0721,-4.1273,-4.228,-4.3099,-4.3567,-4.405,-4.4403,-4.4531,-4.4367,-4.4203,-4.4107,-4.3997,-4.3887,-4.3721,-4.3598,-4.3487,-4.3295,-4.3073,-4.303,-4.2986,-4.2986,-4.3564,-4.4455,-4.4661,-4.5008,-4.5748,-4.6313,-4.6313,-4.618,-4.5866,-4.5537,-4.4263,-4.2837,-4.135,-3.9818,-3.8445,-3.7222,-3.6235,-3.5842,-3.5531,-4.461,-4.461,-4.461,-4.461,-4.461,-4.461,-4.461,-4.461,-4.461,-4.461,-4.461,-4.461,-4.461,-4.4341,-4.3541,-4.2802,-4.2125,-4.1417,-4.1263,-4.1509,-4.1909,-4.1955,-4.1887,-4.1562,-4.0828,-4.054,-4.0568,-4.0741,-4.1115,-4.1628,-4.1546,-3.9989,-4.0115,-3.9639,-3.8269,-3.881,-3.8967,-3.8719,-3.8225,-3.7653,-3.7193,-3.678,-3.6243,-3.544,-3.5399,-3.5018,-3.4778,-3.5128,-3.5402,-3.531,-3.5376,-3.5387,-3.5341,-3.5334,-3.5538,-3.5467,-3.6723,-3.703,-3.649,-3.7305,-3.8329,-3.9101,-3.9949,-4.0503,-4.0427,-4.0134,-3.9839,-3.9697,-3.9697,-3.9697,-3.9749,-3.9839,-3.9981,-4.0121,-4.0377,-4.0657,-4.1222,-4.2229,-4.3049,-4.3504,-4.4001,-4.4407,-4.4681,-4.4518,-4.4313,-4.4258,-4.4161,-4.4052,-4.3874,-4.3696,-4.3517,-4.3406,-4.3184,-4.2986,-4.2986,-4.2999,-4.3576,-4.4292,-4.4535,-4.502,-4.5874,-4.6313,-4.6313,-4.6313,-4.612,-4.5732,-4.5281,-4.4153,-4.2527,-4.08,-3.9055,-3.8156,-3.7276,-3.6279,-3.6029,-4.461,-4.461,-4.461,-4.461,-4.461,-4.461,-4.461,-4.4594,-4.4409,-4.4348,-4.4363,-4.4348,-4.4425,-4.444,-4.3901,-4.327,-4.2802,-4.1986,-4.1663,-4.1601,-4.1581,-4.1597,-4.1433,-4.1049,-4.0777,-4.0414,-4.0426,-4.0337,-4.0531,-4.1017,-4.0915,-3.9434,-3.9751,-3.9358,-3.8613,-3.8406,-3.846,-3.8135,-3.743,-3.6925,-3.6573,-3.6071,-3.5588,-3.5236,-3.5031,-3.4867,-3.4559,-3.4805,-3.4792,-3.4688,-3.4819,-3.4952,-3.4942,-3.5476,-3.6013,-3.6378,-3.7729,-3.8285,-3.7793,-3.8103,-3.8875,-3.9544,-3.9762,-4.0287,-4.0044,-3.9788,-3.9697,-3.9697,-3.9697,-3.9749,-3.9877,-4.0094,-4.0325,-4.0543,-4.081,-4.0949,-4.123,-4.2267,-4.2958,-4.3362,-4.3871,-4.4485,-4.4626,-4.4518,-4.4409,-4.4354,-4.4313,-4.4216,-4.4039,-4.3848,-4.3696,-4.353,-4.3184,-4.3042,-4.2986,-4.3162,-4.3727,-4.4166,-4.448,-4.5083,-4.5949,-4.6288,-4.6313,-4.6313,-4.6313,-4.612,-4.5793,-4.4767,-4.3781,-4.2325,-4.0907,-3.9558,-3.848,-3.7421,-3.6623,-4.461,-4.461,-4.461,-4.461,-4.461,-4.461,-4.461,-4.4564,-4.3994,-4.3778,-4.3778,-4.3747,-4.4086,-4.4302,-4.4009,-4.3639,-4.3454,-4.2186,-4.1755,-4.1632,-4.1535,-4.1051,-4.0776,-4.0612,-4.0483,-3.9847,-3.9978,-3.9933,-3.9828,-4.0427,-4.0808,-4.0948,-3.9969,-3.9711,-3.9217,-3.8674,-3.7814,-3.7344,-3.6668,-3.6417,-3.6165,-3.5804,-3.5399,-3.5113,-3.5031,-3.4853,-3.4439,-3.4515,-3.4541,-3.4397,-3.462,-3.4972,-3.528,-3.5762,-3.6275,-3.7087,-3.8563,-3.928,-3.9547,-3.9507,-4.0197,-4.0907,-4.0792,-4.0032,-3.9878,-3.9788,-3.9685,-3.9749,-3.9852,-3.989,-4.0132,-4.049,-4.0786,-4.0875,-4.1065,-4.1282,-4.1642,-4.2332,-4.2958,-4.3232,-4.3768,-4.4446,-4.4681,-4.4572,-4.4572,-4.4518,-4.4518,-4.4476,-4.4313,-4.4136,-4.3942,-4.3666,-4.3252,-4.303,-4.2986,-4.3263,-4.3589,-4.4104,-4.4543,-4.5246,-4.6075,-4.6225,-4.6313,-4.6313,-4.6313,-4.6313,-4.618,-4.5342,-4.4547,-4.3933,-4.2794,-4.1291,-4.0006,-3.8981,-3.8121,-4.461,-4.461,-4.461,-4.461,-4.461,-4.461,-4.461,-4.4579,-4.4332,-4.3963,-4.3593,-4.3624,-4.3747,-4.3963,-4.4271,-4.3963,-4.3531,-4.2679,-4.2063,-4.1509,-4.11,-4.0572,-4.0254,-4.0122,-4.0024,-3.9586,-3.9709,-3.9738,-3.9523,-4.0098,-4.0928,-4.1007,-4.0319,-4.0017,-3.9619,-3.8984,-3.7749,-3.6544,-3.6058,-3.5777,-3.5154,-3.5059,-3.4812,-3.4688,-3.466,-3.4605,-3.4397,-3.4397,-3.4397,-3.4489,-3.4766,-3.5221,-3.5835,-3.6371,-3.7078,-3.7866,-3.9516,-4.0665,-4.1237,-4.0965,-4.0874,-4.0622,-4.0326,-3.9878,-3.9929,-3.9929,-3.9929,-3.9993,-4.0096,-4.0198,-4.0364,-4.0952,-4.1402,-4.1245,-4.1359,-4.1667,-4.2018,-4.2605,-4.3049,-4.331,-4.3938,-4.4602,-4.4681,-4.4681,-4.4681,-4.4681,-4.4681,-4.4681,-4.4518,-4.4313,-4.3997,-4.3721,-4.3321,-4.3085,-4.2986,-4.3175,-4.3413,-4.4016,-4.4644,-4.5372,-4.6087,-4.625,-4.6313,-4.6313,-4.6313,-4.6313,-4.618,-4.5853,-4.5306,-4.4548,-4.3788,-4.2809,-4.1652,-4.056,-3.9842,-4.461,-4.461,-4.461,-4.461,-4.461,-4.461,-4.461,-4.4579,-4.4363,-4.3947,-4.3279,-4.311,-4.3285,-4.3639,-4.3994,-4.4255,-4.3809,-4.3202,-4.254,-4.1925,-4.1304,-4.0556,-4.0177,-3.997,-3.9858,-3.9496,-3.9388,-3.9388,-3.9418,-4.0098,-4.0957,-4.1408,-4.1187,-4.0891,-4.0613,-3.9294,-3.7826,-3.6551,-3.5616,-3.5331,-3.4688,-3.4522,-3.4439,-3.4439,-3.4439,-3.4688,-3.4675,-3.4675,-3.4634,-3.4818,-3.5186,-3.5669,-3.6436,-3.728,-3.8186,-3.931,-4.0497,-4.1883,-4.2228,-4.2315,-4.1639,-4.1264,-4.044,-4.0198,-4.0134,-4.0236,-4.0236,-4.0236,-4.0402,-4.0517,-4.067,-4.1376,-4.1828,-4.1748,-4.2098,-4.2357,-4.2344,-4.2762,-4.3088,-4.3415,-4.4108,-4.4681,-4.4681,-4.4681,-4.4681,-4.4681,-4.4681,-4.4681,-4.4572,-4.4313,-4.3942,-4.3666,-4.3376,-4.3154,-4.2999,-4.3313,-4.3664,-4.4267,-4.4869,-4.5434,-4.5974,-4.6175,-4.6313,-4.6313,-4.6313,-4.6313,-4.618,-4.6047,-4.5659,-4.5147,-4.4487,-4.3916,-4.3105,-4.2077,-4.1638,-4.461,-4.461,-4.461,-4.461,-4.461,-4.461,-4.461,-4.4533,-4.3978,-4.331,-4.2725,-4.2171,-4.2463,-4.33,-4.3593,-4.3947,-4.4148,-4.3716,-4.3079,-4.2402,-4.1678,-4.0924,-4.0314,-3.994,-3.9783,-3.9496,-3.9388,-3.9388,-3.9403,-4.0083,-4.0964,-4.1821,-4.1959,-4.1892,-4.225,-3.9643,-3.7951,-3.7139,-3.5804,-3.5249,-3.488,-3.4658,-3.4708,-3.482,-3.4861,-3.5247,-3.5683,-3.5209,-3.5223,-3.5602,-3.5613,-3.6204,-3.7156,-3.7736,-3.8802,-4.0236,-4.0983,-4.1764,-4.2326,-4.2965,-4.2622,-4.1713,-4.0732,-4.0453,-4.0453,-4.0504,-4.0491,-4.0491,-4.0605,-4.0733,-4.1182,-4.1828,-4.2099,-4.2384,-4.2723,-4.2892,-4.2866,-4.2971,-4.335,-4.3624,-4.4199,-4.4681,-4.4681,-4.4681,-4.4681,-4.4681,-4.4681,-4.4681,-4.4626,-4.4313,-4.3955,-4.3721,-4.3432,-4.3154,-4.3062,-4.3489,-4.394,-4.4531,-4.507,-4.5585,-4.5974,-4.6225,-4.6313,-4.6313,-4.6313,-4.6313,-4.6313,-4.6253,-4.5926,-4.5634,-4.5552,-4.5027,-4.4312,-4.3649,-4.3214,-4.461,-4.461,-4.461,-4.461,-4.461,-4.461,-4.461,-4.4486,-4.3886,-4.3254,-4.2679,-4.2325,-4.2125,-4.2525,-4.3239,-4.3716,-4.3855,-4.3824,-4.3217,-4.255,-4.1986,-4.0985,-4.0345,-4.0061,-3.9843,-3.9496,-3.9388,-3.9433,-3.9388,-4.0083,-4.0964,-4.1806,-4.255,-4.2382,-4.1276,-3.9445,-3.8171,-3.6935,-3.594,-3.5277,-3.4782,-3.5156,-3.5605,-3.5992,-3.6088,-3.6551,-3.7137,-3.6396,-3.6217,-3.6512,-3.6511,-3.7206,-3.8136,-3.876,-3.9568,-4.054,-4.1165,-4.1191,-4.1933,-4.2535,-4.2523,-4.168,-4.1034,-4.0643,-4.0732,-4.0744,-4.0744,-4.0795,-4.0909,-4.1152,-4.1812,-4.2372,-4.271,-4.2853,-4.3114,-4.318,-4.3232,-4.3454,-4.3729,-4.3912,-4.4343,-4.463,-4.4681,-4.4992,-4.51,-4.4992,-4.5046,-4.4789,-4.4668,-4.4258,-4.3899,-4.3721,-4.3432,-4.3154,-4.3137,-4.3614,-4.4028,-4.4531,-4.5095,-4.5648,-4.5987,-4.6263,-4.6313,-4.6313,-4.6313,-4.6313,-4.6313,-4.6313,-4.6313,-4.614,-4.5987,-4.5912,-4.5405,-4.499,-4.4811,-4.461,-4.461,-4.461,-4.461,-4.461,-4.461,-4.461,-4.4486,-4.3901,-4.3202,-4.2663,-4.2371,-4.2063,-4.2048,-4.2663,-4.3485,-4.3593,-4.387,-4.322,-4.2637,-4.2463,-4.15,-4.0745,-4.0455,-4.0396,-3.9931,-3.9738,-3.9723,-3.9433,-4.0083,-4.1114,-4.2289,-4.3134,-4.2891,-4.1657,-4.0199,-3.8474,-3.7236,-3.6252,-3.5329,-3.5252,-3.5628,-3.6368,-3.6989,-3.7509,-3.7926,-3.8225,-3.799,-3.743,-3.7593,-3.7942,-3.8472,-3.9258,-3.979,-4.0362,-4.0803,-4.0648,-4.0689,-4.1253,-4.1571,-4.1457,-4.1031,-4.0817,-4.078,-4.0828,-4.0904,-4.1021,-4.111,-4.1211,-4.16,-4.2108,-4.2683,-4.3127,-4.3271,-4.3507,-4.3585,-4.3847,-4.4083,-4.4003,-4.4199,-4.4369,-4.4604,-4.4789,-4.5248,-4.5555,-4.5449,-4.5355,-4.4992,-4.4613,-4.4203,-4.3832,-4.3598,-4.3432,-4.3154,-4.3263,-4.3777,-4.4192,-4.4568,-4.5183,-4.5849,-4.6037,-4.6313,-4.6313,-4.6313,-4.6313,-4.6313,-4.6313,-4.6313,-4.6313,-4.6313,-4.625,-4.6238,-4.6313,-4.6062,-4.5711,-4.461,-4.461,-4.461,-4.461,-4.461,-4.461,-4.461,-4.4564,-4.3932,-4.33,-4.2571,-4.2001,-4.1663,-4.1694,-4.2263,-4.2879,-4.3516,-4.4101,-4.3543,-4.3015,-4.3011,-4.2053,-4.1513,-4.141,-4.1075,-4.0658,-4.0397,-4.0232,-3.9694,-4.0583,-4.1738,-4.2698,-4.347,-4.3371,-4.2476,-4.1127,-3.9325,-3.8046,-3.6797,-3.6019,-3.5904,-3.6253,-3.7274,-3.8076,-3.8708,-3.9355,-3.9576,-3.9281,-3.8917,-3.8919,-3.9153,-3.9629,-4.0051,-4.036,-4.0738,-4.0648,-4.007,-4.0162,-4.0372,-4.0627,-4.0605,-4.0514,-4.0869,-4.0778,-4.0739,-4.0807,-4.1002,-4.1159,-4.1274,-4.1703,-4.2121,-4.2786,-4.3389,-4.3677,-4.4005,-4.4241,-4.449,-4.4568,-4.4356,-4.4434,-4.4591,-4.4735,-4.483,-4.5181,-4.5555,-4.5395,-4.5248,-4.4992,-4.4626,-4.4203,-4.3819,-4.3462,-4.3295,-4.3098,-4.335,-4.3853,-4.4267,-4.4618,-4.5522,-4.6175,-4.6301,-4.6313,-4.6313,-4.6313,-4.6313,-4.6313,-4.6313,-4.6313,-4.6313,-4.6313,-4.6313,-4.6313,-4.6313,-4.624,-4.582,-4.461,-4.461,-4.461,-4.461,-4.461,-4.461,-4.461,-4.4564,-4.4326,-4.3694,-4.2602,-4.2417,-4.1837,-4.092,-4.1571,-4.2294,-4.2946,-4.3433,-4.3571,-4.3479,-4.3427,-4.2661,-4.2186,-4.1917,-4.1587,-4.1325,-4.1093,-4.1003,-4.1055,-4.1656,-4.2289,-4.319,-4.3869,-4.3944,-4.3328,-4.2306,-4.0651,-3.913,-3.7771,-3.7084,-3.6985,-3.7449,-3.8561,-3.9655,-4.0204,-4.0935,-4.1479,-4.1152,-4.0876,-4.0913,-4.089,-4.1097,-4.1084,-4.0948,-4.0868,-3.9961,-3.9649,-3.9716,-3.9886,-4.02,-4.0252,-4.0043,-4.0383,-4.0566,-4.0514,-4.0579,-4.0853,-4.1063,-4.1298,-4.1638,-4.2325,-4.2992,-4.3715,-4.4255,-4.4613,-4.4903,-4.5047,-4.4792,-4.4593,-4.4578,-4.4681,-4.4735,-4.483,-4.5087,-4.5408,-4.5248,-4.514,-4.4979,-4.4613,-4.4203,-4.3764,-4.3462,-4.3184,-4.303,-4.3363,-4.384,-4.4267,-4.4756,-4.5648,-4.6288,-4.6313,-4.6313,-4.6313,-4.6313,-4.6313,-4.6313,-4.6313,-4.6313,-4.6313,-4.6313,-4.6313,-4.6313,-4.6313,-4.624,-4.5704,-4.461,-4.461,-4.461,-4.461,-4.461,-4.461,-4.461,-4.461,-4.461,-4.3956,-4.3017,-4.2694,-4.2129,-4.1616,-4.1886,-4.2299,-4.2712,-4.3658,-4.3719,-4.3076,-4.3725,-4.3218,-4.2772,-4.2629,-4.2523,-4.2175,-4.1904,-4.1806,-4.1889,-4.2433,-4.3099,-4.3334,-4.4173,-4.4266,-4.379,-4.2944,-4.1799,-4.0397,-3.9175,-3.8338,-3.8311,-3.867,-3.9829,-4.1201,-4.1664,-4.2464,-4.3213,-4.2724,-4.2504,-4.2352,-4.2159,-4.2164,-4.1864,-4.141,-4.035,-3.9492,-3.9131,-3.9331,-3.9568,-3.9599,-3.9651,-3.9716,-3.9935,-3.9847,-4.0017,-4.0109,-4.0501,-4.0827,-4.1167,-4.1647,-4.2464,-4.33,-4.4115,-4.4935,-4.5234,-4.5529,-4.5315,-4.4992,-4.483,-4.4722,-4.4681,-4.4681,-4.4843,-4.51,-4.5408,-4.5662,-4.5702,-4.5595,-4.502,-4.4409,-4.3916,-4.3462,-4.3197,-4.2999,-4.3413,-4.3827,-4.4317,-4.4869,-4.566,-4.6163,-4.625,-4.6313,-4.6313,-4.6313,-4.6313,-4.6313,-4.6313,-4.6313,-4.6313,-4.6313,-4.6313,-4.6313,-4.6313,-4.6313,-4.5436,-4.461,-4.461,-4.461,-4.461,-4.461,-4.461,-4.4572,-4.4587,-4.4572,-4.4202,-4.3547,-4.305,-4.2754,-4.2381,-4.2579,-4.2712,-4.3085,-4.3778,-4.3811,-4.2567,-4.385,-4.3891,-4.3609,-4.377,-4.3404,-4.3092,-4.2864,-4.269,-4.2243,-4.2789,-4.3434,-4.3448,-4.4173,-4.448,-4.4282,-4.3563,-4.256,-4.158,-4.0585,-3.9802,-3.9397,-3.9522,-4.0154,-4.1787,-4.2482,-4.3015,-4.3457,-4.3444,-4.3186,-4.3054,-4.2931,-4.3001,-4.2222,-4.1311,-4.0032,-3.9397,-3.9023,-3.9321,-3.9601,-3.9694,-3.984,-3.9831,-3.9777,-3.9815,-4.0042,-4.0114,-4.0474,-4.0697,-4.101,-4.1613,-4.2378,-4.3499,-4.4447,-4.5113,-4.5585,-4.5766,-4.5742,-4.5261,-4.4789,-4.4681,-4.4681,-4.4735,-4.4776,-4.4992,-4.514,-4.5755,-4.5861,-4.5688,-4.5328,-4.4505,-4.4013,-4.3517,-4.3197,-4.308,-4.3288,-4.374,-4.4355,-4.4995,-4.5723,-4.6125,-4.6276,-4.6313,-4.6313,-4.6313,-4.6313,-4.6313,-4.6313,-4.6313,-4.6313,-4.6313,-4.6313,-4.6313,-4.6313,-4.6313,-4.5338,-4.461,-4.461,-4.461,-4.461,-4.461,-4.461,-4.4496,-4.4396,-4.4358,-4.4104,-4.3729,-4.3873,-4.3611,-4.2914,-4.3208,-4.3318,-4.3542,-4.3815,-4.3917,-4.3895,-4.4486,-4.4479,-4.4037,-4.4167,-4.4029,-4.3859,-4.3699,-4.3601,-4.3472,-4.3793,-4.406,-4.4234,-4.461,-4.461,-4.4572,-4.3927,-4.3386,-4.249,-4.2143,-4.131,-4.0619,-4.1035,-4.178,-4.2765,-4.3373,-4.3618,-4.4021,-4.4249,-4.4195,-4.4165,-4.3685,-4.2981,-4.1966,-4.0885,-4.0148,-3.9686,-3.9407,-3.978,-4.0232,-4.0468,-4.0709,-4.1082,-4.1194,-4.0775,-4.0562,-4.0448,-4.0497,-4.0667,-4.0979,-4.1631,-4.2415,-4.3627,-4.4759,-4.5363,-4.5842,-4.6012,-4.6112,-4.5422,-4.4789,-4.4681,-4.4681,-4.4735,-4.4776,-4.4884,-4.5033,-4.5087,-4.5033,-4.4925,-4.4925,-4.4463,-4.4123,-4.3628,-4.3252,-4.3118,-4.3319,-4.3727,-4.4392,-4.4982,-4.5648,-4.5999,-4.6301,-4.6313,-4.6313,-4.6313,-4.6313,-4.6313,-4.6313,-4.6313,-4.6313,-4.6313,-4.6313,-4.6313,-4.6313,-4.6313,-4.5228,-4.461,-4.461,-4.461,-4.461,-4.461,-4.461,-4.4511,-4.432,-4.432,-4.4121,-4.3799,-4.396,-4.393,-4.3546,-4.38,-4.3955,-4.4017,-4.4062,-4.4287,-4.4557,-4.4706,-4.4843,-4.4708,-4.4572,-4.4305,-4.4166,-4.405,-4.4058,-4.4343,-4.4343,-4.4366,-4.4572,-4.461,-4.4572,-4.4572,-4.4305,-4.3879,-4.3155,-4.326,-4.2703,-4.1803,-4.221,-4.2578,-4.3354,-4.3708,-4.402,-4.4328,-4.461,-4.4556,-4.4236,-4.3648,-4.3001,-4.2046,-4.11,-4.0544,-4.0386,-4.0383,-4.053,-4.1251,-4.1693,-4.1906,-4.2396,-4.2565,-4.2122,-4.1317,-4.12,-4.1162,-4.1266,-4.107,-4.16,-4.2409,-4.348,-4.4878,-4.5746,-4.5942,-4.6057,-4.5688,-4.5046,-4.4735,-4.4681,-4.4681,-4.4735,-4.4735,-4.4735,-4.4884,-4.4884,-4.4735,-4.4735,-4.4626,-4.4518,-4.419,-4.3848,-4.3474,-4.3166,-4.3168,-4.3714,-4.4493,-4.507,-4.5632,-4.6047,-4.6373,-4.6313,-4.6313,-4.6373,-4.6373,-4.6313,-4.6313,-4.6373,-4.6313,-4.6313,-4.6313,-4.6313,-4.6373,-4.6421,-4.5787,-4.461,-4.461,-4.461,-4.461,-4.461,-4.461,-4.4473,-4.4281,-4.4243,-4.4089,-4.3866,-4.3594,-4.4252,-4.4602,-4.4495,-4.4548,-4.456,-4.448,-4.46,-4.4804,-4.4828,-4.5079,-4.5163,-4.5067,-4.4708,-4.4396,-4.4205,-4.4358,-4.4534,-4.4473,-4.4473,-4.4572,-4.461,-4.461,-4.4404,-4.4097,-4.3708,-4.3512,-4.3418,-4.3339,-4.315,-4.3086,-4.3299,-4.3497,-4.3747,-4.4058,-4.4404,-4.461,-4.461,-4.4082,-4.3457,-4.2725,-4.2073,-4.1226,-4.11,-4.0901,-4.1227,-4.1824,-4.2596,-4.2768,-4.3212,-4.3578,-4.3638,-4.3259,-4.2532,-4.2194,-4.2132,-4.1604,-4.1421,-4.1785,-4.2585,-4.3524,-4.4906,-4.5984,-4.6055,-4.6046,-4.5422,-4.4776,-4.4735,-4.4681,-4.4668,-4.4668,-4.4655,-4.4655,-4.4642,-4.4642,-4.4655,-4.4681,-4.4681,-4.4585,-4.4354,-4.4136,-4.3861,-4.3555,-4.3247,-4.3935,-4.485,-4.5274,-4.5826,-4.6188,-4.6481,-4.6588,-4.6648,-4.6528,-4.6541,-4.6541,-4.6481,-4.6541,-4.6481,-4.6421,-4.6528,-4.6648,-4.6648,-4.6708,-4.6661,-4.461,-4.461,-4.461,-4.461,-4.461,-4.461,-4.4396,-4.4104,-4.405,-4.3817,-4.3654,-4.3897,-4.4469,-4.5439,-4.5435,-4.5326,-4.5005,-4.4818,-4.4968,-4.5217,-4.5269,-4.5483,-4.5551,-4.5311,-4.5067,-4.4708,-4.4419,-4.4534,-4.461,-4.4534,-4.4549,-4.4572,-4.461,-4.461,-4.4572,-4.4289,-4.4097,-4.3903,-4.3942,-4.3981,-4.3576,-4.3615,-4.3864,-4.4135,-4.4419,-4.4496,-4.4572,-4.461,-4.461,-4.4197,-4.3442,-4.2603,-4.1964,-4.1479,-4.1311,-4.1677,-4.2005,-4.3,-4.3632,-4.4251,-4.4857,-4.5474,-4.5405,-4.48,-4.4172,-4.3678,-4.3152,-4.1904,-4.1856,-4.2276,-4.307,-4.387,-4.5004,-4.5799,-4.6236,-4.5922,-4.5475,-4.5005,-4.4735,-4.4709,-4.467,-4.4643,-4.4604,-4.4524,-4.4446,-4.4433,-4.4407,-4.4446,-4.4578,-4.4535,-4.4479,-4.4354,-4.419,-4.4052,-4.3828,-4.4609,-4.5387,-4.5719,-4.6101,-4.6556,-4.6874,-4.704,-4.704,-4.6874,-4.6874,-4.6934,-4.6887,-4.6768,-4.6768,-4.6768,-4.6981,-4.704,-4.704,-4.6981,-4.6993]},{"header":{"parameterUnit":"m.s-1","parameterCategory":1,"la1":31.0,"la2":29.5877,"lo1":-88.7671,"lo2":-86.6584,"dx":0.0162,"dy":0.0185,"nx":115,"ny":88,"refTime":"2023-01-01T06:00:00:Z","depth":0,"parameterNumber":3,"parameterNumberName":"V-component_of_WINDS"},"data":[0.0,0.0,0.0,0.0,0.0,0.0,0.0,0.0,0.0,0.0,0.0,0.0,0.0,0.0,0.0,0.0,0.0,0.0,0.0,0.0,0.0,0.0,0.0,0.0,0.0,0.0,0.0,0.0,0.0,0.0,0.0,0.0,0.0,0.0,0.0,0.0,0.0,0.0,0.0,0.0,0.0,0.0,0.0,0.0,0.0,0.0,0.0,0.0,0.0,0.0,0.0,0.0,0.0,0.0,0.0,0.0,0.0,0.0,0.0,0.0,0.0,0.0,0.0,0.0,0.0,0.0,0.0,0.0,0.0,0.0,0.0,0.0,0.0,0.0,0.0,0.0,0.0,0.0,0.0,0.0,0.0,0.0,0.0,0.0,0.0,0.0,0.0,0.0,0.0,0.0,0.0,0.0,0.0,0.0,0.0,0.0,0.0,0.0,0.0,0.0,0.0,0.0,0.0,0.0,0.0,0.0,0.0,0.0,0.0,0.0,0.0,0.0,0.0,0.0,0.0,0.0,0.0,0.0,0.0,0.0,0.0,0.0,0.0,0.0,0.0,0.0,0.0,0.0,0.0,0.0,0.0,0.0,0.0,0.0,0.0,0.0,0.0,0.0,0.0,0.0,0.0,0.0,0.0,0.0,0.0,0.0,0.0,0.0,0.0,0.0,0.0,0.0,0.0,0.0,0.0,0.0,0.0,0.0,0.0,0.0,0.0,0.0,0.0,0.0,0.0,0.0,0.0,0.0,0.0,0.0,0.0,0.0,0.0,0.0,0.0,0.0,0.0,0.0,0.0,0.0,0.0,0.0,0.0,0.0,0.0,0.0,0.0,0.0,0.0,0.0,0.0,0.0,0.0,0.0,0.0,0.0,0.0,0.0,0.0,0.0,0.0,0.0,0.0,0.0,0.0,0.0,0.0,0.0,0.0,0.0,0.0,0.0,0.0,0.0,0.0,0.0,0.0,0.0,0.0,0.0,0.0,0.0,0.0,0.0,0.0,0.0,0.0,0.0,0.0,0.0,0.0,0.0,0.0,0.0,0.0,0.0,0.0,0.0,0.0,0.0,0.0,0.0,0.0,0.0,0.0,0.0,0.0,0.0,0.0,0.0,0.0,0.0,0.0,0.0,0.0,0.0,0.0,0.0,0.0,0.0,0.0,0.0,0.0,0.0,0.0,0.0,0.0,0.0,0.0,0.0,0.0,0.0,0.0,0.0,0.0,0.0,0.0,0.0,0.0,0.0,0.0,0.0,0.0,0.0,0.0,0.0,0.0,0.0,0.0,0.0,0.0,0.0,0.0,0.0,0.0,0.0,0.0,0.0,0.0,0.0,0.0,0.0,0.0,0.0,0.0,0.0,0.0,0.0,0.0,0.0,0.0,0.0,0.0,0.0,0.0,0.0,0.0,0.0,0.0,0.0,0.0,0.0,0.0,0.0,0.0,0.0,0.0,0.0,0.0,0.0,0.0,0.0,0.0,0.0,0.0,0.0,0.0,0.0,0.0,0.0,0.0,0.0,0.0,0.0,0.0,0.0,0.0,0.0,0.0,0.0,0.0,0.0,0.0,0.0,0.0,0.0,0.0,0.0,0.0,0.0,0.0,0.0,0.0,0.0,0.0,0.0,0.0,0.0,0.0,0.0,0.0,0.0,0.0,0.0,0.0,0.0,0.0,0.0,0.0,0.0,0.0,0.0,0.0,0.0,0.0,0.0,0.0,0.0,0.0,0.0,0.0,0.0,0.0,0.0,0.0,0.0,0.0,0.0,0.0,0.0,0.0,0.0,0.0,0.0,0.0,0.0,0.0,0.0,0.0,0.0,0.0,0.0,0.0,0.0,0.0,0.0,0.0,0.0,0.0,0.0,0.0,0.0,0.0,0.0,0.0,0.0,0.0,0.0,0.0,0.0,0.0,0.0,0.0,0.0,0.0,0.0,0.0,0.0,0.0,0.0,0.0,0.0,0.0,0.0,0.0,0.0,0.0,0.0,0.0,0.0,0.0,0.0,0.0,0.0,0.0,0.0,0.0,0.0,0.0,0.0,0.0,0.0,0.0,0.0,0.0,0.0,0.0,0.0,0.0,0.0,0.0,0.0,0.0,0.0,0.0,0.0,0.0,0.0,0.0,0.0,0.0,0.0,0.0,0.0,0.0,0.0,0.0,0.0,0.0,0.0,0.0,0.0,0.0,0.0,0.0,0.0,0.0,0.0,0.0,0.0,0.0,0.0,0.0,0.0,0.0,0.0,0.0,0.0,0.0,0.0,0.0,0.0,0.0,0.0,0.0,0.0,0.0,0.0,0.0,0.0,0.0,0.0,0.0,0.0,0.0,0.0,0.0,0.0,0.0,0.0,0.0,0.0,0.0,0.0,0.0,0.0,0.0,0.0,0.0,0.0,0.0,0.0,0.0,0.0,0.0,0.0,0.0,0.0,0.0,0.0,0.0,0.0,0.0,0.0,0.0,0.0,0.0,0.0,0.0,0.0,0.0,0.0,0.0,0.0,0.0,0.0,0.0,0.0,0.0,0.0,0.0,0.0,0.0,0.0,0.0,0.0,0.0,0.0,0.0,0.0,0.0,0.0,0.0,0.0,0.0,0.0,0.0,0.0,0.0,0.0,0.0,0.0,0.0,0.0,0.0,0.0,0.0,0.0,0.0,0.0,0.0,0.0,0.0,0.0,0.0,0.0,0.0,0.0,0.0,0.0,0.0,0.0,0.0,0.0,0.0,0.0,0.0,0.0,0.0,0.0,0.0,0.0,0.0,0.0,0.0,0.0,0.0,0.0,0.0,0.0,0.0,0.0,0.0,0.0,0.0,0.0,0.0,0.0,0.0,0.0,0.0,0.0,0.0,0.0,0.0,0.0,0.0,0.0,0.0,0.0,0.0,0.0,0.0,0.0,0.0,0.0,0.0,0.0,0.0,0.0,0.0,0.0,0.0,0.0,0.0,0.0,0.0,0.0,0.0,0.0,0.0,0.0,0.0,0.0,0.0,0.0,0.0,0.0,0.0,0.0,0.0,0.0,0.0,0.0,0.0,0.0,0.0,0.0,0.0,0.0,0.0,0.0,0.0,0.0,0.0,0.0,0.0,0.0,0.0,0.0,0.0,0.0,0.0,0.0,0.0,0.0,0.0,0.0,0.0,0.0,0.0,0.0,0.0,0.0,0.0,0.0,0.0,0.0,0.0,0.0,0.0,0.0,0.0,0.0,0.0,0.0,0.0,0.0,0.0,0.0,0.0,0.0,0.0,0.0,0.0,0.0,0.0,0.0,0.0,0.0,0.0,0.0,0.0,0.0,0.0,0.0,0.0,0.0,0.0,0.0,0.0,0.0,0.0,0.0,0.0,0.0,0.0,0.0,0.0,0.0,0.0,0.0,0.0,0.0,0.0,0.0,0.0,0.0,0.0,0.0,0.0,0.0,0.0,0.0,0.0,0.0,0.0,0.0,0.0,0.0,0.0,0.0,0.0,0.0,0.0,0.0,0.0,0.0,0.0,0.0,0.0,0.0,0.0,0.0,0.0,0.0,0.0,0.0,0.0,0.0,0.0,0.0,0.0,0.0,0.0,0.0,0.0,0.0,0.0,0.0,0.0,0.0,0.0,0.0,0.0,0.0,0.0,0.0,0.0,0.0,0.0,0.0,0.0,0.0,0.0,0.0,0.0,0.0,0.0,0.0,0.0,0.0,0.0,0.0,0.0,0.0,0.0,0.0,0.0,0.0,0.0,0.0,0.0,0.0,0.0,0.0,0.0,0.0,0.0,0.0,0.0,0.0,0.0,0.0,0.0,0.0,0.0,0.0,0.0,0.0,0.0,0.0,0.0,0.0,0.0,0.0,0.0,0.0,0.0,0.0,0.0,0.0,0.0,0.0,0.0,0.0,0.0,0.0,0.0,0.0,0.0,0.0,0.0,0.0,0.0,0.0,0.0,0.0,0.0,0.0,0.0,0.0,0.0,0.0,0.0,0.0,0.0,0.0,0.0,0.0,0.0,0.0,0.0,0.0,0.0,0.0,0.0,0.0,0.0,0.0,0.0,0.0,0.0,0.0,0.0,0.0,0.0,0.0,0.0,0.0,0.0,0.0,0.0,0.0,0.0,0.0,0.0,0.0,0.0,0.0,0.0,0.0,0.0,0.0,0.0,0.0,0.0,0.0,0.0,0.0,0.0,0.0,0.0,0.0,0.0,0.0,0.0,0.0,0.0,0.0,0.0,0.0,0.0,0.0,0.0,0.0,0.0,0.0,0.0,0.0,0.0,0.0,1.3038,0.0,0.0,0.0,1.4154,0.0,0.0,0.0,0.0,0.0,0.0,0.0,0.0,0.0,0.0,0.0,0.0,0.0,0.0,0.0,0.0,0.0,0.0,0.0,0.0,0.0,0.0,0.0,0.0,0.0,0.0,0.0,0.0,0.0,0.0,0.0,0.0,0.0,0.0,0.0,0.0,0.0,0.0,0.0,0.0,0.0,0.0,0.0,0.0,0.0,0.0,0.0,0.0,0.0,0.0,0.0,0.0,0.0,0.0,0.0,0.0,0.0,0.0,0.0,0.0,0.0,0.0,0.0,0.0,0.0,0.0,0.0,0.0,0.0,0.0,0.0,0.0,0.0,0.0,0.0,0.0,0.0,0.0,0.0,0.0,0.0,0.0,0.0,0.0,0.0,0.0,0.0,0.0,0.0,0.0,0.0,0.0,0.0,0.0,0.0,0.0,0.0,0.0,0.0,0.0,0.0,0.0,0.0,0.0,0.0,0.0,0.0,0.0,0.0,0.0,1.2696,1.2184,1.3938,1.4494,1.369,0.0,0.0,0.0,0.0,0.0,0.0,0.0,0.0,0.0,0.0,0.0,0.0,0.0,0.0,0.0,0.0,0.0,0.0,0.0,0.0,0.0,0.0,0.0,0.0,0.0,0.0,0.0,0.0,0.0,0.0,0.0,0.0,0.0,0.0,0.0,0.0,0.0,0.0,0.0,0.0,0.0,0.0,0.0,0.0,0.0,0.0,0.0,0.0,0.0,0.0,0.0,0.0,0.0,0.0,0.0,0.0,0.0,0.0,0.0,0.0,0.0,0.0,0.0,0.0,0.0,0.0,0.0,0.0,0.0,0.0,0.0,0.0,0.0,0.0,0.0,0.0,0.0,0.0,0.0,0.0,0.0,0.0,0.0,0.0,0.0,0.0,0.0,0.0,0.0,0.0,0.0,0.0,0.0,0.0,0.0,0.0,0.0,0.0,0.0,0.0,0.0,0.0,0.0,0.0,0.0,0.0,0.0,0.0,0.0,0.0,0.0,0.0,1.3866,1.4494,1.3667,0.0,0.0,0.0,0.0,0.0,0.0,0.0,0.0,0.0,0.0,0.0,0.0,0.0,0.0,0.0,0.0,0.0,0.0,0.0,0.0,0.0,0.0,0.0,0.0,0.0,0.0,0.0,0.0,0.0,0.0,0.0,0.0,0.0,0.0,0.0,0.0,0.0,0.0,0.0,0.0,0.0,0.0,0.0,0.0,0.0,0.0,0.0,0.0,0.0,0.0,0.0,0.0,0.0,0.0,0.0,0.0,0.0,0.0,0.0,0.0,0.0,0.0,0.0,0.0,0.0,0.0,0.0,0.0,0.0,0.0,0.0,0.0,0.0,0.0,0.0,0.0,0.0,0.0,0.0,0.0,0.0,0.0,0.0,0.0,0.0,0.0,0.0,0.0,0.0,0.0,0.0,0.0,0.0,0.0,0.0,0.0,0.0,0.0,0.0,0.0,0.0,0.0,0.0,0.0,0.0,0.0,0.0,0.0,0.0,0.0,1.2519,1.2377,1.3997,0.0,1.4808,0.0,0.0,0.0,0.0,0.0,0.0,0.0,0.0,0.0,0.0,0.0,0.0,0.0,0.0,0.0,0.0,0.0,0.0,0.0,0.0,0.0,0.0,0.0,0.0,0.0,0.0,0.0,0.0,0.0,0.0,0.0,0.0,0.0,0.0,0.0,0.0,0.0,0.0,0.0,0.0,0.0,0.0,0.0,0.0,0.0,0.0,0.0,0.0,0.0,0.0,0.0,0.0,0.0,0.0,0.0,0.0,0.0,0.0,0.0,0.0,0.0,0.0,0.0,0.0,0.0,0.0,0.0,0.0,0.0,0.0,0.0,0.0,0.0,0.0,0.0,0.0,0.0,0.0,0.0,0.0,0.0,0.0,0.0,0.0,0.0,0.0,0.0,0.0,0.0,0.0,0.0,0.0,0.0,0.0,0.0,0.0,0.0,0.0,0.0,0.0,0.0,0.0,0.0,0.0,0.0,0.0,0.0,0.0,0.0,0.0,1.306,1.2988,1.4223,1.5047,0.0,0.0,0.0,0.0,0.0,0.0,0.0,0.0,0.0,0.0,0.0,0.0,0.0,0.0,0.0,0.0,0.0,0.0,0.0,0.0,0.0,0.0,0.0,0.0,0.0,0.0,0.0,0.0,0.0,0.0,0.0,0.0,0.0,0.0,0.0,0.0,0.0,0.0,0.0,0.0,0.0,0.0,0.0,0.0,0.0,0.0,0.0,0.0,0.0,0.0,0.0,0.0,0.0,0.0,0.0,0.0,0.0,0.0,0.0,0.0,0.0,0.0,0.0,0.0,0.0,0.0,0.0,0.0,0.0,0.0,0.0,0.0,0.0,0.0,0.0,0.0,0.0,0.0,0.0,0.0,0.0,0.0,0.0,0.0,0.0,0.0,0.0,0.0,0.0,0.0,0.0,0.0,0.0,0.0,0.0,0.0,0.0,0.0,0.0,0.0,0.0,0.0,0.0,0.0,0.0,0.0,0.0,0.0,0.0,0.0,1.2375,1.3597,1.4032,1.4742,1.5097,1.5028,0.0,0.0,0.0,0.0,0.0,0.0,0.0,0.0,0.0,0.0,0.0,0.0,0.0,0.0,0.0,0.0,0.0,0.0,0.0,0.0,0.0,0.0,0.0,0.0,0.0,0.0,0.0,0.0,0.0,0.0,0.0,0.0,0.0,0.0,0.0,0.0,0.0,0.0,0.0,0.0,0.0,0.0,0.0,0.0,0.0,0.0,0.0,0.0,0.0,0.0,0.0,0.0,0.0,0.0,0.0,0.0,0.0,0.0,0.0,0.0,0.0,0.0,0.0,0.0,0.0,0.0,0.0,0.0,0.0,0.0,0.0,0.0,0.0,0.0,0.0,0.0,0.0,0.0,0.0,0.0,0.0,0.0,0.0,0.0,0.0,0.0,0.0,0.0,0.0,0.0,0.0,0.0,0.0,0.0,0.0,0.0,0.0,0.0,0.0,0.0,0.0,0.0,0.0,0.0,0.0,0.0,0.0,0.0,1.2425,1.3073,1.4108,1.5545,1.5635,1.492,0.0,0.0,0.0,0.0,0.0,0.0,0.0,0.0,0.0,0.0,0.0,0.0,0.0,0.0,0.0,0.0,0.0,0.0,0.0,0.0,0.0,0.0,0.0,0.0,0.0,0.0,0.0,0.0,0.0,0.0,0.0,0.0,0.0,0.0,0.0,0.0,0.0,0.0,0.0,0.0,0.0,0.0,0.0,0.0,0.0,0.0,0.0,0.0,0.0,0.0,0.0,0.0,0.0,0.0,0.0,0.0,0.0,0.0,0.0,0.0,0.0,0.0,0.0,0.0,0.0,0.0,0.0,0.0,0.0,0.0,0.0,0.0,0.0,0.0,0.0,0.0,0.0,0.0,0.0,0.0,0.0,0.0,0.0,0.0,0.0,0.0,0.0,0.0,0.0,0.0,0.0,0.0,0.0,0.0,0.0,0.0,0.0,0.0,0.0,0.0,0.0,0.0,0.0,0.0,0.0,0.0,0.0,0.0,0.0,1.07,1.2123,1.4157,1.6663,1.5082,1.4318,0.0,0.0,0.0,0.0,0.0,0.0,0.0,0.0,0.0,0.0,0.0,0.0,0.0,0.0,0.0,0.0,0.0,0.0,0.0,0.0,0.0,0.0,0.0,0.0,0.0,0.0,0.0,0.0,0.0,0.0,0.0,0.0,0.0,0.0,0.0,0.0,0.0,0.0,0.0,0.0,0.0,0.0,0.0,0.0,0.0,0.0,0.0,0.0,0.0,0.0,0.0,0.0,0.0,0.0,0.0,0.0,0.0,0.0,0.0,0.0,0.0,0.0,0.0,0.0,0.0,0.0,0.0,0.0,0.0,0.0,0.0,0.0,0.0,0.0,0.0,0.0,0.0,0.0,0.0,0.0,0.0,0.0,0.0,0.0,0.0,0.0,0.0,0.0,0.0,0.0,0.0,0.0,0.0,0.0,0.0,0.0,0.0,0.0,0.0,0.0,0.0,0.0,0.0,0.0,0.0,0.0,0.0,0.0,0.0,1.0773,1.2932,1.4878,1.6393,1.4733,1.3873,0.0,0.0,0.0,0.0,0.0,0.0,0.0,0.0,0.0,0.0,0.0,0.0,0.0,0.0,0.0,0.0,0.0,0.0,0.0,0.0,0.0,0.0,0.0,0.0,0.0,0.0,0.0,0.0,0.0,0.0,0.0,0.0,0.0,0.0,0.0,0.0,0.0,0.0,0.0,0.0,0.0,0.0,0.0,0.0,0.0,0.0,0.0,0.0,0.0,0.0,0.0,0.0,0.0,0.0,0.0,0.0,0.0,0.0,0.0,0.0,0.0,0.0,0.0,0.0,0.0,0.0,0.0,0.0,0.0,0.0,0.0,0.0,0.0,0.0,0.0,0.0,0.0,0.0,0.0,0.0,0.0,0.0,0.0,0.0,0.0,0.0,0.0,0.0,0.0,0.0,0.0,0.0,0.0,0.0,0.0,0.0,0.0,0.0,0.0,0.0,0.0,0.0,0.0,0.0,0.0,0.0,0.0,0.0,0.963,1.3138,1.5658,1.6197,1.4742,1.4791,1.3602,0.0,0.0,0.0,0.0,0.0,0.0,0.0,0.0,0.0,0.0,0.0,0.0,0.0,0.0,0.0,0.0,0.0,0.0,0.0,0.0,0.0,0.0,0.0,0.0,0.0,0.0,0.0,0.0,0.0,0.0,0.0,0.0,0.0,0.0,0.0,0.0,0.0,0.0,0.0,0.0,0.0,0.0,0.0,0.0,0.0,0.0,0.0,0.0,0.0,0.0,0.0,0.0,0.0,0.0,0.0,0.0,0.0,0.0,0.0,0.0,0.0,0.0,0.0,0.0,0.0,0.0,0.0,0.0,0.0,0.0,0.0,0.0,0.0,0.0,0.0,0.0,0.0,0.0,0.0,0.0,0.0,0.0,0.0,0.0,0.0,0.0,0.0,0.0,0.0,0.0,0.0,0.0,0.0,0.0,0.0,0.0,0.0,0.0,0.0,0.0,0.0,0.0,0.0,0.0,0.0,0.0,0.0,0.0,0.0,1.2277,1.4617,1.5891,1.5952,1.4908,1.4299,0.0,0.0,0.0,0.0,0.0,0.0,0.0,0.0,0.0,0.0,0.0,0.0,0.0,0.0,0.0,0.0,0.0,0.0,0.0,0.0,0.0,0.0,0.0,0.0,0.0,0.0,0.0,0.0,0.0,0.0,0.0,0.0,0.0,0.0,0.0,0.0,0.0,0.0,0.0,0.0,0.0,0.0,0.0,0.0,0.0,0.0,0.0,0.0,0.0,0.0,0.0,0.0,0.0,0.0,0.0,0.0,0.0,0.0,0.0,0.0,0.0,0.0,0.0,0.0,0.0,0.0,0.0,0.0,0.0,0.0,0.0,0.0,0.0,0.0,0.0,0.0,0.0,0.0,0.0,0.0,0.0,0.0,0.0,0.0,0.0,0.0,0.0,0.0,0.0,0.0,0.0,0.0,0.0,0.0,0.0,0.0,0.0,0.0,0.0,0.0,0.0,0.0,0.0,0.0,0.0,0.0,0.0,0.0,0.0,1.4508,1.6384,1.7545,1.7774,1.6431,1.5517,1.5079,0.0,0.0,0.0,0.0,0.0,0.0,0.0,0.0,0.0,0.0,0.0,0.0,0.0,0.0,0.0,0.0,0.0,0.0,0.0,0.0,0.0,0.0,0.0,0.0,0.0,0.0,0.0,0.0,0.0,0.0,0.0,0.0,0.0,0.0,0.0,0.0,0.0,0.0,0.0,0.0,0.0,0.0,0.0,0.0,0.0,0.0,0.0,0.0,0.0,0.0,0.0,0.0,0.0,0.0,0.0,0.0,0.0,0.0,0.0,0.0,0.0,0.0,0.0,0.0,0.0,0.0,0.0,0.0,0.0,0.0,0.0,0.0,0.0,0.0,0.0,0.0,0.0,0.0,0.0,0.0,0.0,0.0,0.0,0.0,0.0,0.0,0.0,0.0,0.0,0.0,0.0,0.0,0.0,0.0,0.0,0.0,0.0,0.0,0.0,0.0,0.0,0.0,0.0,0.0,0.0,0.0,0.0,0.0,1.909,2.0562,2.0913,2.0092,1.9064,1.725,0.0,0.0,0.0,0.0,0.0,0.0,0.0,0.0,0.0,0.0,0.0,0.0,0.0,0.0,0.0,0.0,0.0,0.0,0.0,0.0,0.0,0.0,0.0,0.0,0.0,0.0,0.0,0.0,0.0,0.0,0.0,0.0,0.0,0.0,0.0,0.0,0.0,0.0,0.0,0.0,0.0,0.0,0.0,0.0,0.0,0.0,0.0,0.0,0.0,0.0,0.0,0.0,0.0,0.0,0.0,0.0,0.0,0.0,0.0,0.0,0.0,0.0,0.0,0.0,0.0,0.0,0.0,0.0,0.0,0.0,0.0,0.0,0.0,0.0,0.0,0.0,0.0,0.0,0.0,0.0,0.0,0.0,0.0,0.0,0.0,0.0,0.0,0.0,0.0,0.0,0.0,0.0,0.0,0.0,0.0,0.0,0.0,0.0,0.0,0.0,0.0,0.0,0.0,0.0,0.0,0.0,0.0,0.0,0.0,2.1852,2.4154,2.4659,2.3205,2.1294,1.9519,0.0,0.0,0.0,0.0,0.0,0.0,0.0,0.0,0.0,0.0,0.0,0.0,0.0,0.0,0.0,0.0,0.0,0.0,0.0,0.0,0.0,0.0,0.0,0.0,0.0,0.0,0.0,0.0,0.0,0.0,0.0,0.0,0.0,0.0,0.0,0.0,0.0,0.0,0.0,0.0,0.0,0.0,0.0,0.0,0.0,0.0,0.0,0.0,0.0,0.0,0.0,0.0,0.0,0.0,0.0,0.0,0.0,0.0,0.0,0.0,0.0,0.0,0.0,0.0,0.0,0.0,0.0,0.0,0.0,0.0,0.0,0.0,0.0,0.0,0.0,0.0,0.0,0.0,0.0,0.0,0.0,0.0,0.0,0.0,0.0,0.0,0.0,0.0,0.0,0.0,0.0,0.0,0.0,0.0,0.0,0.0,0.0,0.0,0.0,0.0,0.0,0.0,0.0,0.0,0.0,0.0,0.0,0.0,2.106,2.3928,2.7705,2.9142,2.8154,2.439,2.1693,0.0,0.0,0.0,0.0,0.0,0.0,0.0,0.0,0.0,0.0,0.0,0.0,0.0,0.0,0.0,0.0,0.0,0.0,0.0,0.0,0.0,0.0,0.0,0.0,0.0,0.0,0.0,0.0,0.0,0.0,0.0,0.0,0.0,0.0,0.0,0.0,0.0,0.0,0.0,0.0,0.0,0.0,0.0,0.0,0.0,0.0,0.0,0.0,0.0,0.0,0.0,0.0,0.0,0.0,0.0,0.0,0.0,0.0,0.0,0.0,0.0,0.0,0.0,0.0,0.0,0.0,0.0,0.0,0.0,0.0,0.0,0.0,0.0,0.0,0.0,0.0,0.0,0.0,0.0,0.0,0.0,0.0,0.0,0.0,0.0,0.0,0.0,0.0,0.0,0.0,0.0,0.0,0.0,0.0,0.0,0.0,0.0,0.0,0.0,0.0,0.0,0.0,0.0,0.0,0.0,0.0,0.0,0.0,2.3723,2.555,3.0545,3.3232,3.3196,2.7726,2.377,0.0,0.0,0.0,0.0,0.0,0.0,0.0,0.0,0.0,0.0,0.0,0.0,0.0,0.0,0.0,0.0,0.0,0.0,0.0,0.0,0.0,0.0,0.0,0.0,0.0,0.0,0.0,0.0,0.0,0.0,0.0,0.0,0.0,0.0,0.0,0.0,0.0,0.0,0.0,0.0,0.0,0.0,0.0,0.0,0.0,0.0,0.0,0.0,0.0,0.0,0.0,0.0,0.0,0.0,0.0,0.0,0.0,0.0,0.0,0.0,0.0,0.0,0.0,0.0,0.0,0.0,0.0,0.0,0.0,0.0,0.0,0.0,0.0,0.0,0.0,0.0,0.0,0.0,0.0,0.0,0.0,0.0,0.0,0.0,0.0,0.0,0.0,0.0,0.0,0.0,0.0,0.0,0.0,0.0,0.0,0.0,0.0,0.0,0.0,0.0,0.0,0.0,0.0,0.0,0.0,0.0,0.0,0.0,2.433,2.7294,3.0284,3.2442,3.3698,2.8971,2.5549,0.0,0.0,0.0,0.0,0.0,0.0,0.0,0.0,0.0,0.0,0.0,0.0,0.0,0.0,0.0,0.0,0.0,0.0,0.0,0.0,0.0,0.0,0.0,0.0,0.0,0.0,0.0,0.0,0.0,0.0,0.0,0.0,0.0,0.0,0.0,0.0,0.0,0.0,0.0,0.0,0.0,0.0,0.0,0.0,0.0,0.0,0.0,0.0,2.0273,0.0,0.0,0.0,0.0,0.0,0.0,0.0,0.0,0.0,0.0,0.0,0.0,0.0,0.0,0.0,0.0,0.0,0.0,0.0,0.0,0.0,0.0,0.0,0.0,0.0,0.0,0.0,0.0,0.0,0.0,0.0,0.0,0.0,0.0,0.0,0.0,0.0,0.0,0.0,0.0,0.0,0.0,0.0,0.0,0.0,0.0,0.0,0.0,0.0,0.0,0.0,0.0,0.0,0.0,0.0,0.0,0.0,0.0,0.0,2.538,2.845,3.1581,3.3545,3.4088,3.135,2.8346,0.0,0.0,0.0,0.0,0.0,0.0,0.0,0.0,0.0,0.0,0.0,0.0,0.0,0.0,0.0,0.0,0.0,0.0,0.0,0.0,0.0,0.0,0.0,0.0,0.0,0.0,0.0,0.0,0.0,0.0,0.0,0.0,0.0,0.0,0.0,0.0,0.0,0.0,0.0,0.0,0.0,0.0,0.0,0.0,0.0,0.0,0.0,0.0,0.0,0.0,0.0,0.0,0.0,0.0,0.0,0.0,0.0,0.0,0.0,0.0,0.0,0.0,0.0,0.0,0.0,0.0,0.0,0.0,0.0,0.0,0.0,0.0,0.0,0.0,0.0,0.0,0.0,0.0,0.0,0.0,0.0,0.0,0.0,0.0,0.0,0.0,0.0,0.0,0.0,0.0,0.0,0.0,0.0,0.0,0.0,0.0,0.0,0.0,0.0,0.0,0.0,0.0,0.0,0.0,0.0,0.0,0.0,2.2843,2.6413,2.9653,3.317,3.4878,3.4662,3.3581,3.0792,2.6195,0.0,0.0,0.0,0.0,0.0,0.0,0.0,0.0,0.0,0.0,0.0,0.0,0.0,0.0,0.0,0.0,0.0,0.0,0.0,0.0,0.0,0.0,0.0,0.0,0.0,0.0,0.0,0.0,0.0,0.0,0.0,0.0,0.0,0.0,0.0,0.0,0.0,0.0,2.035,2.3014,0.0,0.0,0.0,0.0,0.0,0.0,0.0,0.0,2.1361,0.0,0.0,0.0,0.0,0.0,0.0,0.0,0.0,0.0,0.0,0.0,0.0,0.0,0.0,0.0,0.0,0.0,0.0,0.0,0.0,0.0,0.0,0.0,0.0,0.0,0.0,0.0,0.0,0.0,0.0,0.0,0.0,0.0,0.0,0.0,0.0,0.0,0.0,0.0,0.0,0.0,0.0,0.0,0.0,0.0,0.0,0.0,0.0,0.0,0.0,0.0,0.0,0.0,0.0,0.0,0.0,2.2042,2.3381,2.6537,3.1749,3.3023,3.4083,3.4993,3.3401,3.0524,2.6316,0.0,0.0,0.0,0.0,0.0,0.0,0.0,0.0,0.0,0.0,0.0,0.0,0.0,0.0,0.0,0.0,0.0,0.0,0.0,0.0,0.0,0.0,0.0,0.0,0.0,0.0,0.0,0.0,0.0,0.0,0.0,0.0,0.0,0.0,0.0,0.0,0.0,0.0,0.0,2.5782,2.6336,0.0,0.0,0.0,0.0,0.0,0.0,0.0,0.0,2.3386,0.0,0.0,0.0,0.0,0.0,0.0,0.0,0.0,0.0,0.0,0.0,0.0,0.0,0.0,0.0,0.0,0.0,0.0,0.0,0.0,0.0,0.0,0.0,0.0,0.0,0.0,0.0,0.0,0.0,0.0,0.0,0.0,0.0,0.0,0.0,0.0,0.0,0.0,0.0,0.0,0.0,0.0,0.0,0.0,0.0,0.0,0.0,0.0,0.0,0.0,0.0,0.0,0.0,0.0,0.0,2.2481,2.5244,2.8536,3.2389,3.3233,3.3859,3.4409,3.314,3.0325,0.0,0.0,0.0,0.0,0.0,0.0,0.0,0.0,0.0,0.0,0.0,0.0,0.0,0.0,0.0,0.0,0.0,0.0,0.0,0.0,0.0,0.0,0.0,0.0,0.0,0.0,0.0,0.0,0.0,0.0,0.0,0.0,0.0,0.0,0.0,0.0,0.0,0.0,0.0,0.0,2.7177,2.7905,2.8943,0.0,0.0,0.0,0.0,0.0,0.0,2.5609,2.4573,0.0,0.0,0.0,0.0,0.0,0.0,0.0,0.0,0.0,0.0,0.0,0.0,0.0,0.0,0.0,0.0,0.0,0.0,0.0,0.0,0.0,0.0,0.0,0.0,0.0,0.0,0.0,0.0,0.0,0.0,0.0,0.0,0.0,0.0,0.0,0.0,0.0,0.0,0.0,0.0,0.0,0.0,0.0,0.0,0.0,0.0,0.0,0.0,0.0,0.0,0.0,0.0,0.0,0.0,0.0,2.2456,2.6742,3.0199,3.2713,3.3444,3.3839,3.3894,3.2585,2.9787,0.0,0.0,0.0,0.0,0.0,0.0,0.0,0.0,0.0,0.0,0.0,0.0,0.0,0.0,0.0,0.0,0.0,0.0,0.0,0.0,0.0,0.0,0.0,0.0,0.0,0.0,0.0,0.0,0.0,0.0,0.0,0.0,0.0,0.0,0.0,0.0,0.0,0.0,0.0,0.0,0.0,2.9314,3.0907,2.9607,0.0,0.0,0.0,0.0,2.8421,2.7913,0.0,0.0,0.0,0.0,0.0,0.0,0.0,0.0,0.0,0.0,0.0,0.0,0.0,0.0,0.0,0.0,0.0,0.0,0.0,0.0,0.0,0.0,0.0,0.0,0.0,0.0,0.0,0.0,0.0,0.0,0.0,0.0,0.0,0.0,0.0,0.0,0.0,0.0,0.0,0.0,0.0,0.0,0.0,0.0,0.0,0.0,0.0,0.0,0.0,0.0,0.0,0.0,0.0,0.0,0.0,0.0,2.2407,2.6142,2.9747,3.3059,3.3597,3.3991,3.4269,3.148,2.8278,0.0,0.0,0.0,0.0,0.0,0.0,0.0,0.0,0.0,0.0,0.0,0.0,0.0,0.0,0.0,0.0,0.0,0.0,0.0,0.0,0.0,0.0,0.0,0.0,0.0,0.0,0.0,0.0,0.0,0.0,0.0,0.0,0.0,0.0,0.0,0.0,0.0,0.0,0.0,0.0,0.0,3.034,3.0568,3.0714,3.1004,0.0,0.0,3.1868,3.2877,3.3291,0.0,0.0,0.0,0.0,0.0,0.0,0.0,0.0,0.0,0.0,0.0,0.0,0.0,0.0,0.0,0.0,0.0,0.0,0.0,0.0,0.0,0.0,0.0,0.0,0.0,0.0,0.0,0.0,0.0,0.0,0.0,0.0,0.0,0.0,0.0,0.0,0.0,0.0,0.0,0.0,0.0,0.0,0.0,0.0,0.0,0.0,0.0,0.0,0.0,0.0,0.0,0.0,0.0,0.0,0.0,1.9661,2.3389,2.8698,3.2535,3.464,3.5052,3.514,3.4965,3.1828,2.8432,0.0,0.0,0.0,0.0,0.0,0.0,0.0,0.0,0.0,0.0,0.0,0.0,0.0,0.0,0.0,0.0,0.0,0.0,0.0,0.0,0.0,0.0,0.0,0.0,0.0,0.0,0.0,0.0,0.0,0.0,0.0,0.0,0.0,0.0,0.0,0.0,0.0,0.0,0.0,0.0,0.0,0.0,3.3306,3.3617,0.0,0.0,0.0,3.4176,3.4202,0.0,0.0,0.0,0.0,0.0,0.0,0.0,0.0,0.0,0.0,0.0,0.0,0.0,0.0,0.0,0.0,0.0,0.0,0.0,0.0,0.0,0.0,0.0,0.0,0.0,0.0,0.0,0.0,0.0,0.0,0.0,0.0,0.0,0.0,0.0,0.0,0.0,0.0,0.0,0.0,0.0,0.0,0.0,0.0,0.0,0.0,0.0,0.0,0.0,0.0,0.0,0.0,0.0,0.0,0.0,0.0,0.0,2.4042,3.0877,3.4879,3.5761,3.6136,3.6083,3.559,3.2818,0.0,0.0,0.0,0.0,0.0,0.0,0.0,0.0,0.0,0.0,0.0,0.0,0.0,0.0,0.0,0.0,0.0,0.0,0.0,0.0,0.0,0.0,0.0,0.0,0.0,0.0,0.0,1.0379,0.0,0.0,0.0,0.0,0.0,0.0,0.0,0.0,0.0,0.0,0.0,0.0,0.0,0.0,3.2882,3.5497,3.619,3.6874,0.0,0.0,3.6428,3.6451,3.7422,3.6592,0.0,0.0,0.0,0.0,0.0,0.0,0.0,0.0,0.0,0.0,0.0,0.0,0.0,0.0,0.0,0.0,0.0,0.0,0.0,0.0,0.0,0.0,0.0,0.0,0.0,0.0,0.0,0.0,0.0,0.0,0.0,0.0,0.0,0.0,0.0,0.0,0.0,0.0,0.0,0.0,0.0,0.0,0.0,0.0,0.0,0.0,0.0,0.0,0.0,0.0,0.0,0.0,0.0,0.0,0.0,2.4167,3.1273,3.5303,3.5804,3.6122,3.6286,3.6178,3.4277,3.0572,0.0,0.0,0.0,0.0,0.0,0.0,0.0,0.0,0.0,0.0,0.0,0.0,0.0,0.0,0.0,0.0,0.0,0.0,0.0,0.0,0.0,0.0,0.0,0.0,0.0,0.0,0.0,0.0,0.0,0.0,0.0,0.0,0.0,0.0,0.0,0.0,0.0,0.0,0.0,0.0,0.0,3.2796,3.5682,3.7623,3.9529,0.0,0.0,3.9462,4.1441,4.1813,3.9478,3.2357,0.0,0.0,0.0,0.0,0.0,0.0,0.0,0.0,0.0,0.0,0.0,0.0,0.0,0.0,0.0,0.0,0.0,0.0,0.0,0.0,0.0,0.0,0.0,0.0,0.0,0.0,0.0,0.0,0.0,0.0,0.0,0.0,0.0,0.0,0.0,0.0,0.0,0.0,0.0,0.0,0.0,0.0,0.0,0.0,0.0,0.0,0.0,0.0,0.0,0.0,0.0,0.0,0.0,2.215,2.4965,3.2038,3.6221,3.724,3.7403,3.7302,3.6925,3.5381,3.2131,0.0,0.0,0.0,0.0,0.0,0.0,0.0,0.0,0.0,0.0,0.0,0.0,0.0,0.0,0.0,0.0,0.0,0.0,0.0,0.0,0.0,0.0,0.0,0.0,0.0,0.0,0.0,0.0,1.954,2.0273,1.9264,0.0,0.0,0.0,0.0,0.0,0.0,0.0,0.0,0.0,0.0,3.7253,3.9651,4.1392,0.0,0.0,4.3284,4.2557,4.2929,4.1847,3.9512,3.534,3.2848,0.0,0.0,0.0,0.0,0.0,0.0,0.0,0.0,0.0,0.0,0.0,0.0,0.0,0.0,0.0,0.0,0.0,0.0,0.0,0.0,0.0,0.0,0.0,0.0,0.0,0.0,0.0,0.0,0.0,0.0,0.0,0.0,0.0,0.0,0.0,0.0,0.0,0.0,0.0,0.0,0.0,0.0,0.0,0.0,0.0,0.0,0.0,0.0,0.0,0.0,0.0,0.0,2.2743,2.5801,3.2874,3.7092,3.8188,3.8202,3.8074,3.7835,3.6729,3.4123,0.0,0.0,0.0,0.0,0.0,0.0,0.0,0.0,0.0,0.0,0.0,0.0,0.0,0.0,0.0,0.0,0.0,0.0,0.0,0.0,0.0,0.0,0.0,0.0,0.0,0.0,0.0,0.0,2.1227,2.1433,1.9783,0.0,0.0,0.0,0.0,0.0,0.0,0.0,0.0,0.0,0.0,4.0541,4.2439,4.3564,4.4333,4.4654,4.3859,4.3047,4.2506,4.1305,3.9589,3.7185,0.0,0.0,0.0,0.0,0.0,0.0,0.0,0.0,0.0,0.0,0.0,0.0,0.0,0.0,0.0,0.0,0.0,0.0,0.0,0.0,0.0,0.0,0.0,0.0,0.0,0.0,0.0,0.0,0.0,0.0,0.7725,0.0,0.0,0.0,0.0,0.0,0.0,0.0,0.0,0.0,0.0,0.0,0.0,0.0,0.0,0.0,0.0,0.0,0.0,0.0,0.0,0.0,0.0,2.3721,2.6509,3.3747,3.7734,3.8202,3.8202,3.8449,3.8972,3.8385,3.6626,3.3547,0.0,0.0,0.0,0.0,0.0,0.0,0.0,0.0,0.0,0.0,0.0,0.0,0.0,0.0,0.0,0.0,0.0,0.0,0.0,0.0,0.0,0.0,0.0,0.0,0.0,0.0,1.549,1.7715,1.956,0.0,0.0,0.0,0.0,0.0,0.0,0.0,0.0,0.0,0.0,3.9001,4.1685,4.3162,4.3409,4.3301,4.2642,4.1288,4.029,4.0383,4.0747,4.0172,0.0,0.0,0.0,0.0,0.0,0.0,0.0,0.0,0.0,0.0,0.0,0.0,0.0,0.0,0.0,0.0,0.0,0.0,0.0,0.0,0.0,0.0,0.0,0.0,0.0,0.0,0.0,1.2602,1.1779,0.0,0.0,0.0,0.0,0.0,0.0,0.0,0.0,0.0,0.0,0.0,2.343,2.3215,0.0,0.0,0.0,0.0,0.0,0.0,0.0,0.0,0.0,0.0,0.0,0.0,2.3734,2.6082,3.3605,3.7801,3.8202,3.8202,3.8277,3.8501,3.8649,3.6992,3.3214,0.0,0.0,0.0,0.0,0.0,0.0,0.0,0.0,0.0,0.0,0.0,0.0,0.0,0.0,0.0,0.0,0.0,0.0,0.0,0.0,0.0,0.0,0.0,0.0,0.0,1.8919,0.0,0.0,0.0,0.0,0.0,0.0,0.0,0.0,0.0,0.0,0.0,3.3564,3.7358,4.023,4.2286,4.3257,4.3859,4.4604,0.0,0.0,0.0,0.0,0.0,0.0,0.0,0.0,0.0,0.0,0.0,0.0,0.0,0.0,3.9035,3.0688,2.9255,2.9448,2.9846,0.0,0.0,0.0,0.0,0.0,0.0,0.0,0.0,0.0,0.0,0.0,0.0,0.0,0.0,1.6745,0.0,1.571,0.0,0.0,0.0,0.0,0.0,0.0,0.0,0.0,2.4341,2.6499,2.8267,2.8133,2.8029,0.0,2.6116,2.2205,0.0,0.0,0.0,0.0,0.0,0.0,0.0,0.0,2.4606,2.7193,3.4142,3.7953,3.8202,3.8202,3.8315,3.8501,3.9075,3.8065,3.5278,3.1659,2.8245,0.0,0.0,0.0,0.0,0.0,0.0,0.0,0.0,0.0,0.0,0.0,0.0,0.0,0.0,0.0,0.0,0.0,0.0,0.0,0.0,0.0,0.0,0.0,2.0942,0.0,0.0,0.0,0.0,0.0,0.0,0.0,0.0,0.0,2.8624,3.2907,3.7056,3.9857,4.2273,4.359,4.3093,0.0,0.0,0.0,0.0,0.0,0.0,0.0,3.9216,3.9469,3.8345,3.7986,3.9776,4.3461,4.5659,4.4144,0.0,0.0,3.8235,3.6735,3.697,3.7381,3.7291,3.7268,3.7705,3.8565,3.9405,0.0,0.0,0.0,0.0,0.0,0.0,0.0,0.0,2.218,2.1289,0.0,2.0941,0.0,0.0,0.0,0.0,0.0,2.3446,0.0,0.0,3.3813,3.5849,3.3648,3.3556,3.3599,3.3444,3.033,2.8176,2.6977,2.4668,0.0,0.0,0.0,0.0,0.0,0.0,2.6293,2.9936,3.5375,3.8202,3.8202,3.8202,3.8501,3.9068,3.96,3.9779,3.9504,3.5349,3.2332,3.0814,2.2789,0.0,0.0,0.0,0.0,0.0,0.0,0.0,0.0,0.0,0.0,0.0,0.0,0.0,0.0,0.0,0.0,0.0,0.0,0.0,0.0,2.2115,0.0,0.0,0.0,0.0,0.0,0.0,0.0,0.0,0.0,0.0,3.3101,3.5937,3.9253,4.249,0.0,0.0,0.0,0.0,4.5442,4.2932,4.1854,4.1255,4.0705,4.2151,4.3656,4.4462,0.0,0.0,4.5252,4.6546,4.7165,4.4349,4.8385,5.141,4.9758,4.6595,4.4929,4.595,4.4671,4.3948,4.5191,4.6324,4.736,2.5289,0.0,0.0,0.0,0.0,2.4217,2.598,2.8633,2.8111,2.7255,2.6133,2.6163,0.0,0.0,0.0,0.0,0.0,0.0,2.752,3.0567,3.2506,3.4384,3.6194,3.6223,3.6439,3.6814,3.5845,3.5032,3.4309,3.398,2.787,1.6489,0.0,0.0,0.0,0.0,2.8515,3.1422,3.5877,3.8202,3.8202,3.8202,3.8501,3.9068,3.9235,3.9474,3.981,3.8115,3.5619,3.2348,2.8424,0.0,0.0,0.0,0.0,0.0,0.0,0.0,0.0,0.0,0.0,0.0,0.0,0.0,0.0,0.0,0.0,0.0,0.0,0.0,1.9821,2.4445,2.5989,0.0,0.0,0.0,0.0,0.0,0.0,0.0,0.0,0.0,3.7758,3.8224,3.9054,0.0,0.0,4.0718,3.9925,4.2354,4.45,4.5258,4.527,0.0,4.7039,4.5551,4.4688,4.5957,4.8575,5.0201,4.9389,5.1402,5.2921,5.1987,5.324,5.4222,5.3783,5.2758,5.1766,5.1568,5.103,5.0734,5.1107,5.1544,5.1884,3.1763,2.9454,2.6894,2.6586,2.783,2.8235,2.9965,3.249,3.2409,3.179,3.0839,3.1229,2.9095,2.5111,2.4282,0.0,0.0,0.0,3.0318,3.4113,3.4098,3.5389,3.7556,3.7665,3.7854,3.8173,3.7955,3.7781,3.7651,3.6973,3.1995,2.3073,0.0,0.0,2.2538,2.7246,3.0876,3.3255,3.6523,3.8202,3.8202,3.8202,3.8352,3.8723,3.8723,3.9002,3.9565,3.8975,3.758,3.5297,3.2271,2.8656,0.0,0.0,0.0,0.0,0.0,0.0,0.0,0.0,0.0,0.0,0.0,1.4282,1.2,0.0,0.0,0.0,2.2715,2.3569,2.4782,2.8049,0.0,0.0,0.0,0.0,0.0,0.0,0.0,3.2547,3.6871,4.0211,4.1326,4.1087,4.1231,4.2478,4.2558,4.2284,4.1799,0.0,4.6412,4.722,4.7445,4.7925,4.9236,4.8124,4.7504,4.8969,5.0854,5.2211,5.2328,5.4201,5.5678,5.5792,5.6038,5.6267,5.6267,5.5872,5.5408,5.4842,5.467,5.4683,5.49,5.4719,5.4712,3.69,3.635,3.0261,2.8737,3.0327,3.1223,3.2744,3.4724,3.5309,3.5067,3.4413,3.5755,3.3431,2.8372,2.6411,0.0,3.2011,3.1989,3.3985,3.7572,3.761,3.7839,3.8202,3.8202,3.8202,3.8165,3.7599,3.7643,3.8011,3.5752,3.381,3.2364,3.2339,3.1227,2.9287,3.1081,3.3164,3.5337,3.7098,3.8069,3.8188,3.8202,3.8202,3.8202,3.8202,3.8464,3.8995,3.8501,3.8392,3.8687,3.4727,3.1493,2.9405,0.0,0.0,0.0,0.0,0.0,0.0,0.0,0.0,0.0,0.0,0.0,0.0,0.0,0.0,2.8303,3.1861,0.0,3.3251,3.2402,0.0,0.0,0.0,3.1031,3.3358,3.6348,3.8462,3.9134,0.0,0.0,4.415,4.4229,4.5012,4.7145,4.7665,4.7405,4.6256,4.8297,4.9892,4.8776,4.8871,4.8987,4.9572,5.0291,5.1346,5.262,5.3621,5.401,5.4062,5.511,5.6098,5.6114,5.6844,5.7353,5.7388,5.6733,5.6457,5.6283,5.6115,5.6259,5.685,5.6518,5.6258,3.6005,3.5882,3.4287,3.4265,3.526,3.5475,3.6,3.6637,3.6803,3.6788,3.6751,3.6968,3.6189,3.4742,3.3943,3.4382,3.5693,3.5401,3.6112,3.7558,3.761,3.7839,3.8202,3.8202,3.8066,3.7749,3.7582,3.7596,3.7711,3.7115,3.623,3.519,3.5111,3.3333,2.9928,3.184,3.3918,3.5897,3.6358,3.7134,3.815,3.8202,3.8202,3.8202,3.8202,3.8277,3.8389,3.8277,3.8242,3.8311,3.6736,3.5196,3.3793,2.6553,0.0,0.0,0.0,0.0,0.0,0.0,0.0,0.0,0.0,2.0193,1.6129,0.0,2.4424,0.0,3.508,3.7305,3.3663,3.5505,0.0,0.0,3.4611,3.5186,3.9145,4.0879,4.181,4.1852,4.4294,4.6291,4.6987,4.7084,4.8109,5.0634,4.795,4.5546,4.5328,4.7747,4.9756,5.014,5.1521,5.2868,5.3287,5.3805,5.409,5.4525,5.4709,5.4843,5.4826,5.5123,5.5383,5.5402,5.5649,5.5892,5.5996,5.6248,5.6517,5.653,5.6443,5.6604,5.7335,5.7317,5.7264,3.5018,3.525,3.5263,3.5696,3.6401,3.6412,3.6455,3.6532,3.6906,3.7201,3.7419,3.7162,3.6915,3.6693,3.6258,3.6204,3.6389,3.6178,3.6536,3.7303,3.7341,3.7634,3.8202,3.8014,3.7839,3.7572,3.7419,3.7341,3.7341,3.7495,3.731,3.6764,3.694,3.556,3.2793,3.3253,3.3971,3.4784,3.5667,3.6788,3.8136,3.8202,3.754,3.6208,3.6874,3.661,3.5293,3.5934,3.59,3.4896,3.442,3.374,3.2674,2.7817,2.487,0.0,0.0,0.0,0.0,0.0,0.0,0.0,0.0,0.0,0.0,0.0,2.842,3.0392,3.7175,3.9781,3.5673,3.8137,4.0107,4.0319,3.9702,4.0792,4.4593,4.544,4.5946,4.651,4.7956,4.9177,4.9899,4.9998,5.0582,5.2224,5.0235,4.868,4.8781,5.0183,5.1454,5.2194,5.3367,5.4339,5.4772,5.4822,5.4839,5.4855,5.5122,5.5322,5.5322,5.5679,5.5953,5.5953,5.6138,5.6247,5.6267,5.6378,5.6644,5.6935,5.6814,5.6911,5.7464,5.7574,5.7662,3.405,3.4551,3.4592,3.4881,3.5413,3.5548,3.5601,3.564,3.6306,3.6807,3.7109,3.6797,3.6496,3.6272,3.5884,3.571,3.571,3.571,3.6151,3.6915,3.6993,3.7419,3.8104,3.7839,3.761,3.7495,3.7187,3.694,3.6954,3.7341,3.7453,3.7343,3.7748,3.7171,3.5747,3.4579,3.3758,3.3319,3.5087,3.6566,3.7661,3.7601,3.6235,3.3684,3.4992,3.4576,3.2014,3.3209,3.3124,3.1268,3.1117,3.0945,3.0445,2.8958,2.7445,0.0,2.456,0.0,0.0,0.0,0.0,0.0,0.0,0.0,0.0,3.3019,3.3572,3.2756,3.8792,4.1615,3.9055,4.0958,4.3105,4.4919,4.5326,4.6405,4.8779,4.926,4.9872,5.1166,5.1398,5.1696,5.2208,5.2302,5.2197,5.2371,5.2607,5.2728,5.3361,5.3344,5.3662,5.4543,5.4742,5.4962,5.4962,5.4875,5.4891,5.4924,5.5355,5.5736,5.5752,5.6386,5.6899,5.6937,5.7022,5.7168,5.7235,5.6865,5.6864,5.7389,5.7164,5.7052,5.7482,5.7634,5.7898,3.3755,3.3882,3.3882,3.3856,3.3817,3.4735,3.5533,3.6225,3.6225,3.6241,3.6312,3.6232,3.6058,3.5844,3.5764,3.571,3.571,3.571,3.5965,3.6549,3.6836,3.7264,3.7739,3.7938,3.7749,3.7134,3.7031,3.6836,3.6496,3.6915,3.6673,3.5938,3.632,3.5569,3.3867,0.0,0.0,0.0,3.4915,3.539,3.5167,3.4533,3.3657,3.2624,3.3747,0.0,3.3578,3.3826,3.3837,3.34,3.3359,0.0,0.0,0.0,0.0,0.0,0.0,0.0,0.0,0.0,0.0,0.0,3.2718,3.2868,3.323,3.6308,3.8025,3.7563,4.0629,4.3142,4.4183,4.5268,4.6074,4.6516,4.7572,4.8547,4.911,5.0137,5.1033,5.1265,5.1794,5.2208,5.234,5.1782,5.1635,5.2332,5.2425,5.2969,5.4155,5.4274,5.4593,5.5251,5.5819,5.6233,5.6282,5.6233,5.6133,5.6316,5.6365,5.6465,5.6465,5.6586,5.6757,5.6757,5.6911,5.7063,5.7063,5.708,5.7163,5.7331,5.7268,5.7335,5.7746,5.7854,5.7905,3.2902,0.0,3.3215,3.333,0.0,3.3969,3.4772,3.575,3.6112,3.6192,3.6086,3.6086,3.5952,3.571,3.571,3.571,3.571,3.571,3.5924,3.6405,3.6628,3.6954,3.7457,3.7558,3.7327,3.6861,3.6758,3.6496,3.6098,3.6496,3.6565,3.6269,3.664,3.6443,3.5737,3.5954,3.5713,3.5041,3.547,3.5881,3.6263,3.5881,3.4801,3.3057,3.4312,0.0,0.0,0.0,0.0,0.0,0.0,0.0,0.0,0.0,0.0,3.403,3.2509,3.2154,3.3569,3.3994,3.5477,3.8382,3.8632,3.832,3.7613,3.9984,4.1727,4.2164,4.3465,4.4783,4.6143,4.6651,4.6861,4.6846,4.744,4.8155,4.8832,4.9528,5.031,5.103,5.1136,5.1417,5.2302,5.1983,5.2013,5.2792,5.3465,5.4087,5.4845,5.5019,5.5322,5.6017,5.6415,5.668,5.6697,5.6697,5.6697,5.668,5.6697,5.6697,5.6697,5.6697,5.6697,5.6719,5.6812,5.6851,5.6872,5.7025,5.7139,5.7176,5.7252,5.7364,5.7588,5.7698,5.7772,3.2025,3.2506,3.2537,3.2828,3.3288,3.3139,3.3788,3.495,0.0,0.0,0.0,3.6032,3.5898,3.571,3.571,3.571,3.571,3.571,3.5884,3.6272,3.6365,3.6575,3.6886,3.6808,3.6612,3.6415,3.6244,3.6018,3.571,3.6192,3.6575,3.6978,3.7419,3.7801,3.8165,3.8202,3.7627,3.6509,3.6118,3.6466,3.7494,3.7382,3.6061,3.3423,3.489,3.4539,3.2097,3.325,3.3164,3.1405,3.1268,3.1673,3.2525,3.2606,3.3854,3.6482,3.6737,3.7749,4.0046,4.019,4.1135,4.3216,4.2741,4.2201,4.1774,4.2792,4.3974,4.5303,4.5517,4.5898,4.6687,4.6781,4.6788,4.6834,4.6971,4.7524,4.8534,4.885,4.9515,5.0557,5.0274,5.0313,5.1635,5.1907,5.2177,5.2903,5.3924,5.5287,5.554,5.5688,5.6001,5.6514,5.6663,5.6697,5.6697,5.6697,5.6697,5.6697,5.6697,5.6697,5.6697,5.6697,5.6697,5.6697,5.6697,5.6735,5.6735,5.6983,5.7132,5.7132,5.738,5.7599,5.7637,5.7767,5.7921,3.1749,3.1837,3.1837,3.1737,3.1693,3.2215,3.3207,3.4564,3.5656,3.5978,3.5764,3.5764,3.5723,3.571,3.571,3.571,3.571,3.571,3.5723,3.5844,3.6192,3.6005,3.5359,3.5628,3.5602,3.5264,3.5196,3.5386,3.5723,3.6138,3.6589,3.6978,3.7419,3.7801,3.8165,3.8202,3.8121,3.7893,3.6271,3.5283,3.5024,3.4306,3.3464,3.2593,3.371,3.4118,3.3687,3.3919,3.3892,3.355,3.3537,3.4547,3.6728,3.6819,3.8077,4.052,4.0778,4.1207,4.2108,4.2187,4.2252,4.2427,4.182,4.1675,4.2409,4.2574,4.3011,4.3856,4.4464,4.5313,4.6523,4.6713,4.6887,4.7385,4.8022,4.8495,4.8639,4.9166,4.9623,4.9962,4.99,4.9781,5.0324,5.0787,5.1224,5.1447,5.2941,5.396,5.519,5.607,5.6525,5.6663,5.6697,5.6697,5.6697,5.6697,5.6697,5.6697,5.6697,5.6697,5.6697,5.6697,5.6697,5.6697,5.673,5.6746,5.6785,5.7266,5.762,5.7736,5.814,5.8578,5.8719,5.8831,5.8669,3.2118,3.2118,3.2118,3.1893,3.1572,3.2064,3.2618,3.3232,3.4605,3.5399,3.5723,3.571,3.571,3.571,3.571,3.571,3.571,3.571,3.571,3.5669,3.5562,3.5237,3.4869,3.4761,3.4513,3.4139,3.4733,3.5006,3.5046,3.5683,3.6071,3.6096,3.6255,3.6727,3.7453,3.7491,3.7734,3.815,3.7325,3.6767,3.648,3.6134,3.5755,3.5509,3.6038,3.6269,3.6269,3.6255,3.6269,3.6255,3.6269,3.6946,3.8411,3.8498,3.9168,4.0569,4.0668,4.0925,4.1542,4.1819,4.1965,4.1852,4.1111,4.0823,4.1245,4.1726,4.2408,4.35,4.4208,4.5007,4.5946,4.6391,4.6695,4.6858,4.7211,4.7518,4.7886,4.8219,4.8625,4.8994,4.8723,4.8944,5.0207,5.0567,5.1121,5.1814,5.3277,5.4532,5.5166,5.5652,5.6106,5.6586,5.6697,5.6697,5.6697,5.6697,5.6697,5.6697,5.6697,5.6697,5.6697,5.6697,5.6697,5.673,5.6995,5.7243,5.7276,5.7873,5.8287,5.8419,5.8618,5.8923,5.902,5.9139,5.9053,3.2683,3.2671,3.2671,3.2358,3.1785,3.195,3.2021,3.2108,3.3275,3.4259,3.5087,3.5507,3.571,3.571,3.571,3.571,3.571,3.571,3.571,3.5629,3.5018,3.4579,3.429,3.3788,3.331,3.3054,3.3846,3.423,3.4386,3.4893,3.5128,3.5115,3.5358,3.5925,3.6819,3.6897,3.7337,3.8165,3.8202,3.8202,3.8202,3.8202,3.8202,3.8202,3.8188,3.8202,3.8202,3.8202,3.8202,3.8202,3.8202,3.8464,3.9031,3.909,3.9328,3.9819,3.9889,4.0135,4.0656,4.101,4.1194,4.1111,4.0393,4.0021,4.0294,4.0805,4.1769,4.3078,4.418,4.5044,4.5668,4.6146,4.6457,4.6526,4.6561,4.6826,4.7204,4.7309,4.7553,4.8088,4.7694,4.8107,4.9676,5.0452,5.1149,5.2616,5.4093,5.4911,5.4762,5.4968,5.5612,5.5925,5.6257,5.6469,5.6603,5.6697,5.6697,5.6697,5.6697,5.6697,5.6713,5.6796,5.6945,5.7061,5.7574,5.7955,5.8088,5.8634,5.9065,5.9164,5.938,5.9496,5.9569,5.9491,5.9404,3.3212,3.3212,3.3224,3.2795,3.2017,3.143,3.1496,3.1945,3.1933,3.2389,3.3407,3.495,3.5669,3.571,3.5669,3.571,3.571,3.571,3.5723,3.5616,3.5005,3.415,3.3258,3.25,3.2064,3.1801,3.1965,3.281,3.4007,3.3773,3.383,3.4454,3.5498,3.6171,3.6615,3.6794,3.7337,3.8202,3.8202,3.8202,3.8202,3.8202,3.8202,3.8202,3.8202,3.8202,3.8202,3.8202,3.8202,3.8202,3.8202,3.8464,3.898,3.909,3.9328,3.9819,3.9889,4.012,4.0588,4.0447,4.027,4.003,3.961,3.9624,4.0321,4.0352,4.0838,4.2329,4.4143,4.5357,4.6149,4.6299,4.6599,4.7068,4.7145,4.7234,4.7294,4.7309,4.7352,4.7381,4.7396,4.7635,4.8704,4.9865,5.1113,5.2325,5.3392,5.3891,5.3415,5.42,5.487,5.4611,5.4902,5.5692,5.6297,5.668,5.6564,5.6603,5.6697,5.673,5.6846,5.726,5.7674,5.774,5.8287,5.875,5.8949,5.9363,5.986,5.996,6.0307,6.0821,6.0804,6.0438,5.9898,3.3741,3.3729,3.3729,3.3202,3.2321,3.1865,3.1546,3.1407,3.1725,3.1977,3.2302,3.3547,3.4413,3.4964,3.5467,3.571,3.571,3.571,3.5669,3.5497,3.4881,3.4206,3.3459,3.2316,3.1713,3.1496,3.1571,3.2212,3.3197,3.3701,3.4073,3.4425,3.4754,3.5318,3.6253,3.6537,3.7184,3.8179,3.8202,3.8202,3.8202,3.8202,3.8202,3.8202,3.8202,3.8202,3.8202,3.8202,3.8202,3.8202,3.8202,3.8315,3.8538,3.8575,3.8671,3.8914,3.9133,3.9349,3.957,3.9651,3.9847,4.0188,3.9794,3.9984,4.1043,4.1695,4.2511,4.3515,4.4184,4.4974,4.613,4.6651,4.701,4.7249,4.7309,4.7309,4.7309,4.7309,4.7309,4.7309,4.7309,4.7713,4.879,5.011,5.1122,5.1789,5.2606,5.2991,5.268,5.3284,5.3703,5.3934,5.3891,5.4089,5.4959,5.5588,5.5829,5.5948,5.6336,5.6746,5.7276,5.7508,5.7906,5.8353,5.9065,5.9496,5.9545,6.0125,6.0672,6.0705,6.0738,6.1119,6.1119,6.0564,5.9987,3.421,3.4186,3.4054,3.3562,3.2865,3.2301,3.1786,3.1364,3.1588,3.1548,3.1448,3.2345,3.3134,3.3827,3.484,3.5467,3.5669,3.5494,3.5448,3.5381,3.4491,3.3865,3.3551,3.2251,3.1456,3.1226,3.135,3.1824,3.2635,3.3704,3.4213,3.4206,3.4145,3.4595,3.5502,3.5858,3.6497,3.7341,3.7682,3.7848,3.7872,3.8089,3.8202,3.8202,3.8202,3.8202,3.8202,3.8202,3.8202,3.8202,3.8202,3.8202,3.8202,3.8202,3.8202,3.824,3.8538,3.8834,3.9047,3.9387,3.9905,4.0465,4.0329,4.0775,4.196,4.282,4.3831,4.5017,4.4773,4.509,4.6341,4.7025,4.7294,4.7309,4.7309,4.7309,4.7309,4.7309,4.7309,4.7309,4.7309,4.7803,4.9149,5.0362,5.1216,5.1339,5.2033,5.2426,5.2336,5.2426,5.2858,5.3196,5.2814,5.308,5.3848,5.4527,5.4927,5.5393,5.5948,5.6599,5.7578,5.7873,5.8353,5.9082,5.981,6.0241,6.0307,6.0821,6.1086,6.1102,6.1119,6.1119,6.1119,6.0605,6.024,3.4739,3.4655,3.4198,3.3958,3.3838,3.2693,3.2079,3.1926,3.1376,3.0927,3.0892,3.1869,3.2271,3.2339,3.3823,3.4895,3.5507,3.5046,3.5033,3.5241,3.3672,3.2946,3.3044,3.1881,3.1109,3.0899,3.1033,3.1492,3.2218,3.3371,3.38,3.3437,3.4059,3.4333,3.4425,3.4831,3.5089,3.579,3.6596,3.7014,3.713,3.781,3.8202,3.8202,3.8202,3.8202,3.8202,3.8202,3.8202,3.8202,3.8202,3.8202,3.8202,3.8202,3.8202,3.824,3.8404,3.8906,3.9607,3.9906,4.033,4.0969,4.1203,4.1837,4.294,4.304,4.3931,4.6196,4.5783,4.5985,4.6954,4.7191,4.7309,4.7309,4.7309,4.7309,4.7309,4.7309,4.7309,4.7324,4.7429,4.7997,4.9194,5.0406,5.1094,5.1354,5.2002,5.2245,5.1696,5.2048,5.217,5.1865,5.2124,5.2903,5.3778,5.4401,5.4678,5.5058,5.558,5.6115,5.7284,5.8353,5.9082,5.9777,6.0423,6.0837,6.1003,6.1086,6.1102,6.1119,6.1119,6.1119,6.1119,6.1086,6.0531,3.4775,3.4763,3.457,3.4318,3.3958,3.3468,3.286,3.2079,3.1798,3.1402,3.1055,3.1639,3.2039,3.2251,3.3165,3.4105,3.499,3.4799,3.4782,3.4753,3.3702,3.3219,3.3141,3.2572,3.2057,3.1602,3.1488,3.1673,3.2186,3.3384,3.3898,3.3897,3.4533,3.4829,3.4704,3.4957,3.5444,3.6098,3.6531,3.7053,3.7644,3.8052,3.8202,3.8202,3.8202,3.8202,3.8202,3.8202,3.8202,3.8202,3.8202,3.8202,3.8202,3.8202,3.8202,3.8202,3.8404,3.8883,3.9681,4.001,4.0635,4.1763,4.1844,4.2288,4.3284,4.3659,4.4348,4.5477,4.6167,4.6534,4.6886,4.7164,4.7309,4.7309,4.7309,4.7309,4.7309,4.7309,4.7309,4.7429,4.7967,4.8835,4.9344,5.0421,5.1184,5.1214,5.1526,5.1526,5.1401,5.1511,5.1603,5.1339,5.1479,5.2033,5.2947,5.4216,5.4959,5.5104,5.5561,5.7044,5.8297,5.9015,5.9744,6.0324,6.097,6.1053,6.1102,6.1102,6.1119,6.1119,6.1119,6.1119,6.1119,6.0837,6.0026,3.4775,3.4775,3.4775,3.4631,3.4234,3.4066,3.3504,3.2705,3.2383,3.19,3.1506,3.1766,3.2058,3.2329,3.2921,3.3571,3.4237,3.4153,3.4105,3.4072,3.33,3.2942,3.2969,3.2678,3.2277,3.19,3.1837,3.2071,3.2574,3.3515,3.4066,3.427,3.4824,3.4904,3.4661,3.4693,3.5158,3.5776,3.5978,3.657,3.7606,3.7938,3.8104,3.8165,3.8202,3.8202,3.8202,3.8202,3.8202,3.8202,3.8202,3.8202,3.8202,3.8202,3.8202,3.8202,3.8329,3.8911,3.9847,4.0222,4.0961,4.2341,4.2619,4.2994,4.3578,4.4175,4.4805,4.5405,4.6006,4.658,4.6931,4.7121,4.7207,4.7266,4.7309,4.7309,4.7309,4.7309,4.7429,4.7743,4.8551,4.9269,4.9643,5.0556,5.1094,5.1229,5.1229,5.1229,5.1229,5.1229,5.1229,5.1261,5.1557,5.1773,5.2561,5.373,5.4927,5.518,5.5894,5.7478,5.88,5.9529,6.0225,6.0854,6.1119,6.1119,6.1119,6.1119,6.1119,6.1119,6.1119,6.1119,6.0837,6.0423,5.9794,3.4775,3.4775,3.4775,3.4751,3.4643,3.4258,3.4006,3.373,3.2937,3.2404,3.2172,3.2426,3.2462,3.2388,3.3175,3.3548,3.35,3.3109,3.3096,3.3369,3.2369,3.2087,3.2442,3.2106,3.1827,3.1612,3.1934,3.2502,3.3236,3.3765,3.4222,3.4691,3.4703,3.4462,3.4017,3.3823,3.3945,3.4478,3.4721,3.548,3.678,3.7352,3.7763,3.8127,3.8202,3.8202,3.8202,3.8202,3.8202,3.8202,3.8202,3.8202,3.8202,3.8202,3.8202,3.8202,3.8202,3.8955,4.0242,4.068,4.1356,4.2647,4.3468,4.3714,4.3675,4.4484,4.5229,4.5477,4.5933,4.6491,4.6975,4.7019,4.7019,4.7266,4.7309,4.7309,4.7309,4.7324,4.7563,4.8177,4.894,4.9523,5.0137,5.078,5.1199,5.1229,5.1229,5.1229,5.1229,5.1229,5.1229,5.1354,5.1603,5.1865,5.2546,5.3296,5.4369,5.5344,5.6303,5.7487,5.8722,5.9612,6.0374,6.0986,6.1102,6.1119,6.1119,6.1119,6.1119,6.1119,6.1119,6.1102,6.087,6.0539,6.0042,3.4775,3.4775,3.4775,3.4775,3.4763,3.4607,3.4342,3.3982,3.3622,3.331,3.3047,3.3358,3.3322,3.3118,3.3554,3.3669,3.3317,3.2852,3.2722,3.2765,3.2098,3.1801,3.197,3.2142,3.243,3.2592,3.2472,3.2743,3.3423,3.3848,3.4198,3.4449,3.4342,3.4018,3.3537,3.3088,3.3194,3.3854,3.3823,3.4761,3.6649,3.6897,3.7299,3.8089,3.8202,3.8202,3.8202,3.8202,3.8202,3.8202,3.8202,3.8202,3.8202,3.8202,3.8202,3.8202,3.8202,3.8844,4.0315,4.0979,4.1846,4.3134,4.4012,4.4253,4.4117,4.4733,4.5172,4.5259,4.5785,4.6343,4.6491,4.6668,4.6858,4.7251,4.7309,4.7309,4.7414,4.7698,4.8042,4.8356,4.9239,4.9957,5.024,5.0779,5.1199,5.1229,5.1229,5.1229,5.1229,5.1229,5.1229,5.1261,5.1603,5.1865,5.232,5.2798,5.3573,5.4777,5.5963,5.6918,5.8199,5.9498,6.0274,6.0953,6.1069,6.1119,6.1119,6.1119,6.1119,6.1119,6.1119,6.1086,6.1053,6.0721,6.0241,3.4775,3.4775,3.4775,3.4775,3.4775,3.4775,3.4595,3.427,3.4066,3.3861,3.3681,3.3838,3.3826,3.3681,3.3862,3.3814,3.3525,3.3032,3.2717,3.2563,3.1986,3.1717,3.1741,3.1997,3.2478,3.2911,3.2851,3.3194,3.3888,3.4149,3.4342,3.4327,3.4137,3.3754,3.3284,3.2813,3.2933,3.3652,3.3607,3.4526,3.632,3.6741,3.7222,3.8052,3.8202,3.8202,3.8217,3.8434,3.8463,3.826,3.8202,3.8202,3.8202,3.8202,3.8202,3.8202,3.8304,3.8946,4.049,4.1138,4.2085,4.3544,4.4422,4.4599,4.4471,4.4924,4.5361,4.52,4.5652,4.6165,4.6447,4.655,4.6815,4.7266,4.7207,4.7312,4.7595,4.8027,4.8566,4.9,4.9748,5.0257,5.0599,5.0838,5.1214,5.1229,5.1229,5.1229,5.1229,5.1229,5.1229,5.1229,5.1308,5.1603,5.1957,5.2381,5.2814,5.408,5.5389,5.6279,5.7333,5.8743,5.9797,6.072,6.1102,6.1119,6.1119,6.1119,6.1119,6.1119,6.1019,6.1102,6.1053,6.0904,6.0473,3.4775,3.4775,3.4775,3.4775,3.4775,3.4775,3.4799,3.4679,3.4294,3.4066,3.4054,3.409,3.4066,3.4042,3.4114,3.409,3.3946,3.3549,3.3104,3.2666,3.2094,3.1813,3.1741,3.1789,3.2106,3.2671,3.3044,3.3689,3.4422,3.4619,3.4655,3.4375,3.4052,3.3682,3.3164,3.2695,3.2861,3.3558,3.3619,3.4511,3.6334,3.6769,3.7327,3.8127,3.8202,3.8246,3.842,3.8899,3.8971,3.8434,3.8405,3.8362,3.8275,3.8231,3.8202,3.8202,3.8202,3.9247,4.0608,4.1379,4.2281,4.3934,4.4778,4.4967,4.4589,4.5214,4.571,4.5434,4.574,4.6194,4.6624,4.6668,4.6815,4.7179,4.7106,4.7359,4.8147,4.8327,4.888,4.9823,5.0226,5.045,5.105,5.1184,5.1214,5.1229,5.1229,5.1229,5.1229,5.1229,5.1229,5.1229,5.1229,5.1308,5.165,5.1819,5.2261,5.3054,5.4369,5.5311,5.6519,5.7978,5.9296,6.0233,6.0692,6.0793,6.0919,6.0776,6.0734,6.0633,6.0734,6.0977,6.1003,6.0837,6.0523,3.4775,3.4775,3.4775,3.4775,3.4775,3.4775,3.4775,3.4763,3.4631,3.4534,3.457,3.4583,3.4534,3.457,3.4558,3.4583,3.4475,3.4078,3.3754,3.3513,3.2683,3.2102,3.1777,3.1729,3.2199,3.2971,3.327,3.3906,3.492,3.4909,3.4703,3.4373,3.3822,3.3248,3.2719,3.219,3.2124,3.256,3.2897,3.3856,3.5427,3.611,3.6897,3.8089,3.8202,3.8449,3.8913,3.9538,3.9813,3.961,3.916,3.8942,3.887,3.8492,3.8246,3.8202,3.8275,3.9059,4.0713,4.1581,4.2771,4.4473,4.5272,4.5591,4.5475,4.5663,4.5838,4.5782,4.5987,4.618,4.6388,4.6535,4.6756,4.6931,4.715,4.7521,4.8222,4.879,4.9359,5.0076,5.0614,5.0943,5.1139,5.1229,5.1229,5.1229,5.1229,5.1229,5.1229,5.1229,5.1229,5.1229,5.1229,5.1229,5.1308,5.1433,5.1721,5.2218,5.316,5.4067,5.562,5.7375,5.8574,5.9674,5.9411,5.9411,5.9794,5.9984,6.0028,6.0302,6.0692,6.1044,6.0887,6.0705,6.034,3.4775,3.4811,3.5015,3.4979,3.4823,3.5076,3.504,3.4799,3.4775,3.4775,3.4775,3.4775,3.4775,3.4775,3.4775,3.4775,3.4775,3.4462,3.4198,3.3814,3.2959,3.2214,3.1825,3.1729,3.2271,3.3315,3.3411,3.4144,3.5137,3.5223,3.4883,3.4373,3.3712,3.3112,3.2527,3.1994,3.1749,3.1981,3.2463,3.353,3.5061,3.5722,3.678,3.7886,3.8231,3.8556,3.926,3.9826,4.0205,4.0307,3.9929,3.9465,3.9189,3.8855,3.8507,3.826,3.8217,3.9059,4.0757,4.1729,4.2948,4.456,4.5503,4.5822,4.5851,4.588,4.5925,4.6031,4.6121,4.6299,4.6521,4.6712,4.6946,4.7107,4.7446,4.7967,4.8655,4.9075,4.9688,5.0406,5.096,5.1229,5.1229,5.1229,5.1229,5.1229,5.1229,5.1229,5.1229,5.1229,5.1229,5.1229,5.1229,5.1229,5.1229,5.1308,5.1715,5.2162,5.3008,5.3747,5.5021,5.6839,5.7935,5.8693,5.833,5.8376,5.9173,5.9794,6.0028,6.0404,6.0776,6.0953,6.0829,6.0357,6.0026,3.4775,3.4823,3.5291,3.5256,3.4919,3.5304,3.5159,3.4823,3.4775,3.4775,3.4775,3.4775,3.4775,3.4775,3.4655,3.4667,3.4667,3.4558,3.4354,3.385,3.3176,3.2478,3.1934,3.1797,3.2454,3.3392,3.3584,3.4403,3.5279,3.5572,3.5123,3.448,3.3839,3.3192,3.2536,3.1949,3.1741,3.1837,3.2363,3.3403,3.4774,3.5642,3.6702,3.7839,3.8353,3.8727,3.9406,3.9917,4.0322,4.09,4.047,3.9958,3.9436,3.9276,3.8855,3.8347,3.8289,3.903,4.0699,4.1642,4.2832,4.4443,4.5416,4.5866,4.588,4.588,4.597,4.6165,4.621,4.6476,4.6844,4.7164,4.7222,4.7341,4.7848,4.8536,4.9134,4.9359,4.9853,5.099,5.1152,5.1214,5.1229,5.1229,5.1229,5.1229,5.1229,5.1229,5.1229,5.1229,5.1229,5.1229,5.1229,5.1229,5.1229,5.1229,5.1738,5.2291,5.3324,5.4176,5.4949,5.6366,5.7387,5.7885,5.7606,5.8254,5.9559,5.9968,6.0114,6.0345,6.0692,6.0853,6.087,6.0092,5.9579,3.4775,3.4787,3.4895,3.4883,3.4859,3.4907,3.4895,3.4775,3.4775,3.4775,3.4775,3.4775,3.4775,3.4799,3.4402,3.4162,3.421,3.421,3.4078,3.3994,3.3838,3.3152,3.2452,3.2115,3.2613,3.3457,3.3814,3.4541,3.5375,3.5584,3.5207,3.4492,3.3922,3.325,3.2572,3.203,3.1705,3.1793,3.2363,3.3232,3.4402,3.544,3.6466,3.7677,3.8447,3.9087,3.9505,4.0048,4.0226,4.0244,4.0498,4.047,3.9818,3.945,3.8928,3.8391,3.8246,3.8841,4.0191,4.1453,4.2687,4.4081,4.5227,4.588,4.588,4.5925,4.6015,4.618,4.6403,4.6727,4.7121,4.7251,4.7309,4.7444,4.7938,4.8581,4.9164,4.9703,5.03,5.0913,5.1182,5.1229,5.1229,5.1214,5.1214,5.1229,5.1229,5.1229,5.1229,5.1229,5.1229,5.1229,5.1229,5.1229,5.1274,5.1409,5.1962,5.2546,5.3548,5.4401,5.5133,5.5611,5.6577,5.6927,5.6911,5.7978,5.9367,5.9794,5.9838,6.0216,6.0525,6.0563,6.0423,5.9711,5.9065,3.4775,3.4811,3.51,3.5052,3.4883,3.5088,3.5003,3.4811,3.4775,3.4775,3.4775,3.4775,3.4775,3.4727,3.4258,3.4006,3.3994,3.3994,3.4006,3.3994,3.3958,3.3609,3.3015,3.2734,3.2999,3.3704,3.4044,3.4765,3.5553,3.5823,3.5664,3.4927,3.4171,3.3591,3.2926,3.2159,3.1741,3.1749,3.2057,3.2877,3.4223,3.4843,3.5976,3.7187,3.8198,3.8683,3.8464,3.9451,3.9502,3.9519,4.0116,4.0346,3.9664,3.9547,3.916,3.8391,3.8217,3.8826,4.0031,4.1337,4.2644,4.3877,4.5155,4.5677,4.5925,4.597,4.615,4.6358,4.6624,4.6902,4.7266,4.7309,4.7309,4.7489,4.8162,4.8865,4.9148,4.967,5.0296,5.0832,5.1011,5.1011,5.1011,5.1058,5.1167,5.1167,5.1229,5.1229,5.1229,5.1229,5.1229,5.1229,5.1229,5.1244,5.1304,5.1618,5.2202,5.286,5.3653,5.4416,5.514,5.5345,5.5635,5.6051,5.6605,5.7652,5.886,5.9189,5.9805,6.0407,6.0654,6.0432,5.991,5.9148,5.8585,3.4775,3.4811,3.5267,3.5232,3.4931,3.528,3.5196,3.4811,3.4775,3.4775,3.4775,3.4775,3.4775,3.4643,3.4114,3.3862,3.373,3.3718,3.3646,3.3982,3.3994,3.3705,3.3293,3.3275,3.3388,3.3942,3.428,3.5006,3.57,3.6225,3.6178,3.5685,3.4671,3.413,3.3628,3.2527,3.1825,3.1729,3.1793,3.2426,3.3775,3.4264,3.5346,3.7017,3.7744,3.8049,3.8084,3.8728,3.9067,3.8353,3.9519,3.9505,3.9078,3.9304,3.9479,3.8289,3.8202,3.8652,3.9668,4.112,4.2571,4.3718,4.5111,4.5793,4.5925,4.6046,4.6269,4.6535,4.68,4.7077,4.7266,4.7309,4.7309,4.7504,4.8401,4.897,4.9117,4.9501,5.0078,5.0612,5.079,5.079,5.0837,5.0932,5.1026,5.1167,5.1182,5.1229,5.1182,5.1229,5.1229,5.1229,5.1229,5.1229,5.1274,5.1394,5.2037,5.292,5.3698,5.4326,5.4955,5.5235,5.5466,5.5967,5.6654,5.7606,5.8528,5.9173,5.9816,6.0595,6.0539,6.0059,5.9363,5.8601,5.8088,3.4775,3.4775,3.4871,3.4895,3.4847,3.4883,3.4883,3.4787,3.4775,3.4775,3.4775,3.4775,3.4775,3.4607,3.3813,3.3224,3.3008,3.2959,3.3296,3.3826,3.3958,3.373,3.3498,3.3659,3.3678,3.3654,3.4172,3.4978,3.5612,3.6107,3.6555,3.6616,3.5444,3.4669,3.4375,3.3289,3.2087,3.1842,3.1749,3.2264,3.3147,3.4165,3.5346,3.7134,3.761,3.7833,3.8221,3.8563,3.8642,3.8284,3.9243,3.9056,3.8493,3.8874,3.8813,3.842,3.8202,3.8434,3.903,4.0844,4.1961,4.289,4.4589,4.5824,4.597,4.609,4.6358,4.6683,4.699,4.7266,4.7309,4.7309,4.7309,4.7504,4.7938,4.8641,4.9014,4.941,4.9737,5.0221,5.0416,5.0567,5.0662,5.079,5.0917,5.1026,5.112,5.112,5.112,5.1167,5.1229,5.1229,5.1229,5.1229,5.1244,5.1319,5.1708,5.2725,5.3518,5.4087,5.4655,5.5059,5.5416,5.5735,5.6329,5.7197,5.807,5.8995,5.9805,6.0472,6.0109,5.9612,5.8916,5.8237,5.7608,3.4775,3.4775,3.4775,3.4775,3.4775,3.4775,3.4775,3.4775,3.4775,3.4775,3.4775,3.4775,3.4775,3.4619,3.4054,3.326,3.2659,3.2503,3.2947,3.3573,3.3826,3.391,3.3632,3.3915,3.3658,3.3617,3.4192,3.4956,3.5495,3.6094,3.6858,3.6991,3.5805,3.5211,3.518,3.3702,3.2676,3.2169,3.1969,3.222,3.3258,3.4566,3.6017,3.6705,3.7394,3.7628,3.7827,3.8788,3.8563,3.8025,3.8844,3.8764,3.826,3.7923,3.8117,3.8199,3.8202,3.8391,3.8942,4.0815,4.2165,4.2789,4.4647,4.584,4.6105,4.6269,4.655,4.6902,4.7092,4.7309,4.7309,4.7309,4.7309,4.737,4.7775,4.812,4.8445,4.8955,4.9357,4.9729,5.004,5.0268,5.0534,5.0662,5.0775,5.0917,5.1026,5.1026,5.1026,5.1073,5.1135,5.1167,5.1167,5.1229,5.1229,5.1274,5.1693,5.2665,5.3339,5.3907,5.4551,5.5044,5.5194,5.533,5.6051,5.6783,5.7885,5.8889,5.9621,6.0166,5.9721,5.9214,5.8552,5.7889,5.7276,3.4775,3.4775,3.4775,3.4775,3.4775,3.4775,3.4775,3.4775,3.4775,3.4775,3.4775,3.4775,3.4775,3.4595,3.4066,3.3368,3.2527,3.2406,3.2623,3.3128,3.3597,3.3837,3.3796,3.3893,3.3711,3.3279,3.42,3.4893,3.5282,3.5855,3.687,3.7241,3.6135,3.5657,3.6048,3.442,3.3393,3.2754,3.2438,3.2772,3.4008,3.5223,3.6258,3.6496,3.7148,3.7394,3.7589,3.851,3.857,3.8128,3.8445,3.8842,3.7919,3.7384,3.7529,3.8089,3.8127,3.8418,3.9415,4.1135,4.2548,4.3238,4.4996,4.5872,4.6225,4.6447,4.68,4.7222,4.7309,4.7309,4.7309,4.7309,4.7266,4.7254,4.745,4.7718,4.7878,4.8267,4.8831,4.9234,4.9625,4.9936,5.0216,5.0375,5.0504,5.06,5.071,5.0805,5.0805,5.0852,5.0947,5.1073,5.1105,5.1167,5.1229,5.1229,5.1858,5.286,5.3324,5.3743,5.4476,5.5164,5.5194,5.5244,5.5551,5.6329,5.7559,5.8555,5.906,5.932,5.9186,5.881,5.8237,5.7608,5.6978,3.4775,3.4775,3.4775,3.4775,3.4775,3.4775,3.4775,3.4775,3.4775,3.4775,3.4775,3.4775,3.4775,3.457,3.3849,3.3116,3.2563,3.2211,3.2214,3.2731,3.314,3.3293,3.3196,3.3738,3.3486,3.3206,3.4083,3.463,3.4931,3.5357,3.6786,3.7864,3.6556,3.5908,3.7267,3.5351,3.4139,3.3658,3.3471,3.3839,3.4509,3.4964,3.5817,3.6626,3.7095,3.7404,3.7873,3.8523,3.8471,3.8414,3.8432,3.8557,3.8353,3.8174,3.8185,3.815,3.7949,3.782,3.9242,4.1114,4.2919,4.3873,4.5449,4.6197,4.6432,4.6653,4.699,4.7266,4.7309,4.7309,4.7309,4.7266,4.7164,4.7033,4.7021,4.7259,4.7479,4.7894,4.8395,4.892,4.9353,4.964,4.9892,5.0038,5.0183,5.0294,5.039,5.0486,5.0629,5.071,5.0805,5.0917,5.1105,5.1167,5.1229,5.1229,5.1917,5.298,5.3343,5.3638,5.4521,5.5194,5.5194,5.528,5.5516,5.5735,5.6654,5.7496,5.8239,5.8755,5.8918,5.8567,5.7988,5.7359,5.6862,3.4775,3.4775,3.4775,3.4775,3.4775,3.4775,3.4775,3.4775,3.4775,3.4775,3.4775,3.4775,3.4775,3.4643,3.4018,3.344,3.2911,3.2358,3.2238,3.243,3.2743,3.3001,3.3244,3.3432,3.3284,3.3419,3.3815,3.4186,3.45,3.5163,3.6515,3.7618,3.6678,3.6562,3.7937,3.6191,3.5241,3.4786,3.4721,3.4883,3.5372,3.583,3.6401,3.7264,3.7303,3.7634,3.8121,3.8673,3.8635,3.8534,3.8606,3.8702,3.84,3.814,3.811,3.8284,3.8361,3.8851,3.9996,4.134,4.2756,4.4292,4.5653,4.6491,4.6609,4.6887,4.7164,4.7309,4.7309,4.7309,4.7266,4.7164,4.7019,4.6873,4.6756,4.6668,4.7005,4.7627,4.8126,4.8636,4.9083,4.9427,4.9732,4.9878,5.0086,5.0135,5.0246,5.0342,5.0471,5.06,5.0728,5.0822,5.1011,5.1229,5.1229,5.1244,5.1932,5.2785,5.3193,5.3653,5.467,5.5194,5.5194,5.5194,5.533,5.5601,5.5918,5.664,5.7604,5.8268,5.8867,5.8337,5.7814,5.7638,5.7103,3.4775,3.4775,3.4775,3.4775,3.4775,3.4775,3.4775,3.4763,3.4619,3.457,3.4583,3.457,3.4631,3.4643,3.4222,3.373,3.344,3.2803,3.2551,3.2503,3.256,3.2793,3.3031,3.3167,3.3316,3.3388,3.3771,3.3847,3.401,3.4647,3.5724,3.7096,3.6266,3.6863,3.7615,3.6846,3.5708,3.5484,3.552,3.5736,3.6097,3.6626,3.7095,3.7457,3.7649,3.7801,3.8214,3.8571,3.8556,3.844,3.8585,3.8649,3.8553,3.8461,3.8789,3.901,3.9155,3.9732,4.0974,4.2225,4.308,4.45,4.5842,4.6756,4.699,4.7207,4.7309,4.7309,4.7309,4.7266,4.7209,4.7152,4.7007,4.6845,4.6638,4.6386,4.6398,4.7253,4.7919,4.8265,4.8831,4.9514,4.9781,4.9878,4.9975,5.0023,5.0086,5.0198,5.0327,5.0442,5.06,5.0742,5.1011,5.1182,5.1229,5.1439,5.2112,5.2636,5.301,5.3728,5.476,5.5164,5.5194,5.5194,5.5194,5.533,5.5551,5.628,5.6928,5.7461,5.7883,5.7963,5.7725,5.7487,5.7073,3.4775,3.4775,3.4775,3.4775,3.4775,3.4775,3.4775,3.4739,3.4294,3.4126,3.4126,3.4102,3.4366,3.4534,3.4306,3.4018,3.3874,3.2959,3.2623,3.2527,3.2524,3.2507,3.2726,3.2961,3.315,3.3214,3.3545,3.3508,3.342,3.3922,3.5162,3.6308,3.5909,3.6628,3.7297,3.7103,3.6278,3.6062,3.6112,3.6338,3.6561,3.6915,3.7303,3.7572,3.7649,3.7787,3.8165,3.8333,3.8362,3.8202,3.8449,3.8841,3.9011,3.9285,3.9848,4.0562,4.0196,4.0943,4.2224,4.2926,4.3964,4.5035,4.6107,4.6975,4.7106,4.7207,4.7294,4.7266,4.7179,4.7121,4.7197,4.7303,4.7126,4.6711,4.6518,4.6456,4.6554,4.7221,4.7814,4.8014,4.8609,4.947,4.9732,4.9829,4.9829,4.9878,4.9878,4.9941,5.0086,5.0216,5.0438,5.0677,5.0979,5.1167,5.1229,5.1558,5.1947,5.2561,5.3084,5.3922,5.491,5.5089,5.5194,5.5194,5.5194,5.5194,5.528,5.5869,5.6381,5.6613,5.6918,5.7225,5.6869,5.6322,5.5988,3.4775,3.4775,3.4775,3.4775,3.4775,3.4775,3.4775,3.4751,3.4558,3.427,3.3982,3.4006,3.4102,3.427,3.451,3.427,3.3934,3.3344,3.2863,3.243,3.2256,3.22,3.2379,3.2635,3.2847,3.307,3.3319,3.3345,3.3237,3.3646,3.4115,3.4869,3.5515,3.6669,3.727,3.74,3.6934,3.6624,3.6693,3.6968,3.7534,3.7596,3.7825,3.7938,3.7991,3.8014,3.8202,3.8202,3.8202,3.8304,3.8527,3.9117,3.9799,4.0394,4.136,4.2332,4.1824,4.2294,4.261,4.3168,4.3737,4.5815,4.6697,4.7106,4.7062,4.7062,4.7062,4.7033,4.6946,4.6858,4.6845,4.711,4.7106,4.6619,4.644,4.6479,4.6768,4.7422,4.7811,4.8101,4.8798,4.9645,4.9732,4.9732,4.9732,4.9732,4.9732,4.9732,4.9878,5.0086,5.039,5.0629,5.0947,5.112,5.1229,5.1454,5.1738,5.2456,5.3204,5.4072,5.4925,5.5119,5.5194,5.5194,5.5194,5.5194,5.528,5.5501,5.5823,5.6255,5.6553,5.6809,5.6162,5.5317,5.5091,3.4775,3.4775,3.4775,3.4775,3.4775,3.4775,3.4775,3.4751,3.4583,3.4258,3.3813,3.3681,3.3742,3.4018,3.4294,3.4498,3.415,3.3753,3.3236,3.2755,3.2343,3.2188,3.2318,3.2512,3.2711,3.2995,3.3124,3.3124,3.3149,3.3646,3.3988,3.4515,3.5411,3.6577,3.7378,3.7698,3.7497,3.7195,3.7204,3.7394,3.7938,3.8089,3.8165,3.8165,3.8165,3.7938,3.7924,3.7924,3.7962,3.8164,3.8568,3.9528,4.0466,4.1494,4.2596,4.3372,4.3714,4.3561,4.3254,4.306,4.3687,4.5528,4.6624,4.6858,4.6887,4.68,4.68,4.68,4.6683,4.6609,4.6579,4.7077,4.7174,4.6774,4.7063,4.7146,4.7131,4.7491,4.7854,4.8217,4.8986,4.9732,4.9732,4.9732,4.9732,4.9732,4.9732,4.9732,4.9829,5.0086,5.0438,5.0677,5.0899,5.1088,5.1244,5.1618,5.2037,5.2755,5.3473,5.4147,5.479,5.5029,5.5194,5.5194,5.5194,5.5194,5.528,5.5365,5.5635,5.6001,5.6054,5.5958,5.5797,5.5084,5.4756,3.4775,3.4775,3.4775,3.4775,3.4775,3.4775,3.4775,3.4715,3.4282,3.3837,3.338,3.2947,3.3176,3.3754,3.3982,3.4258,3.4414,3.4078,3.3657,3.3128,3.2563,3.2479,3.2428,3.2487,3.2649,3.2995,3.3124,3.3124,3.3136,3.3633,3.3918,3.4322,3.5286,3.6416,3.7134,3.7785,3.7786,3.7383,3.7483,3.7552,3.7815,3.8072,3.8211,3.8083,3.8045,3.7715,3.7275,3.7429,3.7362,3.719,3.8441,3.9596,4.0816,4.1819,4.3094,4.4588,4.4142,4.4106,4.4408,4.3817,4.4232,4.5223,4.6343,4.6639,4.6639,4.6594,4.658,4.658,4.6506,4.6447,4.6753,4.7174,4.7168,4.7279,4.7553,4.7637,4.7608,4.7724,4.8145,4.8449,4.9088,4.9732,4.9732,4.9732,4.9732,4.9732,4.9732,4.9732,4.9781,5.0086,5.0453,5.0629,5.0852,5.1088,5.1319,5.1828,5.2366,5.3069,5.3713,5.4326,5.479,5.5089,5.5194,5.5194,5.5194,5.5194,5.5194,5.5244,5.5466,5.5605,5.5015,5.4865,5.4843,5.4874,5.4571,3.4775,3.4775,3.4775,3.4775,3.4775,3.4775,3.4775,3.4679,3.421,3.3718,3.3344,3.3068,3.2911,3.3224,3.3706,3.4078,3.4186,3.4162,3.3765,3.3319,3.2803,3.2528,3.2453,3.2586,3.2698,3.2995,3.3124,3.3162,3.3124,3.3633,3.3918,3.4309,3.531,3.6358,3.7084,3.7596,3.7592,3.7585,3.7462,3.7419,3.7958,3.8198,3.8182,3.7763,3.7698,3.7195,3.6415,3.6635,3.6455,3.6353,3.7725,3.9465,4.0896,4.2022,4.3849,4.5024,4.4825,4.4269,4.4188,4.3854,4.4517,4.5386,4.6076,4.6447,4.6343,4.6358,4.6358,4.6314,4.6239,4.631,4.6743,4.7369,4.7538,4.7698,4.7883,4.7956,4.8014,4.8261,4.8566,4.8769,4.9248,4.9567,4.9732,4.9424,4.9326,4.9424,4.9375,4.9634,4.9717,5.0135,5.0501,5.0629,5.0852,5.1088,5.1409,5.1977,5.2471,5.3069,5.3743,5.4401,5.4805,5.5134,5.5194,5.5194,5.5194,5.5194,5.5194,5.5194,5.5194,5.511,5.4805,5.4715,5.4959,5.482,5.436,3.4775,3.4775,3.4775,3.4775,3.4775,3.4775,3.4775,3.4679,3.4222,3.3753,3.3332,3.3104,3.2863,3.2851,3.3332,3.3898,3.3982,3.4198,3.392,3.3461,3.3176,3.301,3.2921,3.2906,3.3226,3.3358,3.3345,3.3332,3.3162,3.3633,3.4043,3.4552,3.54,3.615,3.6774,3.7078,3.7562,3.7644,3.7622,3.7638,3.8136,3.8374,3.8241,3.7887,3.7427,3.6865,3.5959,3.5581,3.552,3.5831,3.6961,3.8894,4.0476,4.2022,4.3759,4.4627,4.4848,4.4307,4.4238,4.4288,4.4848,4.537,4.6034,4.6093,4.5945,4.593,4.6061,4.606,4.597,4.6303,4.6766,4.7404,4.7793,4.7952,4.8213,4.83,4.859,4.8851,4.887,4.9088,4.9277,4.9538,4.9634,4.9164,4.8852,4.8951,4.9065,4.9424,4.9766,5.0183,5.0534,5.071,5.0852,5.1088,5.1558,5.2172,5.2665,5.3114,5.3847,5.464,5.4865,5.5194,5.5194,5.5194,5.5194,5.5194,5.5194,5.5194,5.5194,5.5194,5.5119,5.5104,5.5194,5.4895,5.4476,3.4775,3.4775,3.4775,3.4775,3.4775,3.4775,3.4775,3.4739,3.4246,3.3754,3.326,3.2815,3.2551,3.2575,3.302,3.3501,3.3922,3.4378,3.4173,3.3834,3.368,3.3601,3.3617,3.3683,3.3784,3.389,3.3897,3.3759,3.3307,3.3827,3.433,3.473,3.5359,3.5911,3.6278,3.6547,3.7155,3.7469,3.7774,3.7873,3.825,3.8538,3.8263,3.791,3.7461,3.6379,3.5557,3.5214,3.4888,3.5119,3.5877,3.7771,3.9358,4.0625,4.2277,4.3494,4.3921,4.4312,4.4544,4.4629,4.4702,4.4995,4.549,4.5388,4.5344,4.552,4.5738,4.5912,4.594,4.6316,4.678,4.7311,4.7872,4.8191,4.8552,4.8813,4.9194,4.9281,4.9262,4.9349,4.9524,4.9683,4.9571,4.9198,4.8852,4.9001,4.9164,4.9424,4.9781,5.0183,5.0519,5.0775,5.0917,5.1135,5.1663,5.2261,5.2755,5.3174,5.4251,5.5029,5.5179,5.5194,5.5194,5.5194,5.5194,5.5194,5.5194,5.5194,5.5194,5.5194,5.5194,5.5194,5.5194,5.5229,5.497,3.4775,3.4775,3.4775,3.4775,3.4775,3.4775,3.4775,3.4739,3.4631,3.4138,3.3284,3.314,3.2613,3.2042,3.2478,3.3044,3.3478,3.3933,3.4042,3.397,3.4005,3.3934,3.3934,3.4019,3.4206,3.437,3.4405,3.4329,3.4297,3.4491,3.4398,3.4586,3.5051,3.5426,3.5717,3.5814,3.6523,3.7133,3.7607,3.7985,3.8299,3.8611,3.8226,3.7631,3.7245,3.6057,3.5037,3.4607,3.4299,3.4406,3.5545,3.7166,3.8564,3.9977,4.1497,4.2666,4.3459,4.411,4.4298,4.4647,4.4705,4.4472,4.485,4.5053,4.4995,4.5068,4.5372,4.5605,4.5866,4.6243,4.6596,4.7124,4.7602,4.798,4.8368,4.8896,4.9268,4.9421,4.9417,4.9509,4.9732,4.9683,4.9571,4.9311,4.9015,4.9164,4.9262,4.941,4.9766,5.0183,5.0567,5.0775,5.1011,5.1167,5.1678,5.2247,5.2755,5.3339,5.4401,5.5164,5.5194,5.5194,5.5194,5.5194,5.5194,5.5194,5.5194,5.5194,5.5194,5.5194,5.5194,5.5194,5.5194,5.5229,5.532,3.4775,3.4775,3.4775,3.4775,3.4775,3.4775,3.4775,3.4775,3.4775,3.4342,3.3609,3.3356,3.262,3.1717,3.2359,3.2751,3.2405,3.3803,3.4234,3.3882,3.4162,3.4301,3.4328,3.4443,3.4666,3.4844,3.4774,3.4616,3.4761,3.4746,3.4668,3.4469,3.4667,3.5054,3.5461,3.5875,3.6255,3.6775,3.7257,3.784,3.8311,3.867,3.8128,3.7342,3.6942,3.5869,3.4527,3.4137,3.4037,3.3915,3.4986,3.6251,3.7861,3.9555,4.0882,4.1981,4.2424,4.33,4.3849,4.3979,4.4037,4.411,4.4255,4.4255,4.4443,4.4545,4.498,4.5343,4.5721,4.6051,4.6443,4.6842,4.7204,4.7559,4.819,4.8823,4.9128,4.9424,4.9571,4.9669,4.9732,4.9732,4.9585,4.9326,4.9015,4.8753,4.8688,4.8788,4.9346,4.9975,5.0408,5.0775,5.1026,5.1244,5.1738,5.2232,5.2815,5.3473,5.4416,5.5014,5.5119,5.5194,5.5194,5.5194,5.5194,5.5194,5.5194,5.5194,5.5194,5.5194,5.5194,5.5194,5.5194,5.5194,5.5364,3.4775,3.4775,3.4775,3.4775,3.4775,3.4775,3.4823,3.4835,3.4823,3.4535,3.3946,3.3408,3.2511,3.1936,3.2451,3.2405,3.2688,3.3744,3.4306,3.3708,3.4414,3.4678,3.4844,3.505,3.5069,3.5051,3.5021,3.4957,3.4823,3.4804,3.4782,3.4483,3.4667,3.4908,3.5066,3.5831,3.6269,3.6625,3.6946,3.7361,3.8378,3.8753,3.8523,3.7625,3.6929,3.6094,3.4722,3.4172,3.4121,3.3941,3.4379,3.5684,3.752,3.9375,4.0648,4.1155,4.1483,4.2167,4.284,4.2941,4.3098,4.3372,4.3791,4.3546,4.3602,4.4356,4.4951,4.5198,4.5547,4.5712,4.6045,4.6443,4.6838,4.7229,4.7723,4.8333,4.8731,4.9178,4.9634,4.9732,4.9732,4.9683,4.962,4.9424,4.9262,4.8639,4.8539,4.8674,4.9036,4.9863,5.0298,5.0728,5.1026,5.1227,5.1588,5.2127,5.286,5.3623,5.4491,5.497,5.5149,5.5194,5.5194,5.5194,5.5194,5.5194,5.5194,5.5194,5.5194,5.5194,5.5194,5.5194,5.5194,5.5194,5.5368,3.4775,3.4775,3.4775,3.4775,3.4775,3.4775,3.492,3.5078,3.5126,3.4691,3.3935,3.3136,3.264,3.2559,3.2265,3.2347,3.3185,3.3696,3.4234,3.4294,3.4679,3.4751,3.5029,3.5053,3.5258,3.5437,3.5387,3.5229,3.5046,3.499,3.4968,3.4715,3.4775,3.4775,3.4823,3.5571,3.5924,3.6531,3.6634,3.6871,3.763,3.8015,3.7867,3.693,3.6153,3.5796,3.486,3.4571,3.4607,3.4583,3.5218,3.6467,3.7952,3.9396,4.0148,4.0385,4.063,4.1193,4.1571,4.1723,4.1789,4.208,4.2379,4.2594,4.3119,4.4237,4.4878,4.5067,4.5312,4.5432,4.5584,4.5973,4.635,4.6771,4.7367,4.7855,4.838,4.9029,4.9634,4.9732,4.9732,4.9683,4.962,4.9522,4.936,4.9311,4.936,4.9459,4.9459,4.9926,5.0202,5.0632,5.0979,5.1272,5.1511,5.2112,5.2905,5.3608,5.4401,5.482,5.5179,5.5194,5.5194,5.5194,5.5194,5.5194,5.5194,5.5194,5.5194,5.5194,5.5194,5.5194,5.5194,5.5194,5.5357,3.4775,3.4775,3.4775,3.4775,3.4775,3.4775,3.4932,3.5175,3.5175,3.5017,3.4606,3.3731,3.3028,3.2889,3.2484,3.2009,3.2944,3.3887,3.3753,3.3882,3.4459,3.4409,3.4617,3.4823,3.5163,3.5368,3.5512,3.544,3.5114,3.5114,3.5054,3.4823,3.4775,3.4823,3.4823,3.5163,3.5692,3.6534,3.638,3.6553,3.6903,3.718,3.7176,3.6298,3.587,3.5488,3.5102,3.4775,3.4811,3.5187,3.5821,3.6564,3.7776,3.8917,3.9496,3.9601,3.9771,4.0178,4.0449,4.0527,4.0645,4.1121,4.1647,4.2122,4.2505,4.3511,4.3949,4.4253,4.5414,4.5698,4.5082,4.5222,4.5469,4.5846,4.7161,4.8217,4.8781,4.9375,4.9683,4.9732,4.9732,4.9683,4.9683,4.9683,4.9522,4.9522,4.9683,4.9683,4.9781,4.9878,5.0168,5.0442,5.079,5.1103,5.1332,5.2097,5.3025,5.3713,5.4261,5.4755,5.5143,5.5194,5.5194,5.5143,5.5143,5.5194,5.5194,5.5143,5.5194,5.5194,5.5194,5.5194,5.5143,5.5078,5.5175,3.4775,3.4775,3.4775,3.4775,3.4775,3.4775,3.4981,3.5223,3.5271,3.5464,3.5522,3.4832,3.3347,3.2779,3.2924,3.1922,3.2005,3.3823,3.3761,3.3457,3.4011,3.397,3.3956,3.4115,3.4617,3.5078,3.532,3.5126,3.4872,3.4981,3.4981,3.4823,3.4775,3.4775,3.5005,3.5391,3.587,3.6108,3.6191,3.6285,3.6449,3.6555,3.6332,3.6096,3.5823,3.544,3.5005,3.4775,3.4775,3.5379,3.6143,3.6977,3.7717,3.8697,3.8832,3.9069,3.9123,3.943,3.9635,3.9535,4.012,4.0815,4.1321,4.1774,4.2071,4.2657,4.3156,4.3746,4.4908,4.5104,4.4485,4.4581,4.4808,4.5386,4.6969,4.8417,4.9029,4.962,4.9683,4.9732,4.9717,4.9717,4.9703,4.9703,4.9688,4.9688,4.9703,4.9732,4.9732,4.9844,5.0023,5.0216,5.0456,5.0772,5.1086,5.2013,5.2979,5.3362,5.3893,5.4559,5.5027,5.4911,5.486,5.4962,5.4976,5.4976,5.5027,5.4976,5.5027,5.5078,5.4962,5.486,5.486,5.4809,5.4875,3.4775,3.4775,3.4775,3.4775,3.4775,3.4775,3.5078,3.5476,3.5512,3.58,3.5906,3.5547,3.451,3.3089,3.3162,3.278,3.2923,3.4313,3.4117,3.3688,3.365,3.3426,3.34,3.3758,3.4115,3.4617,3.5017,3.4872,3.4775,3.4872,3.4884,3.4823,3.4775,3.4775,3.4823,3.515,3.5391,3.5631,3.5584,3.5536,3.6001,3.5953,3.5679,3.5343,3.5017,3.492,3.4823,3.4775,3.4775,3.5235,3.6131,3.7116,3.7867,3.8427,3.8607,3.8442,3.849,3.8379,3.8433,3.8466,3.9079,3.953,4.0083,4.0961,4.1553,4.2549,4.2777,4.2642,4.3343,4.3398,4.3164,4.4158,4.471,4.56,4.6846,4.8076,4.898,4.9438,4.9683,4.9654,4.9611,4.9582,4.9538,4.9558,4.947,4.9456,4.9427,4.947,4.9509,4.9679,4.9834,5.0023,5.0168,5.0342,5.0641,5.1772,5.2674,5.3059,5.3503,5.427,5.4641,5.4473,5.4473,5.4641,5.4641,5.459,5.4656,5.4758,5.4758,5.4758,5.4524,5.4473,5.4473,5.4524,5.4539]}]]